Wetterdaten: Mittwoch, 17.08.2016
Datum Zeit Temp. A. Temp. A. max Feuchte A. Luftdruck Regen Wind Richtung Richtung Sonnenschein ET UV Solar Taupunkt Windben
17.08.2016 00:00 14,3 C 14,3 C 93 % 1011,9 hPa 0,0 mm 3,0 km/h (1 Bft) SO 132 0 min 0,000 mm 0,0 UV-I 0 W/m 13,2 C 4,8 km/h (1 Bft)
17.08.2016 00:01 14,3 C 14,3 C 93 % 1011,8 hPa 0,0 mm 2,4 km/h (1 Bft) SO 132 0 min 0,000 mm 0,0 UV-I 0 W/m 13,2 C 3,2 km/h (1 Bft)
17.08.2016 00:02 14,3 C 14,3 C 93 % 1011,8 hPa 0,0 mm 0,9 km/h (0 Bft) O 92 0 min 0,000 mm 0,0 UV-I 0 W/m 13,2 C 1,6 km/h (1 Bft)
17.08.2016 00:03 14,3 C 14,3 C 94 % 1011,8 hPa 0,0 mm 1,1 km/h (1 Bft) O 92 0 min 0,000 mm 0,0 UV-I 0 W/m 13,3 C 1,6 km/h (1 Bft)
17.08.2016 00:04 14,3 C 14,3 C 94 % 1011,8 hPa 0,0 mm 0,1 km/h (0 Bft) O 92 0 min 0,000 mm 0,0 UV-I 0 W/m 13,3 C 1,6 km/h (1 Bft)
17.08.2016 00:05 14,3 C 14,3 C 94 % 1011,8 hPa 0,0 mm 0,1 km/h (0 Bft) O 92 0 min 0,000 mm 0,0 UV-I 0 W/m 13,3 C 1,6 km/h (1 Bft)
17.08.2016 00:06 14,3 C 14,3 C 94 % 1011,8 hPa 0,0 mm 0,4 km/h (0 Bft) O 92 0 min 0,000 mm 0,0 UV-I 0 W/m 13,3 C 1,6 km/h (1 Bft)
17.08.2016 00:07 14,3 C 14,3 C 94 % 1011,8 hPa 0,0 mm 0,3 km/h (0 Bft) O 92 0 min 0,000 mm 0,0 UV-I 0 W/m 13,3 C 1,6 km/h (1 Bft)
17.08.2016 00:08 14,3 C 14,3 C 94 % 1011,8 hPa 0,0 mm 0,3 km/h (0 Bft) W 280 0 min 0,000 mm 0,0 UV-I 0 W/m 13,3 C 3,2 km/h (1 Bft)
17.08.2016 00:09 14,3 C 14,3 C 94 % 1011,8 hPa 0,0 mm 3,1 km/h (1 Bft) O-SO 110 0 min 0,000 mm 0,0 UV-I 0 W/m 13,3 C 6,4 km/h (2 Bft)
17.08.2016 00:10 14,3 C 14,4 C 94 % 1011,7 hPa 0,0 mm 1,4 km/h (1 Bft) O-SO 110 0 min 0,000 mm 0,0 UV-I 0 W/m 13,3 C 3,2 km/h (1 Bft)
17.08.2016 00:11 14,3 C 14,3 C 94 % 1011,7 hPa 0,0 mm 1,3 km/h (1 Bft) O-SO 111 0 min 0,000 mm 0,0 UV-I 0 W/m 13,3 C 3,2 km/h (1 Bft)
17.08.2016 00:12 14,4 C 14,4 C 94 % 1011,7 hPa 0,0 mm 0,7 km/h (0 Bft) O-SO 111 0 min 0,000 mm 0,0 UV-I 0 W/m 13,4 C 1,6 km/h (1 Bft)
17.08.2016 00:13 14,4 C 14,4 C 94 % 1011,6 hPa 0,0 mm 0,9 km/h (0 Bft) O-SO 111 0 min 0,000 mm 0,0 UV-I 0 W/m 13,4 C 1,6 km/h (1 Bft)
17.08.2016 00:14 14,4 C 14,4 C 94 % 1011,5 hPa 0,0 mm 0,0 km/h (0 Bft) O-SO 111 0 min 0,000 mm 0,0 UV-I 0 W/m 13,4 C 0,0 km/h (0 Bft)
17.08.2016 00:15 14,4 C 14,4 C 94 % 1011,5 hPa 0,0 mm 0,0 km/h (0 Bft) O-SO 111 0 min 0,000 mm 0,0 UV-I 0 W/m 13,4 C 0,0 km/h (0 Bft)
17.08.2016 00:16 14,4 C 14,4 C 94 % 1011,6 hPa 0,0 mm 0,0 km/h (0 Bft) O-SO 111 0 min 0,000 mm 0,0 UV-I 0 W/m 13,4 C 0,0 km/h (0 Bft)
17.08.2016 00:17 14,4 C 14,4 C 94 % 1011,6 hPa 0,0 mm 0,0 km/h (0 Bft) O-SO 111 0 min 0,000 mm 0,0 UV-I 0 W/m 13,4 C 0,0 km/h (0 Bft)
17.08.2016 00:18 14,4 C 14,4 C 94 % 1011,7 hPa 0,0 mm 0,1 km/h (0 Bft) O-SO 111 0 min 0,000 mm 0,0 UV-I 0 W/m 13,4 C 3,2 km/h (1 Bft)
17.08.2016 00:19 14,4 C 14,4 C 94 % 1011,7 hPa 0,0 mm 1,6 km/h (1 Bft) O-SO 110 0 min 0,000 mm 0,0 UV-I 0 W/m 13,4 C 3,2 km/h (1 Bft)
17.08.2016 00:20 14,4 C 14,4 C 94 % 1011,7 hPa 0,0 mm 0,9 km/h (0 Bft) O-SO 110 0 min 0,000 mm 0,0 UV-I 0 W/m 13,4 C 1,6 km/h (1 Bft)
17.08.2016 00:21 14,4 C 14,4 C 94 % 1011,8 hPa 0,0 mm 0,1 km/h (0 Bft) O-SO 110 0 min 0,000 mm 0,0 UV-I 0 W/m 13,4 C 1,6 km/h (1 Bft)
17.08.2016 00:22 14,4 C 14,4 C 94 % 1011,8 hPa 0,0 mm 0,1 km/h (0 Bft) O-SO 110 0 min 0,000 mm 0,0 UV-I 0 W/m 13,4 C 1,6 km/h (1 Bft)
17.08.2016 00:23 14,4 C 14,4 C 94 % 1011,7 hPa 0,0 mm 1,3 km/h (1 Bft) O-SO 110 0 min 0,000 mm 0,0 UV-I 0 W/m 13,4 C 1,6 km/h (1 Bft)
17.08.2016 00:24 14,4 C 14,4 C 94 % 1011,9 hPa 0,0 mm 1,1 km/h (1 Bft) O-SO 110 0 min 0,000 mm 0,0 UV-I 0 W/m 13,4 C 1,6 km/h (1 Bft)
17.08.2016 00:25 14,4 C 14,4 C 94 % 1011,9 hPa 0,0 mm 0,1 km/h (0 Bft) O-SO 110 0 min 0,000 mm 0,0 UV-I 0 W/m 13,4 C 1,6 km/h (1 Bft)
17.08.2016 00:26 14,4 C 14,4 C 94 % 1011,9 hPa 0,0 mm 0,5 km/h (0 Bft) O-SO 110 0 min 0,000 mm 0,0 UV-I 0 W/m 13,4 C 1,6 km/h (1 Bft)
17.08.2016 00:27 14,4 C 14,4 C 94 % 1011,9 hPa 0,0 mm 0,0 km/h (0 Bft) O-SO 110 0 min 0,000 mm 0,0 UV-I 0 W/m 13,4 C 0,0 km/h (0 Bft)
17.08.2016 00:28 14,4 C 14,4 C 94 % 1011,9 hPa 0,0 mm 0,1 km/h (0 Bft) O-SO 110 0 min 0,000 mm 0,0 UV-I 0 W/m 13,4 C 1,6 km/h (1 Bft)
17.08.2016 00:29 14,4 C 14,4 C 94 % 1011,8 hPa 0,0 mm 1,6 km/h (1 Bft) O-SO 110 0 min 0,000 mm 0,0 UV-I 0 W/m 13,4 C 3,2 km/h (1 Bft)
17.08.2016 00:30 14,4 C 14,4 C 94 % 1011,8 hPa 0,0 mm 0,5 km/h (0 Bft) O-SO 110 0 min 0,000 mm 0,0 UV-I 0 W/m 13,4 C 1,6 km/h (1 Bft)
17.08.2016 00:31 14,4 C 14,4 C 94 % 1011,9 hPa 0,0 mm 0,3 km/h (0 Bft) O-SO 110 0 min 0,000 mm 0,0 UV-I 0 W/m 13,4 C 1,6 km/h (1 Bft)
17.08.2016 00:32 14,4 C 14,4 C 94 % 1011,9 hPa 0,0 mm 0,0 km/h (0 Bft) O-SO 110 0 min 0,000 mm 0,0 UV-I 0 W/m 13,4 C 0,0 km/h (0 Bft)
17.08.2016 00:33 14,4 C 14,4 C 94 % 1011,8 hPa 0,0 mm 0,0 km/h (0 Bft) O-SO 110 0 min 0,000 mm 0,0 UV-I 0 W/m 13,4 C 0,0 km/h (0 Bft)
17.08.2016 00:34 14,3 C 14,4 C 94 % 1011,8 hPa 0,0 mm 0,0 km/h (0 Bft) O-SO 110 0 min 0,000 mm 0,0 UV-I 0 W/m 13,3 C 0,0 km/h (0 Bft)
17.08.2016 00:35 14,4 C 14,4 C 94 % 1011,8 hPa 0,0 mm 0,6 km/h (0 Bft) O-SO 110 0 min 0,000 mm 0,0 UV-I 0 W/m 13,4 C 1,6 km/h (1 Bft)
17.08.2016 00:36 14,4 C 14,4 C 94 % 1011,8 hPa 0,0 mm 0,3 km/h (0 Bft) O-SO 110 0 min 0,000 mm 0,0 UV-I 0 W/m 13,4 C 1,6 km/h (1 Bft)
17.08.2016 00:37 14,3 C 14,4 C 94 % 1011,8 hPa 0,0 mm 0,0 km/h (0 Bft) O-SO 110 0 min 0,000 mm 0,0 UV-I 0 W/m 13,3 C 0,0 km/h (0 Bft)
17.08.2016 00:38 14,3 C 14,3 C 94 % 1011,8 hPa 0,0 mm 0,0 km/h (0 Bft) O-SO 110 0 min 0,000 mm 0,0 UV-I 0 W/m 13,3 C 0,0 km/h (0 Bft)
17.08.2016 00:39 14,2 C 14,3 C 94 % 1011,8 hPa 0,0 mm 0,0 km/h (0 Bft) O-SO 110 0 min 0,000 mm 0,0 UV-I 0 W/m 13,2 C 0,0 km/h (0 Bft)
17.08.2016 00:40 14,2 C 14,2 C 94 % 1011,8 hPa 0,0 mm 0,0 km/h (0 Bft) O-SO 110 0 min 0,000 mm 0,0 UV-I 0 W/m 13,2 C 0,0 km/h (0 Bft)
17.08.2016 00:41 14,1 C 14,2 C 94 % 1011,8 hPa 0,0 mm 0,0 km/h (0 Bft) O-SO 110 0 min 0,000 mm 0,0 UV-I 0 W/m 13,1 C 0,0 km/h (0 Bft)
17.08.2016 00:42 14,1 C 14,1 C 94 % 1011,8 hPa 0,0 mm 0,0 km/h (0 Bft) O-SO 110 0 min 0,000 mm 0,0 UV-I 0 W/m 13,1 C 0,0 km/h (0 Bft)
17.08.2016 00:43 14,1 C 14,1 C 94 % 1011,8 hPa 0,0 mm 0,3 km/h (0 Bft) O-SO 110 0 min 0,000 mm 0,0 UV-I 0 W/m 13,1 C 1,6 km/h (1 Bft)
17.08.2016 00:44 14,1 C 14,1 C 94 % 1011,8 hPa 0,0 mm 2,3 km/h (1 Bft) O-SO 110 0 min 0,000 mm 0,0 UV-I 0 W/m 13,1 C 3,2 km/h (1 Bft)
17.08.2016 00:45 14,1 C 14,1 C 95 % 1011,8 hPa 0,0 mm 1,0 km/h (0 Bft) O-SO 110 0 min 0,000 mm 0,0 UV-I 0 W/m 13,3 C 1,6 km/h (1 Bft)
17.08.2016 00:46 14,1 C 14,2 C 95 % 1011,8 hPa 0,0 mm 0,8 km/h (0 Bft) O-SO 110 0 min 0,000 mm 0,0 UV-I 0 W/m 13,3 C 1,6 km/h (1 Bft)
17.08.2016 00:47 14,1 C 14,1 C 95 % 1011,8 hPa 0,0 mm 0,1 km/h (0 Bft) O-SO 110 0 min 0,000 mm 0,0 UV-I 0 W/m 13,3 C 1,6 km/h (1 Bft)
17.08.2016 00:48 14,1 C 14,1 C 94 % 1011,8 hPa 0,0 mm 0,0 km/h (0 Bft) O-SO 110 0 min 0,000 mm 0,0 UV-I 0 W/m 13,1 C 0,0 km/h (0 Bft)
17.08.2016 00:49 14,0 C 14,1 C 95 % 1011,8 hPa 0,0 mm 0,1 km/h (0 Bft) O-SO 110 0 min 0,000 mm 0,0 UV-I 0 W/m 13,2 C 1,6 km/h (1 Bft)
17.08.2016 00:50 14,0 C 14,1 C 95 % 1011,8 hPa 0,0 mm 1,7 km/h (1 Bft) O-SO 110 0 min 0,000 mm 0,0 UV-I 0 W/m 13,2 C 3,2 km/h (1 Bft)
17.08.2016 00:51 14,0 C 14,0 C 95 % 1011,8 hPa 0,0 mm 1,1 km/h (1 Bft) O-SO 110 0 min 0,000 mm 0,0 UV-I 0 W/m 13,2 C 1,6 km/h (1 Bft)
17.08.2016 00:52 14,0 C 14,1 C 95 % 1011,8 hPa 0,0 mm 0,0 km/h (0 Bft) O-SO 110 0 min 0,000 mm 0,0 UV-I 0 W/m 13,2 C 0,0 km/h (0 Bft)
17.08.2016 00:53 13,9 C 14,0 C 95 % 1011,8 hPa 0,0 mm 0,0 km/h (0 Bft) O-SO 110 0 min 0,000 mm 0,0 UV-I 0 W/m 13,1 C 0,0 km/h (0 Bft)
17.08.2016 00:54 13,9 C 14,0 C 95 % 1011,8 hPa 0,0 mm 0,0 km/h (0 Bft) O-SO 110 0 min 0,000 mm 0,0 UV-I 0 W/m 13,1 C 0,0 km/h (0 Bft)
17.08.2016 00:55 13,9 C 14,0 C 95 % 1011,8 hPa 0,0 mm 0,0 km/h (0 Bft) O-SO 110 0 min 0,000 mm 0,0 UV-I 0 W/m 13,1 C 0,0 km/h (0 Bft)
17.08.2016 00:56 13,9 C 13,9 C 95 % 1011,8 hPa 0,0 mm 0,5 km/h (0 Bft) O-SO 110 0 min 0,000 mm 0,0 UV-I 0 W/m 13,1 C 1,6 km/h (1 Bft)
17.08.2016 00:57 13,9 C 13,9 C 95 % 1011,8 hPa 0,0 mm 0,9 km/h (0 Bft) O-SO 110 0 min 0,000 mm 0,0 UV-I 0 W/m 13,1 C 1,6 km/h (1 Bft)
17.08.2016 00:58 14,0 C 14,0 C 95 % 1011,8 hPa 0,0 mm 1,5 km/h (1 Bft) O-SO 110 0 min 0,000 mm 0,0 UV-I 0 W/m 13,2 C 3,2 km/h (1 Bft)
17.08.2016 00:59 14,0 C 14,1 C 95 % 1011,8 hPa 0,0 mm 0,7 km/h (0 Bft) O-SO 110 0 min 0,000 mm 0,0 UV-I 0 W/m 13,2 C 3,2 km/h (1 Bft)
17.08.2016 01:00 14,0 C 14,0 C 95 % 1011,8 hPa 0,0 mm 1,4 km/h (1 Bft) O-SO 110 0 min 0,000 mm 0,0 UV-I 0 W/m 13,2 C 3,2 km/h (1 Bft)
17.08.2016 01:01 14,0 C 14,0 C 95 % 1011,8 hPa 0,0 mm 0,1 km/h (0 Bft) O-SO 110 0 min 0,000 mm 0,0 UV-I 0 W/m 13,2 C 1,6 km/h (1 Bft)
17.08.2016 01:02 13,9 C 14,0 C 95 % 1011,8 hPa 0,0 mm 0,2 km/h (0 Bft) O-SO 110 0 min 0,000 mm 0,0 UV-I 0 W/m 13,1 C 1,6 km/h (1 Bft)
17.08.2016 01:03 13,9 C 13,9 C 95 % 1011,8 hPa 0,0 mm 0,0 km/h (0 Bft) O-SO 110 0 min 0,000 mm 0,0 UV-I 0 W/m 13,1 C 0,0 km/h (0 Bft)
17.08.2016 01:04 13,9 C 13,9 C 95 % 1011,8 hPa 0,0 mm 0,0 km/h (0 Bft) O-SO 110 0 min 0,000 mm 0,0 UV-I 0 W/m 13,1 C 0,0 km/h (0 Bft)
17.08.2016 01:05 14,0 C 14,0 C 95 % 1011,8 hPa 0,0 mm 0,5 km/h (0 Bft) O-SO 110 0 min 0,000 mm 0,0 UV-I 0 W/m 13,2 C 1,6 km/h (1 Bft)
17.08.2016 01:06 14,1 C 14,1 C 95 % 1011,8 hPa 0,0 mm 0,2 km/h (0 Bft) O-SO 110 0 min 0,000 mm 0,0 UV-I 0 W/m 13,3 C 1,6 km/h (1 Bft)
17.08.2016 01:07 14,1 C 14,1 C 95 % 1011,8 hPa 0,0 mm 0,0 km/h (0 Bft) O-SO 110 0 min 0,000 mm 0,0 UV-I 0 W/m 13,3 C 0,0 km/h (0 Bft)
17.08.2016 01:08 14,1 C 14,1 C 95 % 1011,8 hPa 0,0 mm 0,0 km/h (0 Bft) O-SO 110 0 min 0,000 mm 0,0 UV-I 0 W/m 13,3 C 0,0 km/h (0 Bft)
17.08.2016 01:09 14,1 C 14,1 C 95 % 1011,8 hPa 0,0 mm 0,0 km/h (0 Bft) O-SO 110 0 min 0,000 mm 0,0 UV-I 0 W/m 13,3 C 0,0 km/h (0 Bft)
17.08.2016 01:10 14,1 C 14,1 C 95 % 1011,8 hPa 0,0 mm 0,0 km/h (0 Bft) O-SO 110 0 min 0,000 mm 0,0 UV-I 0 W/m 13,3 C 0,0 km/h (0 Bft)
17.08.2016 01:11 14,1 C 14,1 C 95 % 1011,8 hPa 0,2 mm 0,0 km/h (0 Bft) O-SO 110 0 min 0,000 mm 0,0 UV-I 0 W/m 13,3 C 0,0 km/h (0 Bft)
17.08.2016 01:12 14,1 C 14,1 C 95 % 1011,7 hPa 0,0 mm 0,0 km/h (0 Bft) O-SO 110 0 min 0,000 mm 0,0 UV-I 0 W/m 13,3 C 0,0 km/h (0 Bft)
17.08.2016 01:13 14,1 C 14,1 C 95 % 1011,7 hPa 0,0 mm 0,0 km/h (0 Bft) O-SO 110 0 min 0,000 mm 0,0 UV-I 0 W/m 13,3 C 0,0 km/h (0 Bft)
17.08.2016 01:14 14,0 C 14,1 C 95 % 1011,8 hPa 0,0 mm 0,0 km/h (0 Bft) O-SO 110 0 min 0,000 mm 0,0 UV-I 0 W/m 13,2 C 0,0 km/h (0 Bft)
17.08.2016 01:15 14,0 C 14,0 C 95 % 1011,8 hPa 0,0 mm 0,0 km/h (0 Bft) O-SO 110 0 min 0,000 mm 0,0 UV-I 0 W/m 13,2 C 0,0 km/h (0 Bft)
17.08.2016 01:16 14,0 C 14,0 C 95 % 1011,8 hPa 0,0 mm 0,0 km/h (0 Bft) O-SO 110 0 min 0,000 mm 0,0 UV-I 0 W/m 13,2 C 0,0 km/h (0 Bft)
17.08.2016 01:17 14,0 C 14,0 C 95 % 1011,8 hPa 0,0 mm 0,0 km/h (0 Bft) O-SO 110 0 min 0,000 mm 0,0 UV-I 0 W/m 13,2 C 0,0 km/h (0 Bft)
17.08.2016 01:18 14,0 C 14,0 C 95 % 1011,8 hPa 0,0 mm 0,0 km/h (0 Bft) O-SO 110 0 min 0,000 mm 0,0 UV-I 0 W/m 13,2 C 0,0 km/h (0 Bft)
17.08.2016 01:19 14,0 C 14,0 C 95 % 1011,7 hPa 0,0 mm 0,2 km/h (0 Bft) O-SO 110 0 min 0,000 mm 0,0 UV-I 0 W/m 13,2 C 1,6 km/h (1 Bft)
17.08.2016 01:20 14,1 C 14,1 C 95 % 1011,8 hPa 0,0 mm 0,5 km/h (0 Bft) O-SO 110 0 min 0,000 mm 0,0 UV-I 0 W/m 13,3 C 1,6 km/h (1 Bft)
17.08.2016 01:21 14,1 C 14,1 C 95 % 1011,8 hPa 0,0 mm 0,0 km/h (0 Bft) O-SO 110 0 min 0,000 mm 0,0 UV-I 0 W/m 13,3 C 0,0 km/h (0 Bft)
17.08.2016 01:22 14,0 C 14,1 C 95 % 1011,8 hPa 0,0 mm 0,0 km/h (0 Bft) O-SO 110 0 min 0,000 mm 0,0 UV-I 0 W/m 13,2 C 0,0 km/h (0 Bft)
17.08.2016 01:23 14,0 C 14,0 C 95 % 1011,8 hPa 0,0 mm 0,0 km/h (0 Bft) O-SO 110 0 min 0,000 mm 0,0 UV-I 0 W/m 13,2 C 0,0 km/h (0 Bft)
17.08.2016 01:24 14,1 C 14,1 C 95 % 1011,8 hPa 0,0 mm 0,0 km/h (0 Bft) O-SO 110 0 min 0,000 mm 0,0 UV-I 0 W/m 13,3 C 0,0 km/h (0 Bft)
17.08.2016 01:25 14,1 C 14,1 C 95 % 1011,7 hPa 0,0 mm 0,0 km/h (0 Bft) O-SO 110 0 min 0,000 mm 0,0 UV-I 0 W/m 13,3 C 0,0 km/h (0 Bft)
17.08.2016 01:26 14,1 C 14,1 C 95 % 1011,7 hPa 0,0 mm 0,0 km/h (0 Bft) O-SO 110 0 min 0,000 mm 0,0 UV-I 0 W/m 13,3 C 0,0 km/h (0 Bft)
17.08.2016 01:27 14,1 C 14,1 C 95 % 1011,7 hPa 0,0 mm 0,0 km/h (0 Bft) O-SO 110 0 min 0,000 mm 0,0 UV-I 0 W/m 13,3 C 0,0 km/h (0 Bft)
17.08.2016 01:28 14,0 C 14,1 C 95 % 1011,7 hPa 0,0 mm 0,0 km/h (0 Bft) O-SO 110 0 min 0,000 mm 0,0 UV-I 0 W/m 13,2 C 0,0 km/h (0 Bft)
17.08.2016 01:29 14,1 C 14,1 C 95 % 1011,7 hPa 0,0 mm 0,0 km/h (0 Bft) O-SO 110 0 min 0,000 mm 0,0 UV-I 0 W/m 13,3 C 0,0 km/h (0 Bft)
17.08.2016 01:30 14,1 C 14,1 C 95 % 1011,7 hPa 0,0 mm 0,0 km/h (0 Bft) O-SO 110 0 min 0,000 mm 0,0 UV-I 0 W/m 13,3 C 0,0 km/h (0 Bft)
17.08.2016 01:31 14,1 C 14,1 C 95 % 1011,7 hPa 0,0 mm 0,0 km/h (0 Bft) O-SO 110 0 min 0,000 mm 0,0 UV-I 0 W/m 13,3 C 0,0 km/h (0 Bft)
17.08.2016 01:32 14,1 C 14,1 C 95 % 1011,6 hPa 0,0 mm 0,0 km/h (0 Bft) O-SO 110 0 min 0,000 mm 0,0 UV-I 0 W/m 13,3 C 0,0 km/h (0 Bft)
17.08.2016 01:33 14,1 C 14,1 C 95 % 1011,6 hPa 0,0 mm 0,0 km/h (0 Bft) O-SO 110 0 min 0,000 mm 0,0 UV-I 0 W/m 13,3 C 0,0 km/h (0 Bft)
17.08.2016 01:34 14,1 C 14,1 C 95 % 1011,6 hPa 0,0 mm 0,0 km/h (0 Bft) O-SO 110 0 min 0,000 mm 0,0 UV-I 0 W/m 13,3 C 0,0 km/h (0 Bft)
17.08.2016 01:35 14,1 C 14,1 C 95 % 1011,6 hPa 0,0 mm 0,5 km/h (0 Bft) O-SO 110 0 min 0,000 mm 0,0 UV-I 0 W/m 13,3 C 1,6 km/h (1 Bft)
17.08.2016 01:36 14,2 C 14,2 C 96 % 1011,6 hPa 0,0 mm 0,8 km/h (0 Bft) O-SO 110 0 min 0,000 mm 0,0 UV-I 0 W/m 13,6 C 1,6 km/h (1 Bft)
17.08.2016 01:37 14,1 C 14,2 C 95 % 1011,6 hPa 0,0 mm 0,3 km/h (0 Bft) O-SO 110 0 min 0,000 mm 0,0 UV-I 0 W/m 13,3 C 1,6 km/h (1 Bft)
17.08.2016 01:38 14,2 C 14,2 C 95 % 1011,6 hPa 0,0 mm 0,3 km/h (0 Bft) O-SO 110 0 min 0,000 mm 0,0 UV-I 0 W/m 13,4 C 1,6 km/h (1 Bft)
17.08.2016 01:39 14,1 C 14,2 C 95 % 1011,6 hPa 0,0 mm 0,0 km/h (0 Bft) O-SO 110 0 min 0,000 mm 0,0 UV-I 0 W/m 13,3 C 0,0 km/h (0 Bft)
17.08.2016 01:40 14,2 C 14,2 C 95 % 1011,6 hPa 0,0 mm 0,7 km/h (0 Bft) O-SO 110 0 min 0,000 mm 0,0 UV-I 0 W/m 13,4 C 1,6 km/h (1 Bft)
17.08.2016 01:41 14,1 C 14,2 C 95 % 1011,6 hPa 0,0 mm 0,2 km/h (0 Bft) O-SO 110 0 min 0,000 mm 0,0 UV-I 0 W/m 13,3 C 1,6 km/h (1 Bft)
17.08.2016 01:42 14,2 C 14,2 C 95 % 1011,6 hPa 0,0 mm 0,5 km/h (0 Bft) O-SO 110 0 min 0,000 mm 0,0 UV-I 0 W/m 13,4 C 1,6 km/h (1 Bft)
17.08.2016 01:43 14,2 C 14,2 C 95 % 1011,6 hPa 0,0 mm 0,1 km/h (0 Bft) O-SO 110 0 min 0,000 mm 0,0 UV-I 0 W/m 13,4 C 1,6 km/h (1 Bft)
17.08.2016 01:44 14,2 C 14,2 C 95 % 1011,6 hPa 0,0 mm 0,9 km/h (0 Bft) O-SO 110 0 min 0,000 mm 0,0 UV-I 0 W/m 13,4 C 1,6 km/h (1 Bft)
17.08.2016 01:45 14,2 C 14,2 C 95 % 1011,6 hPa 0,0 mm 0,0 km/h (0 Bft) O-SO 110 0 min 0,000 mm 0,0 UV-I 0 W/m 13,4 C 0,0 km/h (0 Bft)
17.08.2016 01:46 14,2 C 14,2 C 95 % 1011,6 hPa 0,0 mm 0,1 km/h (0 Bft) O-SO 110 0 min 0,000 mm 0,0 UV-I 0 W/m 13,4 C 1,6 km/h (1 Bft)
17.08.2016 01:47 14,1 C 14,2 C 95 % 1011,6 hPa 0,0 mm 0,3 km/h (0 Bft) O-SO 110 0 min 0,000 mm 0,0 UV-I 0 W/m 13,3 C 1,6 km/h (1 Bft)
17.08.2016 01:48 14,1 C 14,1 C 95 % 1011,6 hPa 0,0 mm 0,1 km/h (0 Bft) O-SO 110 0 min 0,000 mm 0,0 UV-I 0 W/m 13,3 C 1,6 km/h (1 Bft)
17.08.2016 01:49 14,1 C 14,1 C 95 % 1011,5 hPa 0,0 mm 0,0 km/h (0 Bft) O-SO 110 0 min 0,000 mm 0,0 UV-I 0 W/m 13,3 C 0,0 km/h (0 Bft)
17.08.2016 01:50 14,1 C 14,1 C 95 % 1011,5 hPa 0,0 mm 0,0 km/h (0 Bft) O-SO 110 0 min 0,000 mm 0,0 UV-I 0 W/m 13,3 C 0,0 km/h (0 Bft)
17.08.2016 01:51 14,1 C 14,1 C 95 % 1011,5 hPa 0,0 mm 2,1 km/h (1 Bft) O-SO 110 0 min 0,000 mm 0,0 UV-I 0 W/m 13,3 C 3,2 km/h (1 Bft)
17.08.2016 01:52 14,2 C 14,2 C 95 % 1011,5 hPa 0,0 mm 2,2 km/h (1 Bft) O-SO 104 0 min 0,000 mm 0,0 UV-I 0 W/m 13,4 C 3,2 km/h (1 Bft)
17.08.2016 01:53 14,1 C 14,2 C 95 % 1011,4 hPa 0,0 mm 0,3 km/h (0 Bft) O-SO 104 0 min 0,000 mm 0,0 UV-I 0 W/m 13,3 C 1,6 km/h (1 Bft)
17.08.2016 01:54 14,1 C 14,1 C 95 % 1011,4 hPa 0,0 mm 0,9 km/h (0 Bft) O-SO 109 0 min 0,000 mm 0,0 UV-I 0 W/m 13,3 C 1,6 km/h (1 Bft)
17.08.2016 01:55 14,1 C 14,1 C 95 % 1011,4 hPa 0,0 mm 0,3 km/h (0 Bft) O-SO 109 0 min 0,000 mm 0,0 UV-I 0 W/m 13,3 C 1,6 km/h (1 Bft)
17.08.2016 01:56 14,1 C 14,1 C 95 % 1011,4 hPa 0,0 mm 0,9 km/h (0 Bft) O-SO 109 0 min 0,000 mm 0,0 UV-I 0 W/m 13,3 C 1,6 km/h (1 Bft)
17.08.2016 01:57 14,1 C 14,1 C 95 % 1011,3 hPa 0,0 mm 0,1 km/h (0 Bft) O-SO 109 0 min 0,000 mm 0,0 UV-I 0 W/m 13,3 C 1,6 km/h (1 Bft)
17.08.2016 01:58 14,1 C 14,1 C 95 % 1011,4 hPa 0,0 mm 0,1 km/h (0 Bft) O-SO 109 0 min 0,000 mm 0,0 UV-I 0 W/m 13,3 C 1,6 km/h (1 Bft)
17.08.2016 01:59 14,1 C 14,1 C 95 % 1011,4 hPa 0,0 mm 0,9 km/h (0 Bft) O-SO 109 0 min 0,000 mm 0,0 UV-I 0 W/m 13,3 C 3,2 km/h (1 Bft)
17.08.2016 02:00 14,1 C 14,1 C 95 % 1011,3 hPa 0,0 mm 1,1 km/h (1 Bft) O-SO 110 0 min 0,000 mm 0,0 UV-I 0 W/m 13,3 C 3,2 km/h (1 Bft)
17.08.2016 02:01 14,1 C 14,1 C 95 % 1011,3 hPa 0,0 mm 1,0 km/h (0 Bft) O-SO 110 0 min 0,000 mm 0,0 UV-I 0 W/m 13,3 C 1,6 km/h (1 Bft)
17.08.2016 02:02 14,1 C 14,1 C 95 % 1011,4 hPa 0,0 mm 1,2 km/h (1 Bft) SO 136 0 min 0,000 mm 0,0 UV-I 0 W/m 13,3 C 3,2 km/h (1 Bft)
17.08.2016 02:03 14,0 C 14,1 C 95 % 1011,4 hPa 0,0 mm 2,6 km/h (1 Bft) S-SW 212 0 min 0,000 mm 0,0 UV-I 0 W/m 13,2 C 3,2 km/h (1 Bft)
17.08.2016 02:04 14,0 C 14,1 C 95 % 1011,4 hPa 0,0 mm 1,3 km/h (1 Bft) SW 221 0 min 0,000 mm 0,0 UV-I 0 W/m 13,2 C 3,2 km/h (1 Bft)
17.08.2016 02:05 13,9 C 14,0 C 95 % 1011,4 hPa 0,0 mm 1,7 km/h (1 Bft) W-SW 255 0 min 0,000 mm 0,0 UV-I 0 W/m 13,1 C 3,2 km/h (1 Bft)
17.08.2016 02:06 13,9 C 13,9 C 95 % 1011,5 hPa 0,0 mm 1,5 km/h (1 Bft) W-SW 255 0 min 0,000 mm 0,0 UV-I 0 W/m 13,1 C 3,2 km/h (1 Bft)
17.08.2016 02:07 13,9 C 13,9 C 95 % 1011,4 hPa 0,0 mm 1,2 km/h (1 Bft) W-SW 255 0 min 0,000 mm 0,0 UV-I 0 W/m 13,1 C 3,2 km/h (1 Bft)
17.08.2016 02:08 13,9 C 13,9 C 95 % 1011,5 hPa 0,0 mm 0,0 km/h (0 Bft) W-SW 255 0 min 0,000 mm 0,0 UV-I 0 W/m 13,1 C 0,0 km/h (0 Bft)
17.08.2016 02:09 14,0 C 14,0 C 95 % 1011,5 hPa 0,0 mm 0,1 km/h (0 Bft) W-SW 255 0 min 0,000 mm 0,0 UV-I 0 W/m 13,2 C 1,6 km/h (1 Bft)
17.08.2016 02:10 14,0 C 14,0 C 95 % 1011,4 hPa 0,0 mm 0,1 km/h (0 Bft) W-SW 255 0 min 0,000 mm 0,0 UV-I 0 W/m 13,2 C 1,6 km/h (1 Bft)
17.08.2016 02:11 14,0 C 14,0 C 95 % 1011,3 hPa 0,0 mm 0,0 km/h (0 Bft) W-SW 255 0 min 0,000 mm 0,0 UV-I 0 W/m 13,2 C 0,0 km/h (0 Bft)
17.08.2016 02:12 14,0 C 14,0 C 95 % 1011,3 hPa 0,0 mm 0,1 km/h (0 Bft) W-SW 255 0 min 0,000 mm 0,0 UV-I 0 W/m 13,2 C 1,6 km/h (1 Bft)
17.08.2016 02:13 14,0 C 14,0 C 95 % 1011,3 hPa 0,0 mm 0,9 km/h (0 Bft) W-SW 255 0 min 0,000 mm 0,0 UV-I 0 W/m 13,2 C 1,6 km/h (1 Bft)
17.08.2016 02:14 14,0 C 14,0 C 95 % 1011,3 hPa 0,0 mm 0,0 km/h (0 Bft) W-SW 255 0 min 0,000 mm 0,0 UV-I 0 W/m 13,2 C 0,0 km/h (0 Bft)
17.08.2016 02:15 13,9 C 14,0 C 95 % 1011,3 hPa 0,0 mm 0,2 km/h (0 Bft) W-SW 255 0 min 0,000 mm 0,0 UV-I 0 W/m 13,1 C 1,6 km/h (1 Bft)
17.08.2016 02:16 13,9 C 13,9 C 95 % 1011,3 hPa 0,0 mm 0,0 km/h (0 Bft) W-SW 255 0 min 0,000 mm 0,0 UV-I 0 W/m 13,1 C 0,0 km/h (0 Bft)
17.08.2016 02:17 13,8 C 13,9 C 95 % 1011,2 hPa 0,0 mm 0,0 km/h (0 Bft) W-SW 255 0 min 0,000 mm 0,0 UV-I 0 W/m 13,0 C 0,0 km/h (0 Bft)
17.08.2016 02:18 13,9 C 13,9 C 95 % 1011,3 hPa 0,0 mm 0,0 km/h (0 Bft) W-SW 255 0 min 0,000 mm 0,0 UV-I 0 W/m 13,1 C 0,0 km/h (0 Bft)
17.08.2016 02:19 13,8 C 13,9 C 95 % 1011,3 hPa 0,0 mm 0,0 km/h (0 Bft) W-SW 255 0 min 0,000 mm 0,0 UV-I 0 W/m 13,0 C 0,0 km/h (0 Bft)
17.08.2016 02:20 13,8 C 13,8 C 95 % 1011,3 hPa 0,0 mm 1,5 km/h (1 Bft) W-SW 254 0 min 0,000 mm 0,0 UV-I 0 W/m 13,0 C 3,2 km/h (1 Bft)
17.08.2016 02:21 13,9 C 13,9 C 95 % 1011,3 hPa 0,0 mm 0,2 km/h (0 Bft) W-SW 254 0 min 0,000 mm 0,0 UV-I 0 W/m 13,1 C 1,6 km/h (1 Bft)
17.08.2016 02:22 13,9 C 13,9 C 95 % 1011,3 hPa 0,0 mm 0,2 km/h (0 Bft) W-SW 254 0 min 0,000 mm 0,0 UV-I 0 W/m 13,1 C 1,6 km/h (1 Bft)
17.08.2016 02:23 13,9 C 13,9 C 95 % 1011,3 hPa 0,0 mm 0,1 km/h (0 Bft) W-SW 254 0 min 0,000 mm 0,0 UV-I 0 W/m 13,1 C 1,6 km/h (1 Bft)
17.08.2016 02:24 13,9 C 13,9 C 95 % 1011,3 hPa 0,0 mm 0,1 km/h (0 Bft) W-SW 254 0 min 0,000 mm 0,0 UV-I 0 W/m 13,1 C 1,6 km/h (1 Bft)
17.08.2016 02:25 13,9 C 13,9 C 95 % 1011,2 hPa 0,0 mm 0,0 km/h (0 Bft) W-SW 254 0 min 0,000 mm 0,0 UV-I 0 W/m 13,1 C 0,0 km/h (0 Bft)
17.08.2016 02:26 13,9 C 13,9 C 95 % 1011,2 hPa 0,0 mm 0,5 km/h (0 Bft) W-SW 254 0 min 0,000 mm 0,0 UV-I 0 W/m 13,1 C 1,6 km/h (1 Bft)
17.08.2016 02:27 13,9 C 13,9 C 95 % 1011,3 hPa 0,0 mm 0,3 km/h (0 Bft) W-SW 254 0 min 0,000 mm 0,0 UV-I 0 W/m 13,1 C 1,6 km/h (1 Bft)
17.08.2016 02:28 14,0 C 14,0 C 96 % 1011,3 hPa 0,0 mm 0,5 km/h (0 Bft) W-SW 254 0 min 0,000 mm 0,0 UV-I 0 W/m 13,4 C 1,6 km/h (1 Bft)
17.08.2016 02:29 14,0 C 14,0 C 96 % 1011,2 hPa 0,0 mm 0,1 km/h (0 Bft) W-SW 254 0 min 0,000 mm 0,0 UV-I 0 W/m 13,4 C 1,6 km/h (1 Bft)
17.08.2016 02:30 14,0 C 14,0 C 96 % 1011,2 hPa 0,0 mm 0,0 km/h (0 Bft) W-SW 254 0 min 0,000 mm 0,0 UV-I 0 W/m 13,4 C 0,0 km/h (0 Bft)
17.08.2016 02:31 14,1 C 14,1 C 96 % 1011,3 hPa 0,0 mm 0,8 km/h (0 Bft) W-SW 254 0 min 0,000 mm 0,0 UV-I 0 W/m 13,5 C 1,6 km/h (1 Bft)
17.08.2016 02:32 14,1 C 14,1 C 96 % 1011,3 hPa 0,0 mm 1,0 km/h (0 Bft) W-SW 254 0 min 0,000 mm 0,0 UV-I 0 W/m 13,5 C 1,6 km/h (1 Bft)
17.08.2016 02:33 14,1 C 14,1 C 96 % 1011,2 hPa 0,0 mm 1,0 km/h (0 Bft) W-SW 254 0 min 0,000 mm 0,0 UV-I 0 W/m 13,5 C 3,2 km/h (1 Bft)
17.08.2016 02:34 14,1 C 14,1 C 96 % 1011,2 hPa 0,0 mm 0,3 km/h (0 Bft) W-SW 254 0 min 0,000 mm 0,0 UV-I 0 W/m 13,5 C 1,6 km/h (1 Bft)
17.08.2016 02:35 14,1 C 14,1 C 96 % 1011,2 hPa 0,0 mm 0,8 km/h (0 Bft) W-SW 248 0 min 0,000 mm 0,0 UV-I 0 W/m 13,5 C 1,6 km/h (1 Bft)
17.08.2016 02:36 14,1 C 14,1 C 96 % 1011,2 hPa 0,0 mm 1,9 km/h (1 Bft) W 281 0 min 0,000 mm 0,0 UV-I 0 W/m 13,5 C 3,2 km/h (1 Bft)
17.08.2016 02:37 14,1 C 14,2 C 96 % 1011,2 hPa 0,0 mm 1,8 km/h (1 Bft) W 281 0 min 0,000 mm 0,0 UV-I 0 W/m 13,5 C 4,8 km/h (1 Bft)
17.08.2016 02:38 14,2 C 14,2 C 96 % 1011,2 hPa 0,0 mm 0,5 km/h (0 Bft) W 281 0 min 0,000 mm 0,0 UV-I 0 W/m 13,6 C 1,6 km/h (1 Bft)
17.08.2016 02:39 14,2 C 14,2 C 96 % 1011,2 hPa 0,0 mm 0,1 km/h (0 Bft) W 281 0 min 0,000 mm 0,0 UV-I 0 W/m 13,6 C 1,6 km/h (1 Bft)
17.08.2016 02:40 14,2 C 14,2 C 96 % 1011,2 hPa 0,0 mm 0,6 km/h (0 Bft) W 281 0 min 0,000 mm 0,0 UV-I 0 W/m 13,6 C 1,6 km/h (1 Bft)
17.08.2016 02:41 14,2 C 14,2 C 95 % 1011,3 hPa 0,0 mm 0,0 km/h (0 Bft) W 281 0 min 0,000 mm 0,0 UV-I 0 W/m 13,4 C 0,0 km/h (0 Bft)
17.08.2016 02:42 14,2 C 14,2 C 95 % 1011,3 hPa 0,0 mm 0,1 km/h (0 Bft) W 281 0 min 0,000 mm 0,0 UV-I 0 W/m 13,4 C 1,6 km/h (1 Bft)
17.08.2016 02:43 14,2 C 14,2 C 95 % 1011,2 hPa 0,0 mm 0,0 km/h (0 Bft) W 281 0 min 0,000 mm 0,0 UV-I 0 W/m 13,4 C 0,0 km/h (0 Bft)
17.08.2016 02:44 14,2 C 14,2 C 95 % 1011,2 hPa 0,0 mm 0,1 km/h (0 Bft) W 281 0 min 0,000 mm 0,0 UV-I 0 W/m 13,4 C 1,6 km/h (1 Bft)
17.08.2016 02:45 14,2 C 14,2 C 95 % 1011,3 hPa 0,0 mm 0,1 km/h (0 Bft) W 281 0 min 0,000 mm 0,0 UV-I 0 W/m 13,4 C 1,6 km/h (1 Bft)
17.08.2016 02:46 14,2 C 14,2 C 95 % 1011,3 hPa 0,0 mm 0,9 km/h (0 Bft) W 281 0 min 0,000 mm 0,0 UV-I 0 W/m 13,4 C 1,6 km/h (1 Bft)
17.08.2016 02:47 14,2 C 14,2 C 95 % 1011,3 hPa 0,0 mm 1,8 km/h (1 Bft) W 281 0 min 0,000 mm 0,0 UV-I 0 W/m 13,4 C 3,2 km/h (1 Bft)
17.08.2016 02:48 14,1 C 14,2 C 95 % 1011,3 hPa 0,0 mm 0,3 km/h (0 Bft) W 281 0 min 0,000 mm 0,0 UV-I 0 W/m 13,3 C 1,6 km/h (1 Bft)
17.08.2016 02:49 14,1 C 14,1 C 95 % 1011,3 hPa 0,0 mm 0,0 km/h (0 Bft) W 281 0 min 0,000 mm 0,0 UV-I 0 W/m 13,3 C 0,0 km/h (0 Bft)
17.08.2016 02:50 14,1 C 14,1 C 95 % 1011,3 hPa 0,0 mm 0,0 km/h (0 Bft) W 281 0 min 0,000 mm 0,0 UV-I 0 W/m 13,3 C 0,0 km/h (0 Bft)
17.08.2016 02:51 14,1 C 14,1 C 95 % 1011,4 hPa 0,0 mm 0,2 km/h (0 Bft) W 281 0 min 0,000 mm 0,0 UV-I 0 W/m 13,3 C 1,6 km/h (1 Bft)
17.08.2016 02:52 14,2 C 14,2 C 95 % 1011,3 hPa 0,0 mm 0,0 km/h (0 Bft) W 281 0 min 0,000 mm 0,0 UV-I 0 W/m 13,4 C 0,0 km/h (0 Bft)
17.08.2016 02:53 14,1 C 14,2 C 95 % 1011,3 hPa 0,0 mm 0,0 km/h (0 Bft) W 281 0 min 0,000 mm 0,0 UV-I 0 W/m 13,3 C 0,0 km/h (0 Bft)
17.08.2016 02:54 14,2 C 14,2 C 95 % 1011,3 hPa 0,0 mm 0,2 km/h (0 Bft) W 281 0 min 0,000 mm 0,0 UV-I 0 W/m 13,4 C 1,6 km/h (1 Bft)
17.08.2016 02:55 14,1 C 14,2 C 95 % 1011,2 hPa 0,0 mm 1,9 km/h (1 Bft) W 281 0 min 0,000 mm 0,0 UV-I 0 W/m 13,3 C 3,2 km/h (1 Bft)
17.08.2016 02:56 14,1 C 14,2 C 95 % 1011,2 hPa 0,0 mm 0,1 km/h (0 Bft) W 281 0 min 0,000 mm 0,0 UV-I 0 W/m 13,3 C 1,6 km/h (1 Bft)
17.08.2016 02:57 14,1 C 14,2 C 95 % 1011,2 hPa 0,0 mm 0,1 km/h (0 Bft) W 281 0 min 0,000 mm 0,0 UV-I 0 W/m 13,3 C 1,6 km/h (1 Bft)
17.08.2016 02:58 14,1 C 14,1 C 95 % 1011,2 hPa 0,0 mm 0,0 km/h (0 Bft) W 281 0 min 0,000 mm 0,0 UV-I 0 W/m 13,3 C 0,0 km/h (0 Bft)
17.08.2016 02:59 14,1 C 14,1 C 96 % 1011,2 hPa 0,0 mm 0,3 km/h (0 Bft) W 281 0 min 0,000 mm 0,0 UV-I 0 W/m 13,5 C 1,6 km/h (1 Bft)
17.08.2016 03:00 14,1 C 14,1 C 95 % 1011,2 hPa 0,0 mm 0,7 km/h (0 Bft) W 281 0 min 0,000 mm 0,0 UV-I 0 W/m 13,3 C 1,6 km/h (1 Bft)
17.08.2016 03:01 14,1 C 14,1 C 95 % 1011,2 hPa 0,0 mm 0,2 km/h (0 Bft) W 281 0 min 0,000 mm 0,0 UV-I 0 W/m 13,3 C 1,6 km/h (1 Bft)
17.08.2016 03:02 14,0 C 14,1 C 95 % 1011,2 hPa 0,0 mm 1,2 km/h (1 Bft) W 281 0 min 0,000 mm 0,0 UV-I 0 W/m 13,2 C 1,6 km/h (1 Bft)
17.08.2016 03:03 14,0 C 14,1 C 95 % 1011,2 hPa 0,0 mm 0,4 km/h (0 Bft) W 281 0 min 0,000 mm 0,0 UV-I 0 W/m 13,2 C 1,6 km/h (1 Bft)
17.08.2016 03:04 13,9 C 14,0 C 95 % 1011,2 hPa 0,0 mm 0,7 km/h (0 Bft) W 281 0 min 0,000 mm 0,0 UV-I 0 W/m 13,1 C 1,6 km/h (1 Bft)
17.08.2016 03:05 13,9 C 14,0 C 95 % 1011,2 hPa 0,0 mm 0,9 km/h (0 Bft) W 281 0 min 0,000 mm 0,0 UV-I 0 W/m 13,1 C 1,6 km/h (1 Bft)
17.08.2016 03:06 13,9 C 13,9 C 95 % 1011,2 hPa 0,0 mm 0,0 km/h (0 Bft) W 281 0 min 0,000 mm 0,0 UV-I 0 W/m 13,1 C 0,0 km/h (0 Bft)
17.08.2016 03:07 13,9 C 13,9 C 95 % 1011,2 hPa 0,0 mm 0,1 km/h (0 Bft) W 281 0 min 0,000 mm 0,0 UV-I 0 W/m 13,1 C 1,6 km/h (1 Bft)
17.08.2016 03:08 13,8 C 13,9 C 95 % 1011,2 hPa 0,0 mm 0,0 km/h (0 Bft) W 281 0 min 0,000 mm 0,0 UV-I 0 W/m 13,0 C 0,0 km/h (0 Bft)
17.08.2016 03:09 13,8 C 13,9 C 95 % 1011,2 hPa 0,0 mm 0,1 km/h (0 Bft) W 281 0 min 0,000 mm 0,0 UV-I 0 W/m 13,0 C 1,6 km/h (1 Bft)
17.08.2016 03:10 13,8 C 13,9 C 95 % 1011,2 hPa 0,0 mm 0,0 km/h (0 Bft) W 281 0 min 0,000 mm 0,0 UV-I 0 W/m 13,0 C 0,0 km/h (0 Bft)
17.08.2016 03:11 13,8 C 13,8 C 95 % 1011,2 hPa 0,0 mm 0,0 km/h (0 Bft) W 281 0 min 0,000 mm 0,0 UV-I 0 W/m 13,0 C 0,0 km/h (0 Bft)
17.08.2016 03:12 13,9 C 13,9 C 95 % 1011,3 hPa 0,0 mm 0,0 km/h (0 Bft) W 281 0 min 0,000 mm 0,0 UV-I 0 W/m 13,1 C 0,0 km/h (0 Bft)
17.08.2016 03:13 13,9 C 13,9 C 95 % 1011,1 hPa 0,0 mm 0,0 km/h (0 Bft) W 281 0 min 0,000 mm 0,0 UV-I 0 W/m 13,1 C 0,0 km/h (0 Bft)
17.08.2016 03:14 13,9 C 13,9 C 95 % 1011,1 hPa 0,0 mm 0,0 km/h (0 Bft) W 281 0 min 0,000 mm 0,0 UV-I 0 W/m 13,1 C 0,0 km/h (0 Bft)
17.08.2016 03:15 14,0 C 14,0 C 96 % 1011,1 hPa 0,0 mm 0,0 km/h (0 Bft) SW 218 0 min 0,000 mm 0,0 UV-I 0 W/m 13,4 C 0,0 km/h (0 Bft)
17.08.2016 03:16 14,1 C 14,1 C 96 % 1011,0 hPa 0,0 mm 0,0 km/h (0 Bft) SW 218 0 min 0,000 mm 0,0 UV-I 0 W/m 13,5 C 0,0 km/h (0 Bft)
17.08.2016 03:17 14,0 C 14,1 C 96 % 1011,1 hPa 0,0 mm 0,0 km/h (0 Bft) SW 218 0 min 0,000 mm 0,0 UV-I 0 W/m 13,4 C 0,0 km/h (0 Bft)
17.08.2016 03:18 14,1 C 14,1 C 96 % 1011,1 hPa 0,0 mm 0,0 km/h (0 Bft) SW 218 0 min 0,000 mm 0,0 UV-I 0 W/m 13,5 C 0,0 km/h (0 Bft)
17.08.2016 03:19 14,1 C 14,1 C 96 % 1011,0 hPa 0,0 mm 0,0 km/h (0 Bft) SW 218 0 min 0,000 mm 0,0 UV-I 0 W/m 13,5 C 0,0 km/h (0 Bft)
17.08.2016 03:20 14,1 C 14,1 C 96 % 1011,1 hPa 0,0 mm 0,0 km/h (0 Bft) SW 218 0 min 0,000 mm 0,0 UV-I 0 W/m 13,5 C 0,0 km/h (0 Bft)
17.08.2016 03:21 14,1 C 14,1 C 96 % 1011,1 hPa 0,0 mm 0,0 km/h (0 Bft) SW 218 0 min 0,000 mm 0,0 UV-I 0 W/m 13,5 C 0,0 km/h (0 Bft)
17.08.2016 03:22 14,1 C 14,2 C 96 % 1011,1 hPa 0,0 mm 0,0 km/h (0 Bft) SW 218 0 min 0,000 mm 0,0 UV-I 0 W/m 13,5 C 0,0 km/h (0 Bft)
17.08.2016 03:23 14,1 C 14,1 C 96 % 1011,1 hPa 0,0 mm 0,0 km/h (0 Bft) SW 218 0 min 0,000 mm 0,0 UV-I 0 W/m 13,5 C 0,0 km/h (0 Bft)
17.08.2016 03:24 14,2 C 14,2 C 96 % 1011,1 hPa 0,0 mm 0,0 km/h (0 Bft) SW 218 0 min 0,000 mm 0,0 UV-I 0 W/m 13,6 C 0,0 km/h (0 Bft)
17.08.2016 03:25 14,2 C 14,2 C 95 % 1011,1 hPa 0,0 mm 0,0 km/h (0 Bft) SW 218 0 min 0,000 mm 0,0 UV-I 0 W/m 13,4 C 0,0 km/h (0 Bft)
17.08.2016 03:26 14,2 C 14,2 C 95 % 1011,1 hPa 0,0 mm 0,0 km/h (0 Bft) SW 218 0 min 0,000 mm 0,0 UV-I 0 W/m 13,4 C 0,0 km/h (0 Bft)
17.08.2016 03:27 14,2 C 14,2 C 95 % 1011,1 hPa 0,0 mm 0,0 km/h (0 Bft) SW 218 0 min 0,000 mm 0,0 UV-I 0 W/m 13,4 C 0,0 km/h (0 Bft)
17.08.2016 03:28 14,2 C 14,2 C 95 % 1011,1 hPa 0,0 mm 0,0 km/h (0 Bft) SW 218 0 min 0,000 mm 0,0 UV-I 0 W/m 13,4 C 0,0 km/h (0 Bft)
17.08.2016 03:29 14,2 C 14,2 C 95 % 1011,1 hPa 0,0 mm 0,0 km/h (0 Bft) SW 218 0 min 0,000 mm 0,0 UV-I 0 W/m 13,4 C 0,0 km/h (0 Bft)
17.08.2016 03:30 14,2 C 14,2 C 95 % 1011,1 hPa 0,0 mm 0,0 km/h (0 Bft) SW 218 0 min 0,000 mm 0,0 UV-I 0 W/m 13,4 C 0,0 km/h (0 Bft)
17.08.2016 03:31 14,2 C 14,2 C 95 % 1011,2 hPa 0,0 mm 0,0 km/h (0 Bft) SW 218 0 min 0,000 mm 0,0 UV-I 0 W/m 13,4 C 0,0 km/h (0 Bft)
17.08.2016 03:32 14,2 C 14,2 C 95 % 1011,2 hPa 0,0 mm 0,0 km/h (0 Bft) SW 218 0 min 0,000 mm 0,0 UV-I 0 W/m 13,4 C 0,0 km/h (0 Bft)
17.08.2016 03:33 14,1 C 14,2 C 95 % 1011,2 hPa 0,0 mm 0,0 km/h (0 Bft) SW 218 0 min 0,000 mm 0,0 UV-I 0 W/m 13,3 C 0,0 km/h (0 Bft)
17.08.2016 03:34 14,1 C 14,1 C 95 % 1011,1 hPa 0,0 mm 0,0 km/h (0 Bft) SW 218 0 min 0,000 mm 0,0 UV-I 0 W/m 13,3 C 0,0 km/h (0 Bft)
17.08.2016 03:35 14,1 C 14,1 C 95 % 1011,1 hPa 0,0 mm 0,0 km/h (0 Bft) SW 218 0 min 0,000 mm 0,0 UV-I 0 W/m 13,3 C 0,0 km/h (0 Bft)
17.08.2016 03:36 14,1 C 14,1 C 95 % 1011,1 hPa 0,0 mm 0,0 km/h (0 Bft) SW 218 0 min 0,000 mm 0,0 UV-I 0 W/m 13,3 C 0,0 km/h (0 Bft)
17.08.2016 03:37 14,1 C 14,1 C 95 % 1011,1 hPa 0,0 mm 0,0 km/h (0 Bft) SW 217 0 min 0,000 mm 0,0 UV-I 0 W/m 13,3 C 0,0 km/h (0 Bft)
17.08.2016 03:38 14,1 C 14,1 C 95 % 1011,1 hPa 0,0 mm 0,0 km/h (0 Bft) S-SW 213 0 min 0,000 mm 0,0 UV-I 0 W/m 13,3 C 0,0 km/h (0 Bft)
17.08.2016 03:39 14,1 C 14,1 C 95 % 1011,1 hPa 0,0 mm 0,0 km/h (0 Bft) S-SW 213 0 min 0,000 mm 0,0 UV-I 0 W/m 13,3 C 0,0 km/h (0 Bft)
17.08.2016 03:40 14,1 C 14,1 C 95 % 1011,1 hPa 0,0 mm 0,3 km/h (0 Bft) S-SO 166 0 min 0,000 mm 0,0 UV-I 0 W/m 13,3 C 4,8 km/h (1 Bft)
17.08.2016 03:41 14,2 C 14,2 C 95 % 1011,0 hPa 0,0 mm 3,7 km/h (1 Bft) S-SO 165 0 min 0,000 mm 0,0 UV-I 0 W/m 13,4 C 6,4 km/h (2 Bft)
17.08.2016 03:42 14,2 C 14,2 C 95 % 1011,0 hPa 0,0 mm 3,3 km/h (1 Bft) S-SO 166 0 min 0,000 mm 0,0 UV-I 0 W/m 13,4 C 6,4 km/h (2 Bft)
17.08.2016 03:43 14,1 C 14,2 C 95 % 1011,1 hPa 0,0 mm 1,9 km/h (1 Bft) S-SO 166 0 min 0,000 mm 0,0 UV-I 0 W/m 13,3 C 4,8 km/h (1 Bft)
17.08.2016 03:44 14,1 C 14,1 C 95 % 1011,1 hPa 0,0 mm 1,0 km/h (0 Bft) S-SO 166 0 min 0,000 mm 0,0 UV-I 0 W/m 13,3 C 1,6 km/h (1 Bft)
17.08.2016 03:45 14,1 C 14,1 C 95 % 1011,1 hPa 0,0 mm 0,5 km/h (0 Bft) S-SO 166 0 min 0,000 mm 0,0 UV-I 0 W/m 13,3 C 1,6 km/h (1 Bft)
17.08.2016 03:46 14,0 C 14,1 C 95 % 1011,1 hPa 0,0 mm 1,1 km/h (1 Bft) S-SO 166 0 min 0,000 mm 0,0 UV-I 0 W/m 13,2 C 1,6 km/h (1 Bft)
17.08.2016 03:47 13,9 C 14,0 C 95 % 1011,1 hPa 0,0 mm 1,9 km/h (1 Bft) S-SO 166 0 min 0,000 mm 0,0 UV-I 0 W/m 13,1 C 4,8 km/h (1 Bft)
17.08.2016 03:48 13,9 C 13,9 C 95 % 1011,1 hPa 0,0 mm 1,9 km/h (1 Bft) S-SO 166 0 min 0,000 mm 0,0 UV-I 0 W/m 13,1 C 4,8 km/h (1 Bft)
17.08.2016 03:49 13,9 C 13,9 C 96 % 1011,1 hPa 0,0 mm 4,4 km/h (1 Bft) S-SO 166 0 min 0,000 mm 0,0 UV-I 0 W/m 13,3 C 6,4 km/h (2 Bft)
17.08.2016 03:50 13,9 C 14,0 C 96 % 1011,0 hPa 0,0 mm 3,0 km/h (1 Bft) S-SO 166 0 min 0,000 mm 0,0 UV-I 0 W/m 13,3 C 4,8 km/h (1 Bft)
17.08.2016 03:51 13,9 C 14,0 C 96 % 1011,0 hPa 0,0 mm 3,3 km/h (1 Bft) S 174 0 min 0,000 mm 0,0 UV-I 0 W/m 13,3 C 4,8 km/h (1 Bft)
17.08.2016 03:52 13,8 C 13,9 C 95 % 1011,0 hPa 0,0 mm 1,5 km/h (1 Bft) S 179 0 min 0,000 mm 0,0 UV-I 0 W/m 13,0 C 3,2 km/h (1 Bft)
17.08.2016 03:53 13,8 C 13,8 C 95 % 1011,0 hPa 0,0 mm 4,3 km/h (1 Bft) S 188 0 min 0,000 mm 0,0 UV-I 0 W/m 13,0 C 8,0 km/h (2 Bft)
17.08.2016 03:54 13,8 C 13,8 C 95 % 1011,1 hPa 0,0 mm 4,4 km/h (1 Bft) S 191 0 min 0,000 mm 0,0 UV-I 0 W/m 13,0 C 6,4 km/h (2 Bft)
17.08.2016 03:55 13,8 C 13,8 C 95 % 1011,1 hPa 0,0 mm 2,2 km/h (1 Bft) S 190 0 min 0,000 mm 0,0 UV-I 0 W/m 13,0 C 3,2 km/h (1 Bft)
17.08.2016 03:56 13,8 C 13,8 C 95 % 1011,0 hPa 0,0 mm 1,6 km/h (1 Bft) S 190 0 min 0,000 mm 0,0 UV-I 0 W/m 13,0 C 1,6 km/h (1 Bft)
17.08.2016 03:57 13,8 C 13,8 C 95 % 1011,1 hPa 0,0 mm 1,5 km/h (1 Bft) S 190 0 min 0,000 mm 0,0 UV-I 0 W/m 13,0 C 3,2 km/h (1 Bft)
17.08.2016 03:58 13,8 C 13,8 C 95 % 1011,1 hPa 0,0 mm 0,5 km/h (0 Bft) S 190 0 min 0,000 mm 0,0 UV-I 0 W/m 13,0 C 1,6 km/h (1 Bft)
17.08.2016 03:59 13,8 C 13,8 C 95 % 1011,0 hPa 0,0 mm 1,1 km/h (1 Bft) S 190 0 min 0,000 mm 0,0 UV-I 0 W/m 13,0 C 1,6 km/h (1 Bft)
17.08.2016 04:00 13,8 C 13,8 C 95 % 1011,0 hPa 0,0 mm 1,7 km/h (1 Bft) S 190 0 min 0,000 mm 0,0 UV-I 0 W/m 13,0 C 3,2 km/h (1 Bft)
17.08.2016 04:02 13,8 C 13,8 C 95 % 1011,0 hPa 0,0 mm 2,1 km/h (1 Bft) S 190 0 min 0,000 mm 0,0 UV-I 0 W/m 13,0 C 3,2 km/h (1 Bft)
17.08.2016 04:03 13,8 C 13,8 C 95 % 1011,0 hPa 0,0 mm 1,2 km/h (1 Bft) S 190 0 min 0,000 mm 0,0 UV-I 0 W/m 13,0 C 1,6 km/h (1 Bft)
17.08.2016 04:04 13,8 C 13,8 C 96 % 1011,1 hPa 0,0 mm 1,0 km/h (0 Bft) S 190 0 min 0,000 mm 0,0 UV-I 0 W/m 13,2 C 3,2 km/h (1 Bft)
17.08.2016 04:05 13,8 C 13,8 C 96 % 1011,0 hPa 0,0 mm 0,1 km/h (0 Bft) S 190 0 min 0,000 mm 0,0 UV-I 0 W/m 13,2 C 1,6 km/h (1 Bft)
17.08.2016 04:06 13,8 C 13,8 C 95 % 1011,0 hPa 0,0 mm 0,0 km/h (0 Bft) S 190 0 min 0,000 mm 0,0 UV-I 0 W/m 13,0 C 0,0 km/h (0 Bft)
17.08.2016 04:07 13,7 C 13,8 C 95 % 1011,0 hPa 0,0 mm 0,3 km/h (0 Bft) S 190 0 min 0,000 mm 0,0 UV-I 0 W/m 12,9 C 1,6 km/h (1 Bft)
17.08.2016 04:08 13,7 C 13,7 C 95 % 1011,1 hPa 0,0 mm 0,4 km/h (0 Bft) S 190 0 min 0,000 mm 0,0 UV-I 0 W/m 12,9 C 1,6 km/h (1 Bft)
17.08.2016 04:09 13,7 C 13,7 C 95 % 1011,1 hPa 0,0 mm 0,0 km/h (0 Bft) S 190 0 min 0,000 mm 0,0 UV-I 0 W/m 12,9 C 0,0 km/h (0 Bft)
17.08.2016 04:10 13,7 C 13,7 C 96 % 1011,1 hPa 0,0 mm 0,0 km/h (0 Bft) S 190 0 min 0,000 mm 0,0 UV-I 0 W/m 13,1 C 0,0 km/h (0 Bft)
17.08.2016 04:11 13,6 C 13,7 C 95 % 1011,0 hPa 0,0 mm 0,0 km/h (0 Bft) S 190 0 min 0,000 mm 0,0 UV-I 0 W/m 12,8 C 0,0 km/h (0 Bft)
17.08.2016 04:12 13,6 C 13,6 C 95 % 1011,0 hPa 0,0 mm 0,0 km/h (0 Bft) S 190 0 min 0,000 mm 0,0 UV-I 0 W/m 12,8 C 0,0 km/h (0 Bft)
17.08.2016 04:13 13,4 C 13,6 C 95 % 1011,1 hPa 0,0 mm 0,0 km/h (0 Bft) S 190 0 min 0,000 mm 0,0 UV-I 0 W/m 12,6 C 0,0 km/h (0 Bft)
17.08.2016 04:14 13,4 C 13,4 C 95 % 1011,1 hPa 0,0 mm 0,0 km/h (0 Bft) S 190 0 min 0,000 mm 0,0 UV-I 0 W/m 12,6 C 0,0 km/h (0 Bft)
17.08.2016 04:15 13,4 C 13,4 C 95 % 1011,1 hPa 0,0 mm 0,1 km/h (0 Bft) S 190 0 min 0,000 mm 0,0 UV-I 0 W/m 12,6 C 1,6 km/h (1 Bft)
17.08.2016 04:16 13,3 C 13,4 C 95 % 1011,1 hPa 0,0 mm 0,0 km/h (0 Bft) S 190 0 min 0,000 mm 0,0 UV-I 0 W/m 12,5 C 0,0 km/h (0 Bft)
17.08.2016 04:17 13,4 C 13,4 C 96 % 1011,0 hPa 0,0 mm 0,3 km/h (0 Bft) S 190 0 min 0,000 mm 0,0 UV-I 0 W/m 12,8 C 1,6 km/h (1 Bft)
17.08.2016 04:18 13,4 C 13,4 C 96 % 1011,0 hPa 0,0 mm 0,7 km/h (0 Bft) S 190 0 min 0,000 mm 0,0 UV-I 0 W/m 12,8 C 1,6 km/h (1 Bft)
17.08.2016 04:19 13,4 C 13,4 C 96 % 1011,0 hPa 0,0 mm 1,5 km/h (1 Bft) S 190 0 min 0,000 mm 0,0 UV-I 0 W/m 12,8 C 3,2 km/h (1 Bft)
17.08.2016 04:20 13,4 C 13,5 C 96 % 1011,1 hPa 0,0 mm 1,3 km/h (1 Bft) S 190 0 min 0,000 mm 0,0 UV-I 0 W/m 12,8 C 1,6 km/h (1 Bft)
17.08.2016 04:21 13,5 C 13,5 C 96 % 1011,1 hPa 0,0 mm 1,2 km/h (1 Bft) S 190 0 min 0,000 mm 0,0 UV-I 0 W/m 12,9 C 1,6 km/h (1 Bft)
17.08.2016 04:22 13,5 C 13,5 C 96 % 1011,1 hPa 0,0 mm 0,6 km/h (0 Bft) S 190 0 min 0,000 mm 0,0 UV-I 0 W/m 12,9 C 1,6 km/h (1 Bft)
17.08.2016 04:23 13,4 C 13,5 C 96 % 1011,0 hPa 0,0 mm 1,1 km/h (1 Bft) S 190 0 min 0,000 mm 0,0 UV-I 0 W/m 12,8 C 3,2 km/h (1 Bft)
17.08.2016 04:24 13,5 C 13,5 C 96 % 1011,0 hPa 0,0 mm 0,7 km/h (0 Bft) S 190 0 min 0,000 mm 0,0 UV-I 0 W/m 12,9 C 1,6 km/h (1 Bft)
17.08.2016 04:25 13,4 C 13,5 C 96 % 1011,0 hPa 0,0 mm 0,9 km/h (0 Bft) S 190 0 min 0,000 mm 0,0 UV-I 0 W/m 12,8 C 1,6 km/h (1 Bft)
17.08.2016 04:26 13,3 C 13,4 C 95 % 1011,0 hPa 0,0 mm 1,5 km/h (1 Bft) S 190 0 min 0,000 mm 0,0 UV-I 0 W/m 12,5 C 3,2 km/h (1 Bft)
17.08.2016 04:27 13,1 C 13,3 C 95 % 1010,9 hPa 0,0 mm 1,7 km/h (1 Bft) S 190 0 min 0,000 mm 0,0 UV-I 0 W/m 12,3 C 3,2 km/h (1 Bft)
17.08.2016 04:28 13,1 C 13,1 C 95 % 1010,9 hPa 0,0 mm 2,2 km/h (1 Bft) S 190 0 min 0,000 mm 0,0 UV-I 0 W/m 12,3 C 3,2 km/h (1 Bft)
17.08.2016 04:29 13,1 C 13,1 C 95 % 1010,9 hPa 0,0 mm 2,6 km/h (1 Bft) S 190 0 min 0,000 mm 0,0 UV-I 0 W/m 12,3 C 3,2 km/h (1 Bft)
17.08.2016 04:30 13,2 C 13,2 C 96 % 1010,9 hPa 0,0 mm 2,8 km/h (1 Bft) S 190 0 min 0,000 mm 0,0 UV-I 0 W/m 12,6 C 3,2 km/h (1 Bft)
17.08.2016 04:31 13,2 C 13,3 C 96 % 1010,9 hPa 0,0 mm 2,7 km/h (1 Bft) S 190 0 min 0,000 mm 0,0 UV-I 0 W/m 12,6 C 3,2 km/h (1 Bft)
17.08.2016 04:32 13,3 C 13,3 C 96 % 1010,9 hPa 0,0 mm 3,1 km/h (1 Bft) S 179 0 min 0,000 mm 0,0 UV-I 0 W/m 12,7 C 4,8 km/h (1 Bft)
17.08.2016 04:33 13,4 C 13,4 C 96 % 1010,9 hPa 0,0 mm 3,9 km/h (1 Bft) S 169 0 min 0,000 mm 0,0 UV-I 0 W/m 12,8 C 8,0 km/h (2 Bft)
17.08.2016 04:34 13,5 C 13,5 C 96 % 1010,9 hPa 0,0 mm 3,1 km/h (1 Bft) S-SO 166 0 min 0,000 mm 0,0 UV-I 0 W/m 12,9 C 6,4 km/h (2 Bft)
17.08.2016 04:35 13,5 C 13,5 C 96 % 1010,9 hPa 0,0 mm 2,5 km/h (1 Bft) S-SO 166 0 min 0,000 mm 0,0 UV-I 0 W/m 12,9 C 4,8 km/h (1 Bft)
17.08.2016 04:36 13,5 C 13,5 C 96 % 1010,9 hPa 0,0 mm 2,4 km/h (1 Bft) S-SO 162 0 min 0,000 mm 0,0 UV-I 0 W/m 12,9 C 6,4 km/h (2 Bft)
17.08.2016 04:37 13,5 C 13,5 C 96 % 1010,9 hPa 0,0 mm 2,9 km/h (1 Bft) S 178 0 min 0,000 mm 0,0 UV-I 0 W/m 12,9 C 6,4 km/h (2 Bft)
17.08.2016 04:38 13,6 C 13,6 C 96 % 1011,0 hPa 0,0 mm 1,7 km/h (1 Bft) S 181 0 min 0,000 mm 0,0 UV-I 0 W/m 13,0 C 3,2 km/h (1 Bft)
17.08.2016 04:39 13,5 C 13,6 C 96 % 1011,0 hPa 0,0 mm 0,9 km/h (0 Bft) S 181 0 min 0,000 mm 0,0 UV-I 0 W/m 12,9 C 1,6 km/h (1 Bft)
17.08.2016 04:40 13,5 C 13,5 C 96 % 1011,0 hPa 0,0 mm 0,4 km/h (0 Bft) S 181 0 min 0,000 mm 0,0 UV-I 0 W/m 12,9 C 1,6 km/h (1 Bft)
17.08.2016 04:41 13,5 C 13,5 C 96 % 1011,0 hPa 0,0 mm 0,0 km/h (0 Bft) S 181 0 min 0,000 mm 0,0 UV-I 0 W/m 12,9 C 0,0 km/h (0 Bft)
17.08.2016 04:42 13,4 C 13,5 C 95 % 1011,0 hPa 0,0 mm 0,0 km/h (0 Bft) S 181 0 min 0,000 mm 0,0 UV-I 0 W/m 12,6 C 0,0 km/h (0 Bft)
17.08.2016 04:43 13,4 C 13,4 C 95 % 1011,0 hPa 0,0 mm 0,7 km/h (0 Bft) S 181 0 min 0,000 mm 0,0 UV-I 0 W/m 12,6 C 1,6 km/h (1 Bft)
17.08.2016 04:44 13,4 C 13,4 C 95 % 1011,0 hPa 0,0 mm 1,8 km/h (1 Bft) S 180 0 min 0,000 mm 0,0 UV-I 0 W/m 12,6 C 3,2 km/h (1 Bft)
17.08.2016 04:45 13,4 C 13,4 C 96 % 1011,1 hPa 0,0 mm 2,6 km/h (1 Bft) S 180 0 min 0,000 mm 0,0 UV-I 0 W/m 12,8 C 4,8 km/h (1 Bft)
17.08.2016 04:46 13,4 C 13,4 C 96 % 1011,0 hPa 0,0 mm 3,8 km/h (1 Bft) S 180 0 min 0,000 mm 0,0 UV-I 0 W/m 12,8 C 4,8 km/h (1 Bft)
17.08.2016 04:47 13,4 C 13,4 C 96 % 1011,0 hPa 0,0 mm 5,9 km/h (2 Bft) S 169 0 min 0,000 mm 0,0 UV-I 0 W/m 12,8 C 8,0 km/h (2 Bft)
17.08.2016 04:48 13,5 C 13,5 C 96 % 1011,0 hPa 0,0 mm 5,1 km/h (1 Bft) S-SO 168 0 min 0,000 mm 0,0 UV-I 0 W/m 12,9 C 9,7 km/h (2 Bft)
17.08.2016 04:49 13,6 C 13,6 C 96 % 1011,0 hPa 0,0 mm 5,6 km/h (1 Bft) S-SO 158 0 min 0,000 mm 0,0 UV-I 0 W/m 13,0 C 8,0 km/h (2 Bft)
17.08.2016 04:50 13,6 C 13,6 C 96 % 1011,0 hPa 0,0 mm 5,1 km/h (1 Bft) S-SO 162 0 min 0,000 mm 0,0 UV-I 0 W/m 13,0 C 6,4 km/h (2 Bft)
17.08.2016 04:51 13,6 C 13,7 C 96 % 1011,1 hPa 0,0 mm 5,4 km/h (1 Bft) S 175 0 min 0,000 mm 0,0 UV-I 0 W/m 13,0 C 8,0 km/h (2 Bft)
17.08.2016 04:52 13,7 C 13,7 C 96 % 1011,1 hPa 0,0 mm 2,8 km/h (1 Bft) S 175 0 min 0,000 mm 0,0 UV-I 0 W/m 13,1 C 4,8 km/h (1 Bft)
17.08.2016 04:53 13,7 C 13,7 C 96 % 1011,0 hPa 0,0 mm 2,1 km/h (1 Bft) S 172 0 min 0,000 mm 0,0 UV-I 0 W/m 13,1 C 3,2 km/h (1 Bft)
17.08.2016 04:54 13,7 C 13,7 C 96 % 1011,1 hPa 0,0 mm 0,9 km/h (0 Bft) S 172 0 min 0,000 mm 0,0 UV-I 0 W/m 13,1 C 3,2 km/h (1 Bft)
17.08.2016 04:55 13,7 C 13,7 C 96 % 1011,0 hPa 0,0 mm 0,0 km/h (0 Bft) S 172 0 min 0,000 mm 0,0 UV-I 0 W/m 13,1 C 0,0 km/h (0 Bft)
17.08.2016 04:56 13,6 C 13,7 C 95 % 1011,1 hPa 0,0 mm 0,8 km/h (0 Bft) S 173 0 min 0,000 mm 0,0 UV-I 0 W/m 12,8 C 1,6 km/h (1 Bft)
17.08.2016 04:57 13,5 C 13,6 C 95 % 1011,1 hPa 0,0 mm 1,3 km/h (1 Bft) S 173 0 min 0,000 mm 0,0 UV-I 0 W/m 12,7 C 3,2 km/h (1 Bft)
17.08.2016 04:58 13,4 C 13,5 C 94 % 1011,0 hPa 0,0 mm 0,0 km/h (0 Bft) S 173 0 min 0,000 mm 0,0 UV-I 0 W/m 12,5 C 0,0 km/h (0 Bft)
17.08.2016 04:59 13,3 C 13,4 C 94 % 1011,0 hPa 0,0 mm 0,4 km/h (0 Bft) S 173 0 min 0,000 mm 0,0 UV-I 0 W/m 12,4 C 1,6 km/h (1 Bft)
17.08.2016 05:00 13,3 C 13,3 C 94 % 1011,1 hPa 0,0 mm 0,1 km/h (0 Bft) S 173 0 min 0,000 mm 0,0 UV-I 0 W/m 12,4 C 1,6 km/h (1 Bft)
17.08.2016 05:01 13,2 C 13,3 C 95 % 1011,1 hPa 0,0 mm 0,0 km/h (0 Bft) S 173 0 min 0,000 mm 0,0 UV-I 0 W/m 12,4 C 0,0 km/h (0 Bft)
17.08.2016 05:02 13,2 C 13,2 C 95 % 1011,0 hPa 0,0 mm 0,0 km/h (0 Bft) S 173 0 min 0,000 mm 0,0 UV-I 0 W/m 12,4 C 0,0 km/h (0 Bft)
17.08.2016 05:03 13,2 C 13,2 C 95 % 1011,0 hPa 0,0 mm 0,0 km/h (0 Bft) S 173 0 min 0,000 mm 0,0 UV-I 0 W/m 12,4 C 0,0 km/h (0 Bft)
17.08.2016 05:04 13,2 C 13,2 C 95 % 1011,0 hPa 0,0 mm 0,0 km/h (0 Bft) S 173 0 min 0,000 mm 0,0 UV-I 0 W/m 12,4 C 0,0 km/h (0 Bft)
17.08.2016 05:05 13,2 C 13,2 C 95 % 1011,0 hPa 0,0 mm 0,0 km/h (0 Bft) S 173 0 min 0,000 mm 0,0 UV-I 0 W/m 12,4 C 0,0 km/h (0 Bft)
17.08.2016 05:06 13,2 C 13,2 C 95 % 1011,1 hPa 0,0 mm 0,0 km/h (0 Bft) S 173 0 min 0,000 mm 0,0 UV-I 0 W/m 12,4 C 0,0 km/h (0 Bft)
17.08.2016 05:07 13,2 C 13,2 C 95 % 1011,0 hPa 0,0 mm 0,0 km/h (0 Bft) S 173 0 min 0,000 mm 0,0 UV-I 0 W/m 12,4 C 0,0 km/h (0 Bft)
17.08.2016 05:08 13,2 C 13,2 C 95 % 1011,0 hPa 0,0 mm 0,0 km/h (0 Bft) S 173 0 min 0,000 mm 0,0 UV-I 0 W/m 12,4 C 0,0 km/h (0 Bft)
17.08.2016 05:09 13,2 C 13,2 C 95 % 1011,0 hPa 0,0 mm 0,0 km/h (0 Bft) S 173 0 min 0,000 mm 0,0 UV-I 0 W/m 12,4 C 0,0 km/h (0 Bft)
17.08.2016 05:10 13,3 C 13,3 C 95 % 1011,0 hPa 0,0 mm 0,1 km/h (0 Bft) S 173 0 min 0,000 mm 0,0 UV-I 0 W/m 12,5 C 1,6 km/h (1 Bft)
17.08.2016 05:11 13,2 C 13,3 C 96 % 1011,0 hPa 0,0 mm 0,0 km/h (0 Bft) S 173 0 min 0,000 mm 0,0 UV-I 0 W/m 12,6 C 0,0 km/h (0 Bft)
17.08.2016 05:12 13,2 C 13,2 C 95 % 1011,0 hPa 0,0 mm 0,0 km/h (0 Bft) S 173 0 min 0,000 mm 0,0 UV-I 0 W/m 12,4 C 0,0 km/h (0 Bft)
17.08.2016 05:13 13,2 C 13,2 C 96 % 1011,0 hPa 0,0 mm 0,0 km/h (0 Bft) S 173 0 min 0,000 mm 0,0 UV-I 0 W/m 12,6 C 0,0 km/h (0 Bft)
17.08.2016 05:14 13,2 C 13,2 C 95 % 1011,0 hPa 0,0 mm 0,0 km/h (0 Bft) S 173 0 min 0,000 mm 0,0 UV-I 0 W/m 12,4 C 0,0 km/h (0 Bft)
17.08.2016 05:15 13,3 C 13,3 C 95 % 1011,0 hPa 0,0 mm 0,0 km/h (0 Bft) S 173 0 min 0,000 mm 0,0 UV-I 0 W/m 12,5 C 0,0 km/h (0 Bft)
17.08.2016 05:16 13,2 C 13,3 C 96 % 1011,0 hPa 0,0 mm 0,7 km/h (0 Bft) S 173 0 min 0,000 mm 0,0 UV-I 0 W/m 12,6 C 1,6 km/h (1 Bft)
17.08.2016 05:17 13,3 C 13,3 C 96 % 1011,0 hPa 0,0 mm 1,5 km/h (1 Bft) S 173 0 min 0,000 mm 0,0 UV-I 0 W/m 12,7 C 1,6 km/h (1 Bft)
17.08.2016 05:18 13,3 C 13,3 C 96 % 1011,0 hPa 0,0 mm 0,9 km/h (0 Bft) S 173 0 min 0,000 mm 0,0 UV-I 0 W/m 12,7 C 1,6 km/h (1 Bft)
17.08.2016 05:19 13,3 C 13,3 C 96 % 1011,0 hPa 0,0 mm 1,9 km/h (1 Bft) S 173 0 min 0,000 mm 0,0 UV-I 0 W/m 12,7 C 3,2 km/h (1 Bft)
17.08.2016 05:20 13,4 C 13,4 C 96 % 1011,0 hPa 0,0 mm 2,7 km/h (1 Bft) S 171 0 min 0,000 mm 0,0 UV-I 0 W/m 12,8 C 4,8 km/h (1 Bft)
17.08.2016 05:21 13,4 C 13,4 C 96 % 1011,0 hPa 0,0 mm 2,5 km/h (1 Bft) S 171 0 min 0,000 mm 0,0 UV-I 0 W/m 12,8 C 3,2 km/h (1 Bft)
17.08.2016 05:22 13,5 C 13,5 C 96 % 1010,9 hPa 0,0 mm 2,3 km/h (1 Bft) S 171 0 min 0,000 mm 0,0 UV-I 0 W/m 12,9 C 3,2 km/h (1 Bft)
17.08.2016 05:23 13,6 C 13,6 C 96 % 1010,9 hPa 0,0 mm 3,6 km/h (1 Bft) S 171 0 min 0,000 mm 0,0 UV-I 0 W/m 13,0 C 6,4 km/h (2 Bft)
17.08.2016 05:24 13,7 C 13,7 C 96 % 1010,9 hPa 0,0 mm 2,8 km/h (1 Bft) S 171 0 min 0,000 mm 0,0 UV-I 0 W/m 13,1 C 3,2 km/h (1 Bft)
17.08.2016 05:25 13,7 C 13,7 C 96 % 1010,9 hPa 0,0 mm 3,0 km/h (1 Bft) S 171 0 min 0,000 mm 0,0 UV-I 0 W/m 13,1 C 6,4 km/h (2 Bft)
17.08.2016 05:26 13,7 C 13,7 C 96 % 1010,9 hPa 0,0 mm 2,0 km/h (1 Bft) S 171 0 min 0,000 mm 0,0 UV-I 0 W/m 13,1 C 3,2 km/h (1 Bft)
17.08.2016 05:27 13,8 C 13,8 C 96 % 1010,9 hPa 0,0 mm 3,5 km/h (1 Bft) S 175 0 min 0,000 mm 0,0 UV-I 0 W/m 13,2 C 6,4 km/h (2 Bft)
17.08.2016 05:28 13,8 C 13,8 C 96 % 1010,9 hPa 0,0 mm 3,0 km/h (1 Bft) S-SO 159 0 min 0,000 mm 0,0 UV-I 0 W/m 13,2 C 6,4 km/h (2 Bft)
17.08.2016 05:29 13,9 C 13,9 C 96 % 1010,9 hPa 0,0 mm 3,7 km/h (1 Bft) S-SW 192 0 min 0,000 mm 0,0 UV-I 0 W/m 13,3 C 6,4 km/h (2 Bft)
17.08.2016 05:30 13,9 C 13,9 C 96 % 1011,0 hPa 0,0 mm 2,1 km/h (1 Bft) S 183 0 min 0,000 mm 0,0 UV-I 0 W/m 13,3 C 3,2 km/h (1 Bft)
17.08.2016 05:31 14,0 C 14,0 C 96 % 1011,0 hPa 0,0 mm 3,0 km/h (1 Bft) S 182 0 min 0,000 mm 0,0 UV-I 0 W/m 13,4 C 4,8 km/h (1 Bft)
17.08.2016 05:32 14,0 C 14,0 C 96 % 1010,9 hPa 0,0 mm 5,4 km/h (1 Bft) S-SO 156 0 min 0,000 mm 0,0 UV-I 0 W/m 13,4 C 8,0 km/h (2 Bft)
17.08.2016 05:33 14,1 C 14,1 C 95 % 1010,9 hPa 0,0 mm 3,7 km/h (1 Bft) S-SO 154 0 min 0,000 mm 0,0 UV-I 0 W/m 13,3 C 6,4 km/h (2 Bft)
17.08.2016 05:34 14,1 C 14,1 C 95 % 1011,0 hPa 0,0 mm 3,2 km/h (1 Bft) S-SO 155 0 min 0,000 mm 0,0 UV-I 0 W/m 13,3 C 4,8 km/h (1 Bft)
17.08.2016 05:35 14,1 C 14,1 C 95 % 1010,9 hPa 0,0 mm 2,3 km/h (1 Bft) S 173 0 min 0,000 mm 0,0 UV-I 0 W/m 13,3 C 6,4 km/h (2 Bft)
17.08.2016 05:36 14,1 C 14,1 C 95 % 1010,9 hPa 0,0 mm 1,4 km/h (1 Bft) S 177 0 min 0,000 mm 0,0 UV-I 0 W/m 13,3 C 3,2 km/h (1 Bft)
17.08.2016 05:37 14,1 C 14,1 C 95 % 1010,9 hPa 0,0 mm 1,3 km/h (1 Bft) S 177 0 min 0,000 mm 0,0 UV-I 0 W/m 13,3 C 3,2 km/h (1 Bft)
17.08.2016 05:38 14,2 C 14,2 C 95 % 1011,0 hPa 0,0 mm 1,5 km/h (1 Bft) S 178 0 min 0,000 mm 0,0 UV-I 0 W/m 13,4 C 3,2 km/h (1 Bft)
17.08.2016 05:39 14,2 C 14,2 C 94 % 1011,0 hPa 0,0 mm 0,9 km/h (0 Bft) S 178 0 min 0,000 mm 0,0 UV-I 0 W/m 13,2 C 1,6 km/h (1 Bft)
17.08.2016 05:40 14,1 C 14,2 C 94 % 1011,0 hPa 0,0 mm 1,3 km/h (1 Bft) S 178 0 min 0,000 mm 0,0 UV-I 0 W/m 13,1 C 1,6 km/h (1 Bft)
17.08.2016 05:41 14,1 C 14,1 C 94 % 1011,0 hPa 0,0 mm 0,6 km/h (0 Bft) S 178 0 min 0,000 mm 0,0 UV-I 0 W/m 13,1 C 1,6 km/h (1 Bft)
17.08.2016 05:42 14,0 C 14,1 C 94 % 1011,0 hPa 0,0 mm 0,0 km/h (0 Bft) S 178 0 min 0,000 mm 0,0 UV-I 0 W/m 13,0 C 0,0 km/h (0 Bft)
17.08.2016 05:43 14,0 C 14,0 C 94 % 1011,0 hPa 0,0 mm 0,5 km/h (0 Bft) S 178 0 min 0,000 mm 0,0 UV-I 0 W/m 13,0 C 1,6 km/h (1 Bft)
17.08.2016 05:44 13,9 C 14,0 C 94 % 1011,0 hPa 0,0 mm 0,5 km/h (0 Bft) S 178 0 min 0,000 mm 0,0 UV-I 0 W/m 12,9 C 1,6 km/h (1 Bft)
17.08.2016 05:45 13,9 C 13,9 C 95 % 1011,0 hPa 0,0 mm 0,7 km/h (0 Bft) S 178 0 min 0,000 mm 0,0 UV-I 0 W/m 13,1 C 1,6 km/h (1 Bft)
17.08.2016 05:46 13,9 C 13,9 C 95 % 1011,1 hPa 0,0 mm 0,4 km/h (0 Bft) S 178 0 min 0,000 mm 0,0 UV-I 0 W/m 13,1 C 1,6 km/h (1 Bft)
17.08.2016 05:47 13,9 C 13,9 C 95 % 1011,1 hPa 0,0 mm 0,9 km/h (0 Bft) S 178 0 min 0,000 mm 0,0 UV-I 0 W/m 13,1 C 1,6 km/h (1 Bft)
17.08.2016 05:48 13,9 C 13,9 C 95 % 1011,0 hPa 0,0 mm 0,6 km/h (0 Bft) S 178 0 min 0,000 mm 0,0 UV-I 0 W/m 13,1 C 1,6 km/h (1 Bft)
17.08.2016 05:49 13,9 C 13,9 C 95 % 1011,0 hPa 0,0 mm 0,1 km/h (0 Bft) S 178 0 min 0,000 mm 0,0 UV-I 0 W/m 13,1 C 1,6 km/h (1 Bft)
17.08.2016 05:50 13,9 C 13,9 C 95 % 1011,0 hPa 0,0 mm 0,3 km/h (0 Bft) S 178 0 min 0,000 mm 0,0 UV-I 0 W/m 13,1 C 1,6 km/h (1 Bft)
17.08.2016 05:51 13,9 C 13,9 C 95 % 1011,0 hPa 0,0 mm 0,1 km/h (0 Bft) S 178 0 min 0,000 mm 0,0 UV-I 0 W/m 13,1 C 1,6 km/h (1 Bft)
17.08.2016 05:52 14,0 C 14,0 C 95 % 1011,0 hPa 0,0 mm 0,0 km/h (0 Bft) S 178 0 min 0,000 mm 0,0 UV-I 0 W/m 13,2 C 0,0 km/h (0 Bft)
17.08.2016 05:53 13,9 C 14,0 C 95 % 1011,0 hPa 0,0 mm 0,0 km/h (0 Bft) S 178 0 min 0,000 mm 0,0 UV-I 0 W/m 13,1 C 0,0 km/h (0 Bft)
17.08.2016 05:54 13,9 C 13,9 C 95 % 1011,0 hPa 0,0 mm 0,2 km/h (0 Bft) S 178 0 min 0,000 mm 0,0 UV-I 0 W/m 13,1 C 1,6 km/h (1 Bft)
17.08.2016 05:55 13,9 C 13,9 C 95 % 1011,0 hPa 0,0 mm 1,6 km/h (1 Bft) S 178 0 min 0,000 mm 0,0 UV-I 0 W/m 13,1 C 3,2 km/h (1 Bft)
17.08.2016 05:56 13,9 C 14,0 C 95 % 1011,0 hPa 0,0 mm 2,5 km/h (1 Bft) S 178 0 min 0,000 mm 0,0 UV-I 0 W/m 13,1 C 3,2 km/h (1 Bft)
17.08.2016 05:57 14,0 C 14,0 C 95 % 1011,0 hPa 0,0 mm 2,5 km/h (1 Bft) S 178 0 min 0,000 mm 0,0 UV-I 0 W/m 13,2 C 3,2 km/h (1 Bft)
17.08.2016 05:58 14,0 C 14,0 C 95 % 1011,0 hPa 0,0 mm 3,1 km/h (1 Bft) S 178 0 min 0,000 mm 0,0 UV-I 0 W/m 13,2 C 3,2 km/h (1 Bft)
17.08.2016 05:59 14,0 C 14,0 C 95 % 1011,0 hPa 0,0 mm 3,0 km/h (1 Bft) S 178 0 min 0,000 mm 0,0 UV-I 0 W/m 13,2 C 3,2 km/h (1 Bft)
17.08.2016 06:00 14,1 C 14,1 C 95 % 1011,0 hPa 0,0 mm 1,5 km/h (1 Bft) S 178 0 min 0,000 mm 0,0 UV-I 0 W/m 13,3 C 3,2 km/h (1 Bft)
17.08.2016 06:01 14,1 C 14,1 C 95 % 1011,0 hPa 0,0 mm 1,0 km/h (0 Bft) S 178 0 min 0,000 mm 0,0 UV-I 0 W/m 13,3 C 3,2 km/h (1 Bft)
17.08.2016 06:02 14,1 C 14,1 C 95 % 1011,0 hPa 0,0 mm 0,0 km/h (0 Bft) S 178 0 min 0,000 mm 0,0 UV-I 0 W/m 13,3 C 0,0 km/h (0 Bft)
17.08.2016 06:03 14,1 C 14,1 C 95 % 1011,0 hPa 0,0 mm 0,7 km/h (0 Bft) S 178 0 min 0,000 mm 0,0 UV-I 0 W/m 13,3 C 1,6 km/h (1 Bft)
17.08.2016 06:04 14,1 C 14,1 C 95 % 1011,0 hPa 0,0 mm 1,5 km/h (1 Bft) S-SO 163 0 min 0,000 mm 0,0 UV-I 0 W/m 13,3 C 3,2 km/h (1 Bft)
17.08.2016 06:05 14,1 C 14,1 C 95 % 1011,1 hPa 0,0 mm 4,6 km/h (1 Bft) S-SO 163 0 min 0,000 mm 0,0 UV-I 0 W/m 13,3 C 6,4 km/h (2 Bft)
17.08.2016 06:06 14,1 C 14,1 C 95 % 1011,0 hPa 0,0 mm 2,9 km/h (1 Bft) S-SO 163 0 min 0,000 mm 0,0 UV-I 0 W/m 13,3 C 3,2 km/h (1 Bft)
17.08.2016 06:07 14,1 C 14,1 C 95 % 1011,0 hPa 0,0 mm 2,4 km/h (1 Bft) S-SO 163 0 min 0,000 mm 0,0 UV-I 0 W/m 13,3 C 3,2 km/h (1 Bft)
17.08.2016 06:08 14,1 C 14,1 C 95 % 1011,0 hPa 0,0 mm 2,8 km/h (1 Bft) S-SO 163 0 min 0,000 mm 0,0 UV-I 0 W/m 13,3 C 3,2 km/h (1 Bft)
17.08.2016 06:09 14,1 C 14,1 C 95 % 1011,0 hPa 0,0 mm 1,8 km/h (1 Bft) S-SO 163 0 min 0,000 mm 0,0 UV-I 0 W/m 13,3 C 3,2 km/h (1 Bft)
17.08.2016 06:10 14,1 C 14,1 C 95 % 1011,0 hPa 0,0 mm 0,7 km/h (0 Bft) S-SO 163 0 min 0,000 mm 0,0 UV-I 0 W/m 13,3 C 1,6 km/h (1 Bft)
17.08.2016 06:11 14,1 C 14,1 C 96 % 1011,0 hPa 0,0 mm 0,4 km/h (0 Bft) S-SO 163 0 min 0,000 mm 0,0 UV-I 0 W/m 13,5 C 1,6 km/h (1 Bft)
17.08.2016 06:12 14,1 C 14,1 C 96 % 1011,1 hPa 0,0 mm 0,0 km/h (0 Bft) S-SO 163 0 min 0,000 mm 0,0 UV-I 0 W/m 13,5 C 0,0 km/h (0 Bft)
17.08.2016 06:13 14,1 C 14,2 C 96 % 1011,1 hPa 0,0 mm 0,0 km/h (0 Bft) S-SO 163 0 min 0,000 mm 0,0 UV-I 0 W/m 13,5 C 0,0 km/h (0 Bft)
17.08.2016 06:14 14,1 C 14,1 C 96 % 1011,0 hPa 0,0 mm 0,0 km/h (0 Bft) S-SO 163 0 min 0,000 mm 0,0 UV-I 0 W/m 13,5 C 0,0 km/h (0 Bft)
17.08.2016 06:15 14,1 C 14,1 C 96 % 1011,0 hPa 0,0 mm 0,0 km/h (0 Bft) S-SO 163 0 min 0,000 mm 0,0 UV-I 0 W/m 13,5 C 0,0 km/h (0 Bft)
17.08.2016 06:16 14,1 C 14,1 C 96 % 1011,0 hPa 0,0 mm 0,0 km/h (0 Bft) S-SO 163 0 min 0,000 mm 0,0 UV-I 0 W/m 13,5 C 0,0 km/h (0 Bft)
17.08.2016 06:17 14,1 C 14,1 C 96 % 1011,0 hPa 0,0 mm 0,0 km/h (0 Bft) S-SO 163 0 min 0,000 mm 0,0 UV-I 0 W/m 13,5 C 0,0 km/h (0 Bft)
17.08.2016 06:18 14,1 C 14,1 C 96 % 1011,0 hPa 0,0 mm 0,0 km/h (0 Bft) S-SO 163 0 min 0,000 mm 0,0 UV-I 0 W/m 13,5 C 0,0 km/h (0 Bft)
17.08.2016 06:19 14,1 C 14,1 C 96 % 1011,0 hPa 0,0 mm 0,0 km/h (0 Bft) S-SO 163 0 min 0,000 mm 0,0 UV-I 0 W/m 13,5 C 0,0 km/h (0 Bft)
17.08.2016 06:20 14,1 C 14,1 C 96 % 1011,1 hPa 0,0 mm 0,0 km/h (0 Bft) S-SO 163 0 min 0,000 mm 0,0 UV-I 0 W/m 13,5 C 0,0 km/h (0 Bft)
17.08.2016 06:21 14,1 C 14,1 C 96 % 1011,1 hPa 0,0 mm 0,0 km/h (0 Bft) S-SO 163 0 min 0,000 mm 0,0 UV-I 0 W/m 13,5 C 0,0 km/h (0 Bft)
17.08.2016 06:22 14,1 C 14,1 C 96 % 1011,1 hPa 0,0 mm 0,0 km/h (0 Bft) S-SO 163 0 min 0,000 mm 0,0 UV-I 0 W/m 13,5 C 0,0 km/h (0 Bft)
17.08.2016 06:23 14,1 C 14,1 C 96 % 1011,0 hPa 0,0 mm 0,0 km/h (0 Bft) S-SO 163 0 min 0,000 mm 0,0 UV-I 0 W/m 13,5 C 0,0 km/h (0 Bft)
17.08.2016 06:24 14,1 C 14,1 C 96 % 1011,0 hPa 0,0 mm 0,8 km/h (0 Bft) S-SO 163 0 min 0,000 mm 0,0 UV-I 0 W/m 13,5 C 3,2 km/h (1 Bft)
17.08.2016 06:25 14,1 C 14,1 C 96 % 1011,1 hPa 0,0 mm 1,8 km/h (1 Bft) S-SO 163 0 min 0,000 mm 0,0 UV-I 0 W/m 13,5 C 3,2 km/h (1 Bft)
17.08.2016 06:26 14,1 C 14,1 C 96 % 1011,0 hPa 0,0 mm 1,4 km/h (1 Bft) S-SO 163 0 min 0,000 mm 0,0 UV-I 0 W/m 13,5 C 1,6 km/h (1 Bft)
17.08.2016 06:27 14,1 C 14,1 C 96 % 1011,1 hPa 0,0 mm 0,3 km/h (0 Bft) S-SO 163 0 min 0,000 mm 0,0 UV-I 0 W/m 13,5 C 1,6 km/h (1 Bft)
17.08.2016 06:28 14,1 C 14,1 C 96 % 1011,1 hPa 0,0 mm 0,3 km/h (0 Bft) S-SO 163 0 min 0,000 mm 0,0 UV-I 0 W/m 13,5 C 1,6 km/h (1 Bft)
17.08.2016 06:29 14,1 C 14,1 C 96 % 1011,1 hPa 0,0 mm 0,5 km/h (0 Bft) S-SO 163 0 min 0,000 mm 0,0 UV-I 0 W/m 13,5 C 1,6 km/h (1 Bft)
17.08.2016 06:30 14,1 C 14,1 C 96 % 1011,0 hPa 0,0 mm 0,6 km/h (0 Bft) S-SO 163 0 min 0,000 mm 0,0 UV-I 0 W/m 13,5 C 1,6 km/h (1 Bft)
17.08.2016 06:31 14,1 C 14,1 C 96 % 1011,0 hPa 0,0 mm 0,1 km/h (0 Bft) S-SO 163 0 min 0,000 mm 0,0 UV-I 0 W/m 13,5 C 1,6 km/h (1 Bft)
17.08.2016 06:32 14,1 C 14,1 C 96 % 1011,0 hPa 0,0 mm 1,3 km/h (1 Bft) S-SO 163 0 min 0,000 mm 0,0 UV-I 5 W/m 13,5 C 3,2 km/h (1 Bft)
17.08.2016 06:33 14,1 C 14,1 C 96 % 1011,0 hPa 0,0 mm 0,7 km/h (0 Bft) S-SO 163 0 min 0,000 mm 0,0 UV-I 5 W/m 13,5 C 1,6 km/h (1 Bft)
17.08.2016 06:34 14,1 C 14,1 C 96 % 1011,0 hPa 0,0 mm 1,4 km/h (1 Bft) S-SO 163 0 min 0,000 mm 0,0 UV-I 5 W/m 13,5 C 3,2 km/h (1 Bft)
17.08.2016 06:35 14,1 C 14,1 C 96 % 1011,0 hPa 0,0 mm 0,5 km/h (0 Bft) S-SO 163 0 min 0,000 mm 0,0 UV-I 5 W/m 13,5 C 1,6 km/h (1 Bft)
17.08.2016 06:36 14,1 C 14,1 C 96 % 1011,0 hPa 0,0 mm 0,0 km/h (0 Bft) S-SO 163 0 min 0,000 mm 0,0 UV-I 7 W/m 13,5 C 0,0 km/h (0 Bft)
17.08.2016 06:37 14,1 C 14,1 C 96 % 1011,0 hPa 0,0 mm 1,5 km/h (1 Bft) SO 144 0 min 0,000 mm 0,0 UV-I 7 W/m 13,5 C 3,2 km/h (1 Bft)
17.08.2016 06:38 14,1 C 14,1 C 96 % 1011,0 hPa 0,0 mm 1,4 km/h (1 Bft) SO 144 0 min 0,000 mm 0,0 UV-I 7 W/m 13,5 C 3,2 km/h (1 Bft)
17.08.2016 06:39 14,1 C 14,1 C 96 % 1011,0 hPa 0,0 mm 0,3 km/h (0 Bft) SO 144 0 min 0,000 mm 0,0 UV-I 9 W/m 13,5 C 1,6 km/h (1 Bft)
17.08.2016 06:40 14,1 C 14,1 C 96 % 1010,9 hPa 0,0 mm 0,1 km/h (0 Bft) SO 144 0 min 0,000 mm 0,0 UV-I 9 W/m 13,5 C 1,6 km/h (1 Bft)
17.08.2016 06:41 14,1 C 14,1 C 96 % 1010,9 hPa 0,0 mm 0,1 km/h (0 Bft) SO 144 0 min 0,000 mm 0,0 UV-I 11 W/m 13,5 C 1,6 km/h (1 Bft)
17.08.2016 06:42 14,1 C 14,1 C 96 % 1011,0 hPa 0,0 mm 0,0 km/h (0 Bft) SO 144 0 min 0,000 mm 0,0 UV-I 11 W/m 13,5 C 0,0 km/h (0 Bft)
17.08.2016 06:43 14,1 C 14,1 C 96 % 1010,9 hPa 0,0 mm 0,0 km/h (0 Bft) SO 144 0 min 0,000 mm 0,0 UV-I 11 W/m 13,5 C 0,0 km/h (0 Bft)
17.08.2016 06:44 14,1 C 14,1 C 96 % 1010,9 hPa 0,0 mm 0,3 km/h (0 Bft) SO 144 0 min 0,000 mm 0,0 UV-I 11 W/m 13,5 C 1,6 km/h (1 Bft)
17.08.2016 06:45 14,0 C 14,1 C 96 % 1011,0 hPa 0,0 mm 0,4 km/h (0 Bft) SO 144 0 min 0,000 mm 0,0 UV-I 11 W/m 13,4 C 1,6 km/h (1 Bft)
17.08.2016 06:46 14,1 C 14,1 C 96 % 1010,9 hPa 0,0 mm 0,1 km/h (0 Bft) SO 144 0 min 0,000 mm 0,0 UV-I 12 W/m 13,5 C 1,6 km/h (1 Bft)
17.08.2016 06:47 14,0 C 14,1 C 96 % 1010,9 hPa 0,0 mm 0,1 km/h (0 Bft) SO 144 0 min 0,000 mm 0,0 UV-I 12 W/m 13,4 C 1,6 km/h (1 Bft)
17.08.2016 06:48 14,0 C 14,0 C 96 % 1010,9 hPa 0,0 mm 0,0 km/h (0 Bft) SO 144 0 min 0,000 mm 0,0 UV-I 12 W/m 13,4 C 0,0 km/h (0 Bft)
17.08.2016 06:49 14,0 C 14,0 C 96 % 1010,9 hPa 0,0 mm 0,0 km/h (0 Bft) SO 144 0 min 0,000 mm 0,0 UV-I 12 W/m 13,4 C 0,0 km/h (0 Bft)
17.08.2016 06:50 14,0 C 14,0 C 96 % 1010,9 hPa 0,0 mm 0,0 km/h (0 Bft) SO 144 0 min 0,000 mm 0,0 UV-I 12 W/m 13,4 C 0,0 km/h (0 Bft)
17.08.2016 06:51 14,0 C 14,0 C 96 % 1010,9 hPa 0,0 mm 0,0 km/h (0 Bft) SO 144 0 min 0,000 mm 0,0 UV-I 12 W/m 13,4 C 0,0 km/h (0 Bft)
17.08.2016 06:52 14,0 C 14,0 C 96 % 1010,9 hPa 0,0 mm 0,0 km/h (0 Bft) SO 144 0 min 0,000 mm 0,0 UV-I 14 W/m 13,4 C 0,0 km/h (0 Bft)
17.08.2016 06:53 13,9 C 14,0 C 96 % 1010,9 hPa 0,0 mm 0,0 km/h (0 Bft) SO 144 0 min 0,000 mm 0,0 UV-I 14 W/m 13,3 C 0,0 km/h (0 Bft)
17.08.2016 06:54 14,0 C 14,0 C 96 % 1010,9 hPa 0,0 mm 0,0 km/h (0 Bft) SO 144 0 min 0,000 mm 0,0 UV-I 16 W/m 13,4 C 0,0 km/h (0 Bft)
17.08.2016 06:55 14,0 C 14,0 C 96 % 1010,9 hPa 0,0 mm 0,0 km/h (0 Bft) SO 144 0 min 0,000 mm 0,0 UV-I 16 W/m 13,4 C 0,0 km/h (0 Bft)
17.08.2016 06:56 14,0 C 14,0 C 96 % 1010,9 hPa 0,0 mm 0,0 km/h (0 Bft) SO 144 0 min 0,000 mm 0,0 UV-I 18 W/m 13,4 C 0,0 km/h (0 Bft)
17.08.2016 06:57 14,1 C 14,1 C 96 % 1010,9 hPa 0,0 mm 0,1 km/h (0 Bft) SO 144 0 min 0,000 mm 0,0 UV-I 18 W/m 13,5 C 1,6 km/h (1 Bft)
17.08.2016 06:58 14,0 C 14,1 C 96 % 1010,9 hPa 0,0 mm 0,0 km/h (0 Bft) SO 144 0 min 0,000 mm 0,0 UV-I 19 W/m 13,4 C 0,0 km/h (0 Bft)
17.08.2016 06:59 14,1 C 14,1 C 96 % 1010,9 hPa 0,0 mm 0,1 km/h (0 Bft) SO 144 0 min 0,000 mm 0,0 UV-I 21 W/m 13,5 C 1,6 km/h (1 Bft)
17.08.2016 07:00 14,1 C 14,1 C 96 % 1010,9 hPa 0,0 mm 0,0 km/h (0 Bft) SO 144 0 min 0,000 mm 0,0 UV-I 21 W/m 13,5 C 0,0 km/h (0 Bft)
17.08.2016 07:01 14,1 C 14,1 C 96 % 1010,9 hPa 0,0 mm 0,0 km/h (0 Bft) SO 144 0 min 0,000 mm 0,0 UV-I 23 W/m 13,5 C 0,0 km/h (0 Bft)
17.08.2016 07:02 14,1 C 14,1 C 96 % 1010,9 hPa 0,0 mm 0,0 km/h (0 Bft) SO 144 0 min 0,000 mm 0,0 UV-I 23 W/m 13,5 C 0,0 km/h (0 Bft)
17.08.2016 07:03 14,1 C 14,1 C 96 % 1010,8 hPa 0,0 mm 0,0 km/h (0 Bft) SO 144 0 min 0,000 mm 0,0 UV-I 25 W/m 13,5 C 0,0 km/h (0 Bft)
17.08.2016 07:04 14,1 C 14,1 C 96 % 1010,8 hPa 0,0 mm 0,0 km/h (0 Bft) SO 144 0 min 0,000 mm 0,0 UV-I 26 W/m 13,5 C 0,0 km/h (0 Bft)
17.08.2016 07:05 14,1 C 14,1 C 96 % 1010,8 hPa 0,0 mm 0,0 km/h (0 Bft) SO 144 0 min 0,000 mm 0,0 UV-I 28 W/m 13,5 C 0,0 km/h (0 Bft)
17.08.2016 07:06 14,1 C 14,1 C 96 % 1010,9 hPa 0,0 mm 0,0 km/h (0 Bft) SO 144 0 min 0,000 mm 0,0 UV-I 28 W/m 13,5 C 0,0 km/h (0 Bft)
17.08.2016 07:07 14,1 C 14,1 C 96 % 1010,9 hPa 0,0 mm 0,0 km/h (0 Bft) SO 144 0 min 0,000 mm 0,0 UV-I 30 W/m 13,5 C 0,0 km/h (0 Bft)
17.08.2016 07:08 14,1 C 14,1 C 96 % 1010,9 hPa 0,0 mm 0,0 km/h (0 Bft) SO 144 0 min 0,000 mm 0,0 UV-I 30 W/m 13,5 C 0,0 km/h (0 Bft)
17.08.2016 07:09 14,1 C 14,1 C 96 % 1010,8 hPa 0,0 mm 1,5 km/h (1 Bft) SO 144 0 min 0,000 mm 0,0 UV-I 30 W/m 13,5 C 3,2 km/h (1 Bft)
17.08.2016 07:10 14,2 C 14,2 C 96 % 1010,8 hPa 0,0 mm 1,8 km/h (1 Bft) SO 144 0 min 0,000 mm 0,0 UV-I 32 W/m 13,6 C 3,2 km/h (1 Bft)
17.08.2016 07:11 14,2 C 14,2 C 96 % 1010,8 hPa 0,0 mm 1,0 km/h (0 Bft) SO 144 0 min 0,000 mm 0,0 UV-I 33 W/m 13,6 C 1,6 km/h (1 Bft)
17.08.2016 07:12 14,2 C 14,2 C 96 % 1010,8 hPa 0,0 mm 1,2 km/h (1 Bft) SO 144 0 min 0,000 mm 0,0 UV-I 35 W/m 13,6 C 1,6 km/h (1 Bft)
17.08.2016 07:13 14,2 C 14,2 C 96 % 1010,8 hPa 0,0 mm 1,8 km/h (1 Bft) SO 144 0 min 0,000 mm 0,0 UV-I 37 W/m 13,6 C 3,2 km/h (1 Bft)
17.08.2016 07:14 14,2 C 14,2 C 96 % 1010,8 hPa 0,0 mm 2,2 km/h (1 Bft) SO 145 0 min 0,000 mm 0,0 UV-I 37 W/m 13,6 C 3,2 km/h (1 Bft)
17.08.2016 07:15 14,2 C 14,2 C 96 % 1010,8 hPa 0,0 mm 0,8 km/h (0 Bft) SO 145 0 min 0,000 mm 0,0 UV-I 37 W/m 13,6 C 1,6 km/h (1 Bft)
17.08.2016 07:16 14,2 C 14,2 C 96 % 1010,8 hPa 0,0 mm 0,9 km/h (0 Bft) SO 145 0 min 0,000 mm 0,0 UV-I 32 W/m 13,6 C 1,6 km/h (1 Bft)
17.08.2016 07:17 14,2 C 14,2 C 96 % 1010,8 hPa 0,0 mm 0,9 km/h (0 Bft) SO 144 0 min 0,000 mm 0,0 UV-I 28 W/m 13,6 C 1,6 km/h (1 Bft)
17.08.2016 07:18 14,2 C 14,2 C 96 % 1010,8 hPa 0,0 mm 0,3 km/h (0 Bft) SO 144 0 min 0,000 mm 0,0 UV-I 26 W/m 13,6 C 1,6 km/h (1 Bft)
17.08.2016 07:19 14,2 C 14,2 C 96 % 1010,8 hPa 0,0 mm 0,0 km/h (0 Bft) SO 145 0 min 0,000 mm 0,0 UV-I 26 W/m 13,6 C 0,0 km/h (0 Bft)
17.08.2016 07:20 14,2 C 14,2 C 96 % 1010,8 hPa 0,0 mm 0,0 km/h (0 Bft) SO 145 0 min 0,000 mm 0,0 UV-I 25 W/m 13,6 C 0,0 km/h (0 Bft)
17.08.2016 07:21 14,2 C 14,2 C 96 % 1010,7 hPa 0,0 mm 0,0 km/h (0 Bft) SO 144 0 min 0,000 mm 0,0 UV-I 25 W/m 13,6 C 0,0 km/h (0 Bft)
17.08.2016 07:22 14,2 C 14,2 C 96 % 1010,8 hPa 0,0 mm 0,0 km/h (0 Bft) SO 145 0 min 0,000 mm 0,0 UV-I 26 W/m 13,6 C 0,0 km/h (0 Bft)
17.08.2016 07:23 14,2 C 14,2 C 96 % 1010,7 hPa 0,0 mm 0,0 km/h (0 Bft) SO 145 0 min 0,000 mm 0,0 UV-I 28 W/m 13,6 C 0,0 km/h (0 Bft)
17.08.2016 07:24 14,2 C 14,2 C 96 % 1010,8 hPa 0,0 mm 0,0 km/h (0 Bft) SO 145 0 min 0,000 mm 0,0 UV-I 28 W/m 13,6 C 0,0 km/h (0 Bft)
17.08.2016 07:25 14,2 C 14,2 C 96 % 1010,8 hPa 0,0 mm 0,0 km/h (0 Bft) SO 145 0 min 0,000 mm 0,0 UV-I 30 W/m 13,6 C 0,0 km/h (0 Bft)
17.08.2016 07:26 14,2 C 14,2 C 96 % 1010,7 hPa 0,0 mm 0,3 km/h (0 Bft) SO 144 0 min 0,000 mm 0,0 UV-I 30 W/m 13,6 C 1,6 km/h (1 Bft)
17.08.2016 07:27 14,2 C 14,2 C 96 % 1010,7 hPa 0,0 mm 1,0 km/h (0 Bft) SO 145 0 min 0,000 mm 0,0 UV-I 33 W/m 13,6 C 3,2 km/h (1 Bft)
17.08.2016 07:28 14,2 C 14,2 C 96 % 1010,8 hPa 0,0 mm 2,0 km/h (1 Bft) S-SO 151 0 min 0,000 mm 0,0 UV-I 37 W/m 13,6 C 3,2 km/h (1 Bft)
17.08.2016 07:29 14,3 C 14,3 C 96 % 1010,7 hPa 0,0 mm 1,6 km/h (1 Bft) S-SW 195 0 min 0,000 mm 0,0 UV-I 39 W/m 13,7 C 3,2 km/h (1 Bft)
17.08.2016 07:30 14,3 C 14,3 C 95 % 1010,7 hPa 0,0 mm 1,2 km/h (1 Bft) S-SW 195 0 min 0,000 mm 0,0 UV-I 39 W/m 13,5 C 3,2 km/h (1 Bft)
17.08.2016 07:31 14,3 C 14,3 C 95 % 1010,7 hPa 0,0 mm 1,8 km/h (1 Bft) S-SW 196 0 min 0,000 mm 0,0 UV-I 40 W/m 13,5 C 3,2 km/h (1 Bft)
17.08.2016 07:32 14,4 C 14,4 C 95 % 1010,7 hPa 0,0 mm 2,9 km/h (1 Bft) S-SW 200 0 min 0,000 mm 0,0 UV-I 42 W/m 13,6 C 4,8 km/h (1 Bft)
17.08.2016 07:33 14,4 C 14,4 C 94 % 1010,7 hPa 0,0 mm 1,7 km/h (1 Bft) S-SW 200 0 min 0,000 mm 0,0 UV-I 46 W/m 13,4 C 3,2 km/h (1 Bft)
17.08.2016 07:34 14,5 C 14,5 C 94 % 1010,7 hPa 0,0 mm 2,2 km/h (1 Bft) S-SW 200 0 min 0,000 mm 0,0 UV-I 47 W/m 13,5 C 3,2 km/h (1 Bft)
17.08.2016 07:35 14,5 C 14,5 C 94 % 1010,8 hPa 0,0 mm 1,8 km/h (1 Bft) W-SW 240 0 min 0,000 mm 0,0 UV-I 49 W/m 13,5 C 3,2 km/h (1 Bft)
17.08.2016 07:36 14,6 C 14,6 C 94 % 1010,7 hPa 0,0 mm 0,0 km/h (0 Bft) W-SW 240 0 min 0,000 mm 0,0 UV-I 53 W/m 13,6 C 0,0 km/h (0 Bft)
17.08.2016 07:37 14,6 C 14,6 C 94 % 1010,7 hPa 0,0 mm 0,5 km/h (0 Bft) W-SW 239 0 min 0,000 mm 0,0 UV-I 53 W/m 13,6 C 1,6 km/h (1 Bft)
17.08.2016 07:38 14,6 C 14,6 C 94 % 1010,7 hPa 0,0 mm 0,1 km/h (0 Bft) W-SW 239 0 min 0,000 mm 0,0 UV-I 56 W/m 13,6 C 1,6 km/h (1 Bft)
17.08.2016 07:39 14,6 C 14,6 C 94 % 1010,7 hPa 0,0 mm 0,0 km/h (0 Bft) W-SW 239 0 min 0,000 mm 0,0 UV-I 58 W/m 13,6 C 0,0 km/h (0 Bft)
17.08.2016 07:40 14,6 C 14,6 C 95 % 1010,7 hPa 0,0 mm 0,0 km/h (0 Bft) W-SW 240 0 min 0,000 mm 0,0 UV-I 60 W/m 13,8 C 0,0 km/h (0 Bft)
17.08.2016 07:41 14,6 C 14,6 C 94 % 1010,8 hPa 0,0 mm 0,0 km/h (0 Bft) W-SW 239 0 min 0,000 mm 0,0 UV-I 60 W/m 13,6 C 0,0 km/h (0 Bft)
17.08.2016 07:42 14,5 C 14,6 C 94 % 1010,7 hPa 0,0 mm 0,0 km/h (0 Bft) W-SW 240 0 min 0,000 mm 0,0 UV-I 60 W/m 13,5 C 0,0 km/h (0 Bft)
17.08.2016 07:43 14,5 C 14,5 C 95 % 1010,8 hPa 0,0 mm 0,0 km/h (0 Bft) W-SW 239 0 min 0,000 mm 0,0 UV-I 60 W/m 13,7 C 0,0 km/h (0 Bft)
17.08.2016 07:44 14,6 C 14,6 C 95 % 1010,7 hPa 0,0 mm 0,0 km/h (0 Bft) W-SW 239 0 min 0,000 mm 0,0 UV-I 60 W/m 13,8 C 0,0 km/h (0 Bft)
17.08.2016 07:45 14,6 C 14,6 C 95 % 1010,7 hPa 0,0 mm 0,0 km/h (0 Bft) W-SW 239 0 min 0,000 mm 0,0 UV-I 60 W/m 13,8 C 0,0 km/h (0 Bft)
17.08.2016 07:46 14,6 C 14,6 C 95 % 1010,7 hPa 0,0 mm 0,0 km/h (0 Bft) W-SW 239 0 min 0,000 mm 0,0 UV-I 60 W/m 13,8 C 0,0 km/h (0 Bft)
17.08.2016 07:47 14,6 C 14,6 C 95 % 1010,7 hPa 0,0 mm 0,0 km/h (0 Bft) W-SW 239 0 min 0,000 mm 0,0 UV-I 60 W/m 13,8 C 0,0 km/h (0 Bft)
17.08.2016 07:48 14,6 C 14,6 C 95 % 1010,7 hPa 0,0 mm 0,0 km/h (0 Bft) W-SW 239 0 min 0,000 mm 0,0 UV-I 60 W/m 13,8 C 0,0 km/h (0 Bft)
17.08.2016 07:49 14,6 C 14,6 C 95 % 1010,7 hPa 0,0 mm 0,0 km/h (0 Bft) W-SW 239 0 min 0,000 mm 0,0 UV-I 62 W/m 13,8 C 0,0 km/h (0 Bft)
17.08.2016 07:50 14,6 C 14,6 C 95 % 1010,7 hPa 0,0 mm 0,0 km/h (0 Bft) W-SW 239 0 min 0,000 mm 0,0 UV-I 63 W/m 13,8 C 0,0 km/h (0 Bft)
17.08.2016 07:51 14,6 C 14,6 C 95 % 1010,7 hPa 0,0 mm 0,0 km/h (0 Bft) W-SW 239 0 min 0,000 mm 0,0 UV-I 69 W/m 13,8 C 0,0 km/h (0 Bft)
17.08.2016 07:52 14,6 C 14,6 C 95 % 1010,6 hPa 0,0 mm 0,0 km/h (0 Bft) W-SW 239 0 min 0,000 mm 0,0 UV-I 72 W/m 13,8 C 0,0 km/h (0 Bft)
17.08.2016 07:53 14,6 C 14,6 C 95 % 1010,6 hPa 0,0 mm 0,0 km/h (0 Bft) W-SW 239 0 min 0,000 mm 0,5 UV-I 77 W/m 13,8 C 0,0 km/h (0 Bft)
17.08.2016 07:54 14,6 C 14,6 C 95 % 1010,6 hPa 0,0 mm 0,0 km/h (0 Bft) W-SW 239 0 min 0,000 mm 0,5 UV-I 88 W/m 13,8 C 0,0 km/h (0 Bft)
17.08.2016 07:55 14,7 C 14,7 C 95 % 1010,6 hPa 0,0 mm 0,0 km/h (0 Bft) W-SW 239 0 min 0,000 mm 0,5 UV-I 100 W/m 13,9 C 0,0 km/h (0 Bft)
17.08.2016 07:56 14,7 C 14,7 C 95 % 1010,6 hPa 0,0 mm 0,0 km/h (0 Bft) W-SW 239 0 min 0,000 mm 0,5 UV-I 97 W/m 13,9 C 0,0 km/h (0 Bft)
17.08.2016 07:57 14,7 C 14,7 C 95 % 1010,6 hPa 0,0 mm 0,0 km/h (0 Bft) W-SW 239 0 min 0,000 mm 0,5 UV-I 91 W/m 13,9 C 0,0 km/h (0 Bft)
17.08.2016 07:58 14,8 C 14,8 C 95 % 1010,6 hPa 0,0 mm 0,0 km/h (0 Bft) W-SW 239 0 min 0,000 mm 0,5 UV-I 86 W/m 14,0 C 0,0 km/h (0 Bft)
17.08.2016 07:59 14,9 C 14,9 C 95 % 1010,6 hPa 0,0 mm 0,0 km/h (0 Bft) W-SW 239 0 min 0,000 mm 0,5 UV-I 86 W/m 14,1 C 0,0 km/h (0 Bft)
17.08.2016 08:00 14,9 C 14,9 C 94 % 1010,6 hPa 0,0 mm 0,0 km/h (0 Bft) SW 229 0 min 0,025 mm 0,5 UV-I 86 W/m 13,9 C 0,0 km/h (0 Bft)
17.08.2016 08:01 14,9 C 14,9 C 94 % 1010,6 hPa 0,0 mm 0,0 km/h (0 Bft) SW 229 0 min 0,000 mm 0,6 UV-I 86 W/m 13,9 C 0,0 km/h (0 Bft)
17.08.2016 08:02 14,9 C 14,9 C 94 % 1010,6 hPa 0,0 mm 0,0 km/h (0 Bft) SW 232 0 min 0,000 mm 0,6 UV-I 90 W/m 13,9 C 0,0 km/h (0 Bft)
17.08.2016 08:03 15,0 C 15,0 C 94 % 1010,6 hPa 0,0 mm 0,0 km/h (0 Bft) SW 232 0 min 0,000 mm 0,6 UV-I 93 W/m 14,0 C 0,0 km/h (0 Bft)
17.08.2016 08:04 15,1 C 15,1 C 94 % 1010,7 hPa 0,0 mm 0,0 km/h (0 Bft) SW 232 0 min 0,000 mm 0,6 UV-I 98 W/m 14,1 C 0,0 km/h (0 Bft)
17.08.2016 08:05 15,1 C 15,1 C 93 % 1010,6 hPa 0,0 mm 0,0 km/h (0 Bft) SW 232 0 min 0,000 mm 0,7 UV-I 104 W/m 14,0 C 0,0 km/h (0 Bft)
17.08.2016 08:06 15,2 C 15,2 C 93 % 1010,6 hPa 0,0 mm 0,0 km/h (0 Bft) SW 232 0 min 0,000 mm 0,7 UV-I 104 W/m 14,1 C 0,0 km/h (0 Bft)
17.08.2016 08:07 15,2 C 15,2 C 93 % 1010,6 hPa 0,0 mm 0,0 km/h (0 Bft) SW 232 0 min 0,000 mm 0,7 UV-I 111 W/m 14,1 C 0,0 km/h (0 Bft)
17.08.2016 08:08 15,2 C 15,2 C 93 % 1010,5 hPa 0,0 mm 0,0 km/h (0 Bft) SW 233 0 min 0,000 mm 0,7 UV-I 120 W/m 14,1 C 0,0 km/h (0 Bft)
17.08.2016 08:09 15,2 C 15,2 C 92 % 1010,5 hPa 0,0 mm 0,0 km/h (0 Bft) SW 233 0 min 0,000 mm 0,7 UV-I 125 W/m 13,9 C 0,0 km/h (0 Bft)
17.08.2016 08:10 15,3 C 15,3 C 92 % 1010,5 hPa 0,0 mm 0,0 km/h (0 Bft) SW 233 0 min 0,000 mm 0,8 UV-I 128 W/m 14,0 C 0,0 km/h (0 Bft)
17.08.2016 08:11 15,3 C 15,3 C 92 % 1010,5 hPa 0,0 mm 0,0 km/h (0 Bft) SW 233 0 min 0,000 mm 0,8 UV-I 132 W/m 14,0 C 0,0 km/h (0 Bft)
17.08.2016 08:12 15,4 C 15,4 C 93 % 1010,5 hPa 0,0 mm 0,0 km/h (0 Bft) SW 234 0 min 0,000 mm 0,8 UV-I 128 W/m 14,3 C 0,0 km/h (0 Bft)
17.08.2016 08:13 15,4 C 15,4 C 93 % 1010,5 hPa 0,0 mm 0,0 km/h (0 Bft) SW 234 0 min 0,000 mm 0,8 UV-I 130 W/m 14,3 C 0,0 km/h (0 Bft)
17.08.2016 08:14 15,5 C 15,5 C 93 % 1010,6 hPa 0,0 mm 0,1 km/h (0 Bft) W-SW 246 0 min 0,000 mm 0,8 UV-I 130 W/m 14,4 C 1,6 km/h (1 Bft)
17.08.2016 08:15 15,6 C 15,6 C 94 % 1010,6 hPa 0,0 mm 1,7 km/h (1 Bft) W-SW 246 0 min 0,000 mm 0,8 UV-I 132 W/m 14,6 C 3,2 km/h (1 Bft)
17.08.2016 08:16 15,6 C 15,6 C 93 % 1010,5 hPa 0,0 mm 2,1 km/h (1 Bft) W-SW 246 0 min 0,000 mm 0,8 UV-I 134 W/m 14,5 C 3,2 km/h (1 Bft)
17.08.2016 08:17 15,7 C 15,7 C 93 % 1010,6 hPa 0,0 mm 2,5 km/h (1 Bft) W-SW 246 0 min 0,000 mm 0,8 UV-I 134 W/m 14,6 C 3,2 km/h (1 Bft)
17.08.2016 08:18 15,7 C 15,7 C 93 % 1010,6 hPa 0,0 mm 0,7 km/h (0 Bft) W-SW 246 0 min 0,000 mm 0,8 UV-I 134 W/m 14,6 C 1,6 km/h (1 Bft)
17.08.2016 08:19 15,7 C 15,7 C 93 % 1010,5 hPa 0,0 mm 1,2 km/h (1 Bft) W-SW 246 0 min 0,000 mm 0,9 UV-I 171 W/m 14,6 C 1,6 km/h (1 Bft)
17.08.2016 08:20 15,7 C 15,7 C 92 % 1010,6 hPa 0,0 mm 0,6 km/h (0 Bft) W-SW 246 0 min 0,000 mm 0,8 UV-I 169 W/m 14,4 C 1,6 km/h (1 Bft)
17.08.2016 08:21 15,8 C 15,8 C 92 % 1010,6 hPa 0,0 mm 0,1 km/h (0 Bft) W-SW 246 0 min 0,000 mm 0,9 UV-I 139 W/m 14,5 C 1,6 km/h (1 Bft)
17.08.2016 08:22 15,8 C 15,8 C 92 % 1010,6 hPa 0,0 mm 0,0 km/h (0 Bft) W-SW 246 1 min 0,000 mm 0,9 UV-I 236 W/m 14,5 C 0,0 km/h (0 Bft)
17.08.2016 08:23 15,8 C 15,8 C 92 % 1010,6 hPa 0,0 mm 0,1 km/h (0 Bft) W-SW 246 1 min 0,000 mm 1,0 UV-I 260 W/m 14,5 C 1,6 km/h (1 Bft)
17.08.2016 08:24 15,9 C 15,9 C 93 % 1010,6 hPa 0,0 mm 0,3 km/h (0 Bft) W-SW 246 0 min 0,000 mm 0,9 UV-I 160 W/m 14,8 C 1,6 km/h (1 Bft)
17.08.2016 08:25 15,9 C 15,9 C 93 % 1010,6 hPa 0,0 mm 0,0 km/h (0 Bft) W-SW 246 0 min 0,000 mm 0,9 UV-I 162 W/m 14,8 C 0,0 km/h (0 Bft)
17.08.2016 08:26 15,8 C 15,9 C 93 % 1010,6 hPa 0,0 mm 0,0 km/h (0 Bft) W-SW 246 0 min 0,000 mm 0,9 UV-I 135 W/m 14,7 C 0,0 km/h (0 Bft)
17.08.2016 08:27 15,9 C 15,9 C 93 % 1010,6 hPa 0,0 mm 1,2 km/h (1 Bft) W-SW 247 1 min 0,000 mm 1,0 UV-I 209 W/m 14,8 C 3,2 km/h (1 Bft)
17.08.2016 08:28 15,9 C 15,9 C 93 % 1010,6 hPa 0,0 mm 2,0 km/h (1 Bft) W-SW 247 0 min 0,000 mm 1,0 UV-I 190 W/m 14,8 C 3,2 km/h (1 Bft)
17.08.2016 08:29 15,9 C 15,9 C 91 % 1010,6 hPa 0,0 mm 2,3 km/h (1 Bft) W-SW 247 0 min 0,000 mm 1,0 UV-I 186 W/m 14,4 C 3,2 km/h (1 Bft)
17.08.2016 08:30 16,0 C 16,0 C 92 % 1010,6 hPa 0,0 mm 1,7 km/h (1 Bft) W-SW 247 0 min 0,000 mm 1,0 UV-I 149 W/m 14,7 C 3,2 km/h (1 Bft)
17.08.2016 08:31 16,1 C 16,1 C 91 % 1010,6 hPa 0,0 mm 0,6 km/h (0 Bft) W-SW 247 0 min 0,000 mm 1,0 UV-I 169 W/m 14,6 C 1,6 km/h (1 Bft)
17.08.2016 08:32 16,1 C 16,1 C 91 % 1010,5 hPa 0,0 mm 1,5 km/h (1 Bft) W-SW 247 0 min 0,000 mm 1,1 UV-I 192 W/m 14,6 C 1,6 km/h (1 Bft)
17.08.2016 08:33 16,1 C 16,1 C 91 % 1010,5 hPa 0,0 mm 0,7 km/h (0 Bft) W-SW 247 1 min 0,000 mm 1,1 UV-I 214 W/m 14,6 C 3,2 km/h (1 Bft)
17.08.2016 08:34 16,1 C 16,1 C 92 % 1010,5 hPa 0,0 mm 1,1 km/h (1 Bft) W-SW 247 1 min 0,000 mm 1,2 UV-I 295 W/m 14,8 C 3,2 km/h (1 Bft)
17.08.2016 08:35 16,1 C 16,1 C 94 % 1010,5 hPa 0,0 mm 0,3 km/h (0 Bft) W-SW 247 1 min 0,000 mm 1,2 UV-I 281 W/m 15,1 C 1,6 km/h (1 Bft)
17.08.2016 08:36 16,2 C 16,2 C 93 % 1010,6 hPa 0,0 mm 0,3 km/h (0 Bft) W-SW 247 1 min 0,000 mm 1,2 UV-I 308 W/m 15,1 C 1,6 km/h (1 Bft)
17.08.2016 08:37 16,4 C 16,4 C 94 % 1010,5 hPa 0,0 mm 1,4 km/h (1 Bft) W-SW 247 1 min 0,000 mm 1,2 UV-I 221 W/m 15,4 C 3,2 km/h (1 Bft)
17.08.2016 08:38 16,4 C 16,4 C 91 % 1010,6 hPa 0,0 mm 1,7 km/h (1 Bft) W-SW 247 1 min 0,000 mm 1,1 UV-I 290 W/m 14,9 C 3,2 km/h (1 Bft)
17.08.2016 08:39 16,4 C 16,5 C 89 % 1010,5 hPa 0,0 mm 1,1 km/h (1 Bft) SW 220 1 min 0,000 mm 1,2 UV-I 292 W/m 14,6 C 3,2 km/h (1 Bft)
17.08.2016 08:40 16,5 C 16,5 C 89 % 1010,5 hPa 0,0 mm 1,7 km/h (1 Bft) SW 231 1 min 0,000 mm 1,1 UV-I 230 W/m 14,7 C 3,2 km/h (1 Bft)
17.08.2016 08:41 16,5 C 16,5 C 89 % 1010,5 hPa 0,0 mm 2,6 km/h (1 Bft) W-SW 254 0 min 0,000 mm 1,0 UV-I 186 W/m 14,7 C 3,2 km/h (1 Bft)
17.08.2016 08:42 16,6 C 16,6 C 90 % 1010,5 hPa 0,0 mm 1,9 km/h (1 Bft) W-SW 254 0 min 0,000 mm 0,9 UV-I 160 W/m 15,0 C 3,2 km/h (1 Bft)
17.08.2016 08:43 16,6 C 16,6 C 90 % 1010,6 hPa 0,0 mm 2,8 km/h (1 Bft) W 265 0 min 0,000 mm 0,9 UV-I 162 W/m 15,0 C 3,2 km/h (1 Bft)
17.08.2016 08:44 16,7 C 16,7 C 90 % 1010,5 hPa 0,0 mm 2,2 km/h (1 Bft) W 265 0 min 0,000 mm 0,9 UV-I 109 W/m 15,0 C 3,2 km/h (1 Bft)
17.08.2016 08:45 16,7 C 16,7 C 90 % 1010,5 hPa 0,0 mm 1,3 km/h (1 Bft) W 265 0 min 0,000 mm 0,9 UV-I 114 W/m 15,0 C 1,6 km/h (1 Bft)
17.08.2016 08:46 16,6 C 16,7 C 90 % 1010,5 hPa 0,0 mm 1,6 km/h (1 Bft) W 265 0 min 0,000 mm 0,9 UV-I 121 W/m 15,0 C 3,2 km/h (1 Bft)
17.08.2016 08:47 16,6 C 16,6 C 90 % 1010,6 hPa 0,0 mm 0,7 km/h (0 Bft) W 265 0 min 0,000 mm 0,9 UV-I 132 W/m 15,0 C 1,6 km/h (1 Bft)
17.08.2016 08:48 16,6 C 16,6 C 91 % 1010,6 hPa 0,0 mm 0,4 km/h (0 Bft) W 265 0 min 0,000 mm 1,0 UV-I 148 W/m 15,1 C 1,6 km/h (1 Bft)
17.08.2016 08:49 16,4 C 16,6 C 90 % 1010,5 hPa 0,0 mm 0,3 km/h (0 Bft) W 265 0 min 0,000 mm 1,0 UV-I 158 W/m 14,8 C 1,6 km/h (1 Bft)
17.08.2016 08:50 16,4 C 16,4 C 90 % 1010,5 hPa 0,0 mm 0,1 km/h (0 Bft) W 265 0 min 0,000 mm 1,0 UV-I 148 W/m 14,8 C 1,6 km/h (1 Bft)
17.08.2016 08:51 16,4 C 16,4 C 89 % 1010,5 hPa 0,0 mm 0,1 km/h (0 Bft) W 265 0 min 0,000 mm 0,9 UV-I 141 W/m 14,6 C 1,6 km/h (1 Bft)
17.08.2016 08:52 16,4 C 16,4 C 91 % 1010,5 hPa 0,0 mm 0,0 km/h (0 Bft) W 265 0 min 0,000 mm 0,9 UV-I 151 W/m 14,9 C 0,0 km/h (0 Bft)
17.08.2016 08:53 16,4 C 16,4 C 91 % 1010,4 hPa 0,0 mm 0,5 km/h (0 Bft) W 265 0 min 0,000 mm 0,9 UV-I 114 W/m 14,9 C 1,6 km/h (1 Bft)
17.08.2016 08:54 16,3 C 16,4 C 92 % 1010,5 hPa 0,0 mm 0,0 km/h (0 Bft) W 265 0 min 0,000 mm 0,9 UV-I 107 W/m 15,0 C 0,0 km/h (0 Bft)
17.08.2016 08:55 16,3 C 16,3 C 91 % 1010,5 hPa 0,0 mm 0,1 km/h (0 Bft) W 265 0 min 0,000 mm 0,9 UV-I 104 W/m 14,8 C 1,6 km/h (1 Bft)
17.08.2016 08:56 16,2 C 16,3 C 91 % 1010,5 hPa 0,0 mm 0,1 km/h (0 Bft) W 265 0 min 0,000 mm 0,9 UV-I 104 W/m 14,7 C 1,6 km/h (1 Bft)
17.08.2016 08:57 16,1 C 16,2 C 92 % 1010,5 hPa 0,0 mm 0,7 km/h (0 Bft) W 265 0 min 0,000 mm 0,9 UV-I 105 W/m 14,8 C 1,6 km/h (1 Bft)
17.08.2016 08:58 16,1 C 16,1 C 92 % 1010,5 hPa 0,0 mm 0,1 km/h (0 Bft) W 265 0 min 0,000 mm 1,0 UV-I 109 W/m 14,8 C 1,6 km/h (1 Bft)
17.08.2016 08:59 16,0 C 16,1 C 93 % 1010,5 hPa 0,0 mm 0,0 km/h (0 Bft) W 265 0 min 0,000 mm 1,0 UV-I 113 W/m 14,9 C 0,0 km/h (0 Bft)
17.08.2016 09:00 16,0 C 16,0 C 94 % 1010,5 hPa 0,0 mm 0,0 km/h (0 Bft) W 265 0 min 0,000 mm 1,0 UV-I 118 W/m 15,0 C 0,0 km/h (0 Bft)
17.08.2016 09:01 16,0 C 16,0 C 94 % 1010,5 hPa 0,0 mm 0,0 km/h (0 Bft) W 265 0 min 0,076 mm 1,1 UV-I 128 W/m 15,0 C 0,0 km/h (0 Bft)
17.08.2016 09:02 16,0 C 16,0 C 94 % 1010,5 hPa 0,0 mm 0,0 km/h (0 Bft) W 265 0 min 0,001 mm 1,1 UV-I 134 W/m 15,0 C 0,0 km/h (0 Bft)
17.08.2016 09:03 16,0 C 16,1 C 94 % 1010,5 hPa 0,0 mm 0,0 km/h (0 Bft) W 265 0 min 0,000 mm 1,2 UV-I 141 W/m 15,0 C 0,0 km/h (0 Bft)
17.08.2016 09:04 16,0 C 16,1 C 94 % 1010,5 hPa 0,0 mm 0,0 km/h (0 Bft) W 265 0 min 0,000 mm 1,2 UV-I 148 W/m 15,0 C 0,0 km/h (0 Bft)
17.08.2016 09:05 16,1 C 16,1 C 94 % 1010,5 hPa 0,0 mm 0,0 km/h (0 Bft) W 265 0 min 0,000 mm 1,2 UV-I 158 W/m 15,1 C 0,0 km/h (0 Bft)
17.08.2016 09:06 16,2 C 16,2 C 92 % 1010,5 hPa 0,0 mm 1,6 km/h (1 Bft) W 265 0 min 0,000 mm 1,3 UV-I 171 W/m 14,9 C 3,2 km/h (1 Bft)
17.08.2016 09:07 16,3 C 16,3 C 93 % 1010,5 hPa 0,0 mm 0,6 km/h (0 Bft) W 265 0 min 0,000 mm 1,3 UV-I 190 W/m 15,2 C 1,6 km/h (1 Bft)
17.08.2016 09:08 16,4 C 16,4 C 91 % 1010,5 hPa 0,0 mm 0,0 km/h (0 Bft) W 265 0 min 0,000 mm 1,3 UV-I 174 W/m 14,9 C 0,0 km/h (0 Bft)
17.08.2016 09:09 16,4 C 16,4 C 91 % 1010,5 hPa 0,0 mm 0,0 km/h (0 Bft) N 5 0 min 0,000 mm 1,3 UV-I 169 W/m 14,9 C 0,0 km/h (0 Bft)
17.08.2016 09:10 16,4 C 16,4 C 90 % 1010,6 hPa 0,0 mm 3,6 km/h (1 Bft) N 10 0 min 0,000 mm 1,3 UV-I 172 W/m 14,8 C 4,8 km/h (1 Bft)
17.08.2016 09:11 16,5 C 16,5 C 90 % 1010,5 hPa 0,0 mm 1,4 km/h (1 Bft) N-NO 22 0 min 0,000 mm 1,4 UV-I 190 W/m 14,9 C 3,2 km/h (1 Bft)
17.08.2016 09:12 16,4 C 16,5 C 91 % 1010,5 hPa 0,0 mm 1,1 km/h (1 Bft) N-NO 22 0 min 0,000 mm 1,5 UV-I 232 W/m 14,9 C 3,2 km/h (1 Bft)
17.08.2016 09:13 16,4 C 16,4 C 91 % 1010,6 hPa 0,0 mm 2,4 km/h (1 Bft) NO 44 1 min 0,000 mm 1,6 UV-I 290 W/m 14,9 C 3,2 km/h (1 Bft)
17.08.2016 09:14 16,4 C 16,4 C 91 % 1010,6 hPa 0,0 mm 2,5 km/h (1 Bft) NO 53 1 min 0,000 mm 1,7 UV-I 339 W/m 14,9 C 3,2 km/h (1 Bft)
17.08.2016 09:15 16,5 C 16,6 C 92 % 1010,5 hPa 0,0 mm 5,0 km/h (1 Bft) NO 53 1 min 0,000 mm 1,7 UV-I 373 W/m 15,2 C 6,4 km/h (2 Bft)
17.08.2016 09:16 16,4 C 16,5 C 91 % 1010,6 hPa 0,0 mm 3,6 km/h (1 Bft) NO 40 1 min 0,000 mm 1,4 UV-I 308 W/m 14,9 C 4,8 km/h (1 Bft)
17.08.2016 09:17 16,6 C 16,6 C 92 % 1010,5 hPa 0,0 mm 4,4 km/h (1 Bft) N-NO 16 0 min 0,000 mm 1,4 UV-I 246 W/m 15,3 C 8,0 km/h (2 Bft)
17.08.2016 09:18 16,4 C 16,6 C 91 % 1010,5 hPa 0,0 mm 5,7 km/h (1 Bft) N-NO 17 0 min 0,000 mm 1,4 UV-I 236 W/m 14,9 C 6,4 km/h (2 Bft)
17.08.2016 09:19 16,3 C 16,4 C 91 % 1010,5 hPa 0,0 mm 4,0 km/h (1 Bft) NO 49 1 min 0,000 mm 1,4 UV-I 290 W/m 14,8 C 4,8 km/h (1 Bft)
17.08.2016 09:20 16,3 C 16,3 C 91 % 1010,6 hPa 0,0 mm 4,8 km/h (1 Bft) NO 55 0 min 0,000 mm 1,5 UV-I 264 W/m 14,8 C 8,0 km/h (2 Bft)
17.08.2016 09:21 16,4 C 16,4 C 93 % 1010,6 hPa 0,0 mm 3,5 km/h (1 Bft) NO 46 1 min 0,000 mm 1,6 UV-I 272 W/m 15,3 C 4,8 km/h (1 Bft)
17.08.2016 09:22 16,4 C 16,5 C 92 % 1010,6 hPa 0,0 mm 2,1 km/h (1 Bft) NO 46 1 min 0,000 mm 1,6 UV-I 287 W/m 15,1 C 4,8 km/h (1 Bft)
17.08.2016 09:23 16,4 C 16,4 C 91 % 1010,6 hPa 0,0 mm 4,4 km/h (1 Bft) O-NO 68 1 min 0,000 mm 1,7 UV-I 311 W/m 14,9 C 4,8 km/h (1 Bft)
17.08.2016 09:24 16,4 C 16,4 C 91 % 1010,6 hPa 0,0 mm 2,4 km/h (1 Bft) O-NO 68 1 min 0,000 mm 1,6 UV-I 285 W/m 14,9 C 4,8 km/h (1 Bft)
17.08.2016 09:25 16,4 C 16,4 C 90 % 1010,6 hPa 0,0 mm 1,0 km/h (0 Bft) O-NO 68 0 min 0,000 mm 1,5 UV-I 232 W/m 14,8 C 3,2 km/h (1 Bft)
17.08.2016 09:26 16,4 C 16,4 C 91 % 1010,6 hPa 0,0 mm 1,1 km/h (1 Bft) O-NO 68 0 min 0,000 mm 1,5 UV-I 213 W/m 14,9 C 4,8 km/h (1 Bft)
17.08.2016 09:27 16,3 C 16,4 C 90 % 1010,6 hPa 0,0 mm 2,6 km/h (1 Bft) O-NO 68 0 min 0,000 mm 1,5 UV-I 200 W/m 14,7 C 3,2 km/h (1 Bft)
17.08.2016 09:28 16,3 C 16,3 C 91 % 1010,6 hPa 0,0 mm 3,6 km/h (1 Bft) N 355 0 min 0,000 mm 1,5 UV-I 206 W/m 14,8 C 6,4 km/h (2 Bft)
17.08.2016 09:29 16,4 C 16,4 C 91 % 1010,6 hPa 0,0 mm 4,7 km/h (1 Bft) N 355 0 min 0,000 mm 1,5 UV-I 218 W/m 14,9 C 6,4 km/h (2 Bft)
17.08.2016 09:30 16,4 C 16,4 C 90 % 1010,6 hPa 0,0 mm 1,9 km/h (1 Bft) N 355 0 min 0,000 mm 1,5 UV-I 213 W/m 14,8 C 4,8 km/h (1 Bft)
17.08.2016 09:31 16,5 C 16,5 C 91 % 1010,7 hPa 0,0 mm 2,4 km/h (1 Bft) N 355 0 min 0,000 mm 1,4 UV-I 206 W/m 15,0 C 3,2 km/h (1 Bft)
17.08.2016 09:32 16,5 C 16,5 C 91 % 1010,7 hPa 0,0 mm 2,4 km/h (1 Bft) N-NO 24 0 min 0,000 mm 1,3 UV-I 204 W/m 15,0 C 3,2 km/h (1 Bft)
17.08.2016 09:33 16,5 C 16,6 C 90 % 1010,7 hPa 0,0 mm 1,1 km/h (1 Bft) N-NO 24 0 min 0,000 mm 1,4 UV-I 211 W/m 14,9 C 3,2 km/h (1 Bft)
17.08.2016 09:34 16,5 C 16,6 C 90 % 1010,7 hPa 0,0 mm 1,0 km/h (0 Bft) N-NO 24 0 min 0,000 mm 1,4 UV-I 211 W/m 14,9 C 1,6 km/h (1 Bft)
17.08.2016 09:35 16,5 C 16,6 C 90 % 1010,7 hPa 0,0 mm 2,6 km/h (1 Bft) NO 37 0 min 0,000 mm 1,4 UV-I 209 W/m 14,9 C 4,8 km/h (1 Bft)
17.08.2016 09:36 16,6 C 16,6 C 90 % 1010,7 hPa 0,0 mm 2,2 km/h (1 Bft) NO 37 0 min 0,000 mm 1,3 UV-I 186 W/m 15,0 C 3,2 km/h (1 Bft)
17.08.2016 09:37 16,5 C 16,6 C 90 % 1010,7 hPa 0,0 mm 1,3 km/h (1 Bft) NO 37 0 min 0,000 mm 1,4 UV-I 178 W/m 14,9 C 3,2 km/h (1 Bft)
17.08.2016 09:38 16,6 C 16,6 C 90 % 1010,7 hPa 0,0 mm 2,2 km/h (1 Bft) O-NO 57 0 min 0,000 mm 1,4 UV-I 174 W/m 15,0 C 4,8 km/h (1 Bft)
17.08.2016 09:39 16,6 C 16,6 C 90 % 1010,6 hPa 0,0 mm 0,5 km/h (0 Bft) O-NO 57 0 min 0,000 mm 1,4 UV-I 183 W/m 15,0 C 1,6 km/h (1 Bft)
17.08.2016 09:40 16,6 C 16,6 C 90 % 1010,7 hPa 0,0 mm 1,5 km/h (1 Bft) O 86 0 min 0,000 mm 1,4 UV-I 188 W/m 15,0 C 4,8 km/h (1 Bft)
17.08.2016 09:41 16,6 C 16,6 C 90 % 1010,6 hPa 0,0 mm 3,6 km/h (1 Bft) O 86 0 min 0,000 mm 1,5 UV-I 199 W/m 15,0 C 4,8 km/h (1 Bft)
17.08.2016 09:42 16,6 C 16,6 C 90 % 1010,7 hPa 0,0 mm 3,0 km/h (1 Bft) O 99 0 min 0,000 mm 1,5 UV-I 204 W/m 15,0 C 4,8 km/h (1 Bft)
17.08.2016 09:43 16,6 C 16,6 C 90 % 1010,7 hPa 0,0 mm 4,0 km/h (1 Bft) N 5 0 min 0,000 mm 1,4 UV-I 207 W/m 15,0 C 4,8 km/h (1 Bft)
17.08.2016 09:44 16,6 C 16,6 C 90 % 1010,7 hPa 0,0 mm 4,8 km/h (1 Bft) O 84 0 min 0,000 mm 1,3 UV-I 199 W/m 15,0 C 8,0 km/h (2 Bft)
17.08.2016 09:45 16,6 C 16,6 C 91 % 1010,7 hPa 0,0 mm 4,1 km/h (1 Bft) O-NO 61 0 min 0,000 mm 1,2 UV-I 186 W/m 15,1 C 6,4 km/h (2 Bft)
17.08.2016 09:46 16,6 C 16,6 C 90 % 1010,8 hPa 0,0 mm 4,2 km/h (1 Bft) O-NO 71 0 min 0,000 mm 1,0 UV-I 148 W/m 15,0 C 6,4 km/h (2 Bft)
17.08.2016 09:47 16,6 C 16,6 C 91 % 1010,7 hPa 0,0 mm 1,7 km/h (1 Bft) O-NO 71 0 min 0,000 mm 0,9 UV-I 144 W/m 15,1 C 3,2 km/h (1 Bft)
17.08.2016 09:48 16,6 C 16,6 C 91 % 1010,8 hPa 0,0 mm 3,3 km/h (1 Bft) NO 34 0 min 0,000 mm 0,9 UV-I 146 W/m 15,1 C 4,8 km/h (1 Bft)
17.08.2016 09:49 16,6 C 16,6 C 91 % 1010,8 hPa 0,0 mm 2,1 km/h (1 Bft) NO 34 0 min 0,000 mm 0,8 UV-I 139 W/m 15,1 C 3,2 km/h (1 Bft)
17.08.2016 09:50 16,7 C 16,7 C 91 % 1010,8 hPa 0,0 mm 2,4 km/h (1 Bft) N-NO 20 0 min 0,000 mm 0,8 UV-I 134 W/m 15,2 C 4,8 km/h (1 Bft)
17.08.2016 09:51 16,7 C 16,7 C 91 % 1010,8 hPa 0,0 mm 1,5 km/h (1 Bft) N-NO 20 0 min 0,000 mm 0,8 UV-I 137 W/m 15,2 C 3,2 km/h (1 Bft)
17.08.2016 09:52 16,7 C 16,7 C 91 % 1010,8 hPa 0,0 mm 3,7 km/h (1 Bft) NO 48 0 min 0,000 mm 0,8 UV-I 137 W/m 15,2 C 6,4 km/h (2 Bft)
17.08.2016 09:53 16,7 C 16,7 C 91 % 1010,8 hPa 0,0 mm 3,0 km/h (1 Bft) N 355 0 min 0,000 mm 0,7 UV-I 134 W/m 15,2 C 4,8 km/h (1 Bft)
17.08.2016 09:54 16,6 C 16,7 C 90 % 1010,8 hPa 0,0 mm 2,1 km/h (1 Bft) N 355 0 min 0,000 mm 0,7 UV-I 123 W/m 15,0 C 3,2 km/h (1 Bft)
17.08.2016 09:55 16,6 C 16,6 C 91 % 1010,8 hPa 0,0 mm 2,7 km/h (1 Bft) N-NO 33 0 min 0,000 mm 0,8 UV-I 123 W/m 15,1 C 4,8 km/h (1 Bft)
17.08.2016 09:56 16,5 C 16,6 C 91 % 1010,8 hPa 0,0 mm 4,4 km/h (1 Bft) N 5 0 min 0,000 mm 0,8 UV-I 114 W/m 15,0 C 6,4 km/h (2 Bft)
17.08.2016 09:57 16,5 C 16,5 C 91 % 1010,8 hPa 0,0 mm 2,4 km/h (1 Bft) N 5 0 min 0,000 mm 0,8 UV-I 109 W/m 15,0 C 3,2 km/h (1 Bft)
17.08.2016 09:58 16,5 C 16,5 C 92 % 1010,8 hPa 0,0 mm 3,2 km/h (1 Bft) N 5 0 min 0,000 mm 0,8 UV-I 109 W/m 15,2 C 4,8 km/h (1 Bft)
17.08.2016 09:59 16,4 C 16,5 C 91 % 1010,9 hPa 0,0 mm 2,5 km/h (1 Bft) N 5 0 min 0,000 mm 0,8 UV-I 109 W/m 14,9 C 3,2 km/h (1 Bft)
17.08.2016 10:00 16,4 C 16,4 C 91 % 1010,9 hPa 0,0 mm 3,2 km/h (1 Bft) N 5 0 min 0,101 mm 0,9 UV-I 111 W/m 14,9 C 4,8 km/h (1 Bft)
17.08.2016 10:01 16,4 C 16,4 C 91 % 1010,9 hPa 0,0 mm 1,5 km/h (1 Bft) N 5 0 min 0,000 mm 0,9 UV-I 114 W/m 14,9 C 3,2 km/h (1 Bft)
17.08.2016 10:02 16,3 C 16,4 C 91 % 1010,9 hPa 0,0 mm 0,0 km/h (0 Bft) N 5 0 min 0,000 mm 0,9 UV-I 123 W/m 14,8 C 0,0 km/h (0 Bft)
17.08.2016 10:03 16,3 C 16,4 C 92 % 1010,9 hPa 0,0 mm 0,0 km/h (0 Bft) N 11 0 min 0,000 mm 1,1 UV-I 141 W/m 15,0 C 0,0 km/h (0 Bft)
17.08.2016 10:04 16,4 C 16,4 C 92 % 1010,9 hPa 0,0 mm 2,7 km/h (1 Bft) N 11 0 min 0,000 mm 1,3 UV-I 165 W/m 15,1 C 4,8 km/h (1 Bft)
17.08.2016 10:05 16,4 C 16,4 C 92 % 1010,9 hPa 0,0 mm 3,4 km/h (1 Bft) N-NO 15 0 min 0,000 mm 1,4 UV-I 197 W/m 15,1 C 6,4 km/h (2 Bft)
17.08.2016 10:06 16,4 C 16,4 C 91 % 1010,9 hPa 0,0 mm 0,3 km/h (0 Bft) N-NO 15 0 min 0,000 mm 1,6 UV-I 236 W/m 14,9 C 1,6 km/h (1 Bft)
17.08.2016 10:07 16,5 C 16,5 C 92 % 1010,9 hPa 0,0 mm 0,6 km/h (0 Bft) N-NO 15 0 min 0,000 mm 2,0 UV-I 285 W/m 15,2 C 1,6 km/h (1 Bft)
17.08.2016 10:08 16,5 C 16,6 C 92 % 1010,9 hPa 0,0 mm 1,3 km/h (1 Bft) N-NO 22 0 min 0,000 mm 2,2 UV-I 302 W/m 15,2 C 3,2 km/h (1 Bft)
17.08.2016 10:09 16,5 C 16,5 C 90 % 1010,9 hPa 0,0 mm 0,5 km/h (0 Bft) N-NO 22 1 min 0,000 mm 2,2 UV-I 359 W/m 14,9 C 1,6 km/h (1 Bft)
17.08.2016 10:10 16,5 C 16,5 C 91 % 1010,9 hPa 0,0 mm 0,4 km/h (0 Bft) N-NO 22 1 min 0,000 mm 2,1 UV-I 359 W/m 15,0 C 1,6 km/h (1 Bft)
17.08.2016 10:11 16,6 C 16,6 C 92 % 1010,9 hPa 0,0 mm 2,1 km/h (1 Bft) N-NO 21 0 min 0,000 mm 2,0 UV-I 258 W/m 15,3 C 4,8 km/h (1 Bft)
17.08.2016 10:12 16,6 C 16,6 C 92 % 1010,9 hPa 0,0 mm 3,1 km/h (1 Bft) N 11 0 min 0,000 mm 2,0 UV-I 272 W/m 15,3 C 4,8 km/h (1 Bft)
17.08.2016 10:13 16,7 C 16,7 C 91 % 1010,9 hPa 0,0 mm 4,2 km/h (1 Bft) N-NO 21 0 min 0,000 mm 2,0 UV-I 234 W/m 15,2 C 4,8 km/h (1 Bft)
17.08.2016 10:14 16,7 C 16,7 C 91 % 1010,9 hPa 0,0 mm 3,3 km/h (1 Bft) N 5 0 min 0,000 mm 2,2 UV-I 241 W/m 15,2 C 4,8 km/h (1 Bft)
17.08.2016 10:15 16,8 C 16,8 C 91 % 1010,9 hPa 0,0 mm 2,7 km/h (1 Bft) NO 35 0 min 0,000 mm 2,4 UV-I 288 W/m 15,3 C 4,8 km/h (1 Bft)
17.08.2016 10:16 16,8 C 16,8 C 90 % 1011,0 hPa 0,0 mm 1,8 km/h (1 Bft) NO 35 1 min 0,000 mm 2,6 UV-I 353 W/m 15,1 C 3,2 km/h (1 Bft)
17.08.2016 10:17 17,0 C 17,0 C 92 % 1011,0 hPa 0,0 mm 2,7 km/h (1 Bft) N 360 1 min 0,000 mm 3,2 UV-I 353 W/m 15,7 C 4,8 km/h (1 Bft)
17.08.2016 10:18 17,2 C 17,2 C 93 % 1011,0 hPa 0,0 mm 4,0 km/h (1 Bft) NO 36 1 min 0,000 mm 3,2 UV-I 628 W/m 16,1 C 6,4 km/h (2 Bft)
17.08.2016 10:19 17,2 C 17,3 C 91 % 1011,0 hPa 0,0 mm 2,9 km/h (1 Bft) NO 36 1 min 0,000 mm 3,1 UV-I 671 W/m 15,7 C 6,4 km/h (2 Bft)
17.08.2016 10:20 17,1 C 17,2 C 89 % 1011,0 hPa 0,0 mm 0,8 km/h (0 Bft) NO 36 1 min 0,000 mm 2,6 UV-I 671 W/m 15,3 C 1,6 km/h (1 Bft)
17.08.2016 10:21 17,1 C 17,1 C 90 % 1011,0 hPa 0,0 mm 0,7 km/h (0 Bft) NO 36 0 min 0,000 mm 2,6 UV-I 341 W/m 15,4 C 3,2 km/h (1 Bft)
17.08.2016 10:22 17,1 C 17,1 C 91 % 1011,0 hPa 0,0 mm 3,1 km/h (1 Bft) N 5 0 min 0,000 mm 2,5 UV-I 341 W/m 15,6 C 4,8 km/h (1 Bft)
17.08.2016 10:23 17,1 C 17,1 C 89 % 1010,9 hPa 0,0 mm 2,8 km/h (1 Bft) O 84 0 min 0,000 mm 2,3 UV-I 294 W/m 15,3 C 4,8 km/h (1 Bft)
17.08.2016 10:24 17,0 C 17,1 C 89 % 1010,9 hPa 0,0 mm 3,4 km/h (1 Bft) O-NO 70 0 min 0,000 mm 2,4 UV-I 316 W/m 15,2 C 4,8 km/h (1 Bft)
17.08.2016 10:25 17,0 C 17,0 C 90 % 1010,9 hPa 0,0 mm 4,7 km/h (1 Bft) O-NO 59 0 min 0,000 mm 2,3 UV-I 274 W/m 15,3 C 6,4 km/h (2 Bft)
17.08.2016 10:26 16,9 C 17,0 C 89 % 1010,9 hPa 0,0 mm 3,8 km/h (1 Bft) O-NO 62 0 min 0,000 mm 2,4 UV-I 346 W/m 15,1 C 4,8 km/h (1 Bft)
17.08.2016 10:27 16,9 C 16,9 C 90 % 1010,9 hPa 0,0 mm 1,6 km/h (1 Bft) O-NO 62 0 min 0,000 mm 2,1 UV-I 278 W/m 15,2 C 3,2 km/h (1 Bft)
17.08.2016 10:28 16,9 C 16,9 C 90 % 1011,0 hPa 0,0 mm 1,5 km/h (1 Bft) O-NO 62 0 min 0,000 mm 1,9 UV-I 230 W/m 15,2 C 1,6 km/h (1 Bft)
17.08.2016 10:29 16,9 C 16,9 C 90 % 1011,0 hPa 0,0 mm 2,4 km/h (1 Bft) O-NO 61 0 min 0,000 mm 1,9 UV-I 207 W/m 15,2 C 4,8 km/h (1 Bft)
17.08.2016 10:30 17,0 C 17,0 C 92 % 1011,0 hPa 0,0 mm 4,8 km/h (1 Bft) N-NO 19 0 min 0,000 mm 1,9 UV-I 209 W/m 15,7 C 6,4 km/h (2 Bft)
17.08.2016 10:31 17,1 C 17,1 C 91 % 1011,0 hPa 0,0 mm 4,8 km/h (1 Bft) N-NO 17 0 min 0,000 mm 1,9 UV-I 218 W/m 15,6 C 6,4 km/h (2 Bft)
17.08.2016 10:32 17,2 C 17,2 C 89 % 1011,0 hPa 0,0 mm 3,0 km/h (1 Bft) O-NO 67 0 min 0,000 mm 2,0 UV-I 243 W/m 15,4 C 4,8 km/h (1 Bft)
17.08.2016 10:33 17,1 C 17,2 C 89 % 1011,0 hPa 0,0 mm 1,7 km/h (1 Bft) NO 55 0 min 0,000 mm 2,2 UV-I 299 W/m 15,3 C 4,8 km/h (1 Bft)
17.08.2016 10:34 17,0 C 17,1 C 89 % 1011,1 hPa 0,0 mm 3,2 km/h (1 Bft) N-NO 32 0 min 0,000 mm 2,5 UV-I 352 W/m 15,2 C 4,8 km/h (1 Bft)
17.08.2016 10:35 17,1 C 17,1 C 91 % 1011,0 hPa 0,0 mm 2,7 km/h (1 Bft) NO 37 1 min 0,000 mm 2,8 UV-I 429 W/m 15,6 C 4,8 km/h (1 Bft)
17.08.2016 10:36 17,1 C 17,1 C 89 % 1011,1 hPa 0,0 mm 4,8 km/h (1 Bft) NO 34 1 min 0,000 mm 2,7 UV-I 415 W/m 15,3 C 8,0 km/h (2 Bft)
17.08.2016 10:37 17,2 C 17,2 C 89 % 1011,1 hPa 0,0 mm 3,2 km/h (1 Bft) NO 38 1 min 0,000 mm 2,7 UV-I 445 W/m 15,4 C 6,4 km/h (2 Bft)
17.08.2016 10:38 17,2 C 17,2 C 90 % 1011,1 hPa 0,0 mm 1,1 km/h (1 Bft) NO 38 1 min 0,000 mm 3,0 UV-I 504 W/m 15,5 C 3,2 km/h (1 Bft)
17.08.2016 10:39 17,3 C 17,3 C 91 % 1011,0 hPa 0,0 mm 2,6 km/h (1 Bft) NO 51 1 min 0,000 mm 2,5 UV-I 450 W/m 15,8 C 4,8 km/h (1 Bft)
17.08.2016 10:40 17,4 C 17,4 C 90 % 1011,0 hPa 0,0 mm 4,5 km/h (1 Bft) N-NO 13 0 min 0,000 mm 2,3 UV-I 353 W/m 15,7 C 6,4 km/h (2 Bft)
17.08.2016 10:41 17,4 C 17,5 C 88 % 1011,0 hPa 0,0 mm 3,7 km/h (1 Bft) N 360 0 min 0,000 mm 2,2 UV-I 258 W/m 15,4 C 8,0 km/h (2 Bft)
17.08.2016 10:42 17,3 C 17,4 C 87 % 1011,0 hPa 0,0 mm 4,8 km/h (1 Bft) N 351 0 min 0,000 mm 2,1 UV-I 258 W/m 15,1 C 6,4 km/h (2 Bft)
17.08.2016 10:43 17,3 C 17,3 C 88 % 1011,0 hPa 0,0 mm 4,5 km/h (1 Bft) N 355 0 min 0,000 mm 2,1 UV-I 264 W/m 15,3 C 6,4 km/h (2 Bft)
17.08.2016 10:44 17,3 C 17,3 C 89 % 1011,0 hPa 0,0 mm 5,7 km/h (1 Bft) N 355 0 min 0,000 mm 2,2 UV-I 271 W/m 15,5 C 6,4 km/h (2 Bft)
17.08.2016 10:45 17,3 C 17,3 C 88 % 1011,0 hPa 0,0 mm 4,6 km/h (1 Bft) N-NW 348 0 min 0,000 mm 2,2 UV-I 274 W/m 15,3 C 4,8 km/h (1 Bft)
17.08.2016 10:46 17,3 C 17,3 C 88 % 1010,9 hPa 0,0 mm 2,9 km/h (1 Bft) N-NO 13 0 min 0,000 mm 2,1 UV-I 271 W/m 15,3 C 3,2 km/h (1 Bft)
17.08.2016 10:47 17,3 C 17,3 C 89 % 1010,9 hPa 0,0 mm 3,0 km/h (1 Bft) NO 44 0 min 0,000 mm 1,7 UV-I 230 W/m 15,5 C 4,8 km/h (1 Bft)
17.08.2016 10:48 17,3 C 17,3 C 89 % 1010,9 hPa 0,0 mm 2,7 km/h (1 Bft) NO 43 0 min 0,000 mm 1,5 UV-I 202 W/m 15,5 C 4,8 km/h (1 Bft)
17.08.2016 10:49 17,3 C 17,3 C 89 % 1010,9 hPa 0,0 mm 2,6 km/h (1 Bft) O-NO 67 0 min 0,000 mm 1,3 UV-I 179 W/m 15,5 C 6,4 km/h (2 Bft)
17.08.2016 10:50 17,3 C 17,3 C 89 % 1010,9 hPa 0,0 mm 5,3 km/h (1 Bft) O-NO 78 0 min 0,000 mm 1,3 UV-I 162 W/m 15,5 C 6,4 km/h (2 Bft)
17.08.2016 10:51 17,2 C 17,3 C 89 % 1011,0 hPa 0,0 mm 4,3 km/h (1 Bft) NO 54 0 min 0,000 mm 1,2 UV-I 149 W/m 15,4 C 4,8 km/h (1 Bft)
17.08.2016 10:52 17,1 C 17,2 C 88 % 1010,9 hPa 0,0 mm 5,0 km/h (1 Bft) NO 56 0 min 0,000 mm 1,1 UV-I 132 W/m 15,1 C 6,4 km/h (2 Bft)
17.08.2016 10:53 17,1 C 17,1 C 89 % 1010,9 hPa 0,0 mm 5,9 km/h (2 Bft) NO 51 0 min 0,000 mm 1,1 UV-I 125 W/m 15,3 C 8,0 km/h (2 Bft)
17.08.2016 10:54 16,9 C 17,1 C 89 % 1011,0 hPa 0,0 mm 4,1 km/h (1 Bft) O-NO 57 0 min 0,000 mm 1,0 UV-I 121 W/m 15,1 C 6,4 km/h (2 Bft)
17.08.2016 10:55 16,9 C 16,9 C 89 % 1011,0 hPa 0,0 mm 2,3 km/h (1 Bft) O-NO 57 0 min 0,000 mm 0,9 UV-I 114 W/m 15,1 C 3,2 km/h (1 Bft)
17.08.2016 10:56 16,9 C 16,9 C 90 % 1011,0 hPa 0,0 mm 2,4 km/h (1 Bft) NO 51 0 min 0,000 mm 0,8 UV-I 102 W/m 15,2 C 3,2 km/h (1 Bft)
17.08.2016 10:57 16,9 C 16,9 C 90 % 1011,0 hPa 0,0 mm 3,5 km/h (1 Bft) NO 46 0 min 0,000 mm 0,7 UV-I 93 W/m 15,2 C 6,4 km/h (2 Bft)
17.08.2016 10:58 16,9 C 16,9 C 90 % 1011,1 hPa 0,0 mm 3,6 km/h (1 Bft) O-NO 61 0 min 0,000 mm 0,7 UV-I 88 W/m 15,2 C 4,8 km/h (1 Bft)
17.08.2016 10:59 16,8 C 16,9 C 90 % 1011,1 hPa 0,0 mm 3,1 km/h (1 Bft) N-NO 27 0 min 0,000 mm 0,6 UV-I 81 W/m 15,1 C 6,4 km/h (2 Bft)
17.08.2016 11:00 16,8 C 16,8 C 90 % 1011,1 hPa 0,0 mm 3,9 km/h (1 Bft) N 5 0 min 0,000 mm 0,7 UV-I 84 W/m 15,1 C 4,8 km/h (1 Bft)
17.08.2016 11:01 16,8 C 16,8 C 90 % 1011,1 hPa 0,0 mm 8,0 km/h (2 Bft) O-NO 66 0 min 0,152 mm 0,8 UV-I 93 W/m 15,1 C 9,7 km/h (2 Bft)
17.08.2016 11:03 16,6 C 16,8 C 90 % 1011,1 hPa 0,0 mm 4,8 km/h (1 Bft) NO 51 0 min 0,001 mm 1,2 UV-I 142 W/m 15,0 C 6,4 km/h (2 Bft)
17.08.2016 11:04 16,5 C 16,8 C 90 % 1011,1 hPa 0,0 mm 4,6 km/h (1 Bft) NO 46 0 min 0,001 mm 1,4 UV-I 172 W/m 14,9 C 6,4 km/h (2 Bft)
17.08.2016 11:05 16,5 C 16,5 C 91 % 1011,1 hPa 0,0 mm 4,3 km/h (1 Bft) NO 44 0 min 0,000 mm 1,8 UV-I 213 W/m 15,0 C 6,4 km/h (2 Bft)
17.08.2016 11:06 16,4 C 16,5 C 90 % 1011,1 hPa 0,0 mm 5,5 km/h (1 Bft) NO 51 0 min 0,000 mm 1,9 UV-I 241 W/m 14,8 C 8,0 km/h (2 Bft)
17.08.2016 11:07 16,5 C 16,5 C 91 % 1011,1 hPa 0,0 mm 6,6 km/h (2 Bft) NO 53 0 min 0,000 mm 1,9 UV-I 241 W/m 15,0 C 9,7 km/h (2 Bft)
17.08.2016 11:08 16,5 C 16,5 C 90 % 1011,1 hPa 0,0 mm 4,5 km/h (1 Bft) O-NO 67 0 min 0,000 mm 1,9 UV-I 229 W/m 14,9 C 6,4 km/h (2 Bft)
17.08.2016 11:09 16,4 C 16,5 C 91 % 1011,1 hPa 0,0 mm 4,1 km/h (1 Bft) NO 49 0 min 0,000 mm 1,9 UV-I 229 W/m 14,9 C 4,8 km/h (1 Bft)
17.08.2016 11:10 16,4 C 16,4 C 91 % 1011,1 hPa 0,0 mm 7,0 km/h (2 Bft) O-NO 69 0 min 0,000 mm 1,9 UV-I 223 W/m 14,9 C 8,0 km/h (2 Bft)
17.08.2016 11:11 16,5 C 16,5 C 90 % 1011,1 hPa 0,0 mm 4,9 km/h (1 Bft) O-SO 113 0 min 0,000 mm 1,9 UV-I 223 W/m 14,9 C 6,4 km/h (2 Bft)
17.08.2016 11:12 16,4 C 16,5 C 90 % 1011,1 hPa 0,0 mm 4,6 km/h (1 Bft) O-NO 60 0 min 0,000 mm 2,0 UV-I 225 W/m 14,8 C 6,4 km/h (2 Bft)
17.08.2016 11:13 16,4 C 16,4 C 91 % 1011,1 hPa 0,0 mm 7,1 km/h (2 Bft) O-NO 68 0 min 0,000 mm 2,0 UV-I 227 W/m 14,9 C 8,0 km/h (2 Bft)
17.08.2016 11:14 16,4 C 16,4 C 90 % 1011,1 hPa 0,0 mm 5,0 km/h (1 Bft) O-NO 71 0 min 0,000 mm 2,0 UV-I 230 W/m 14,8 C 6,4 km/h (2 Bft)
17.08.2016 11:15 16,4 C 16,4 C 91 % 1011,1 hPa 0,0 mm 2,6 km/h (1 Bft) N-NO 32 0 min 0,000 mm 2,1 UV-I 232 W/m 14,9 C 3,2 km/h (1 Bft)
17.08.2016 11:16 16,4 C 16,4 C 91 % 1011,1 hPa 0,0 mm 4,5 km/h (1 Bft) O-NO 65 0 min 0,000 mm 2,1 UV-I 234 W/m 14,9 C 6,4 km/h (2 Bft)
17.08.2016 11:17 16,4 C 16,5 C 90 % 1011,2 hPa 0,0 mm 3,5 km/h (1 Bft) NO 46 0 min 0,000 mm 2,0 UV-I 230 W/m 14,8 C 6,4 km/h (2 Bft)
17.08.2016 11:18 16,5 C 16,5 C 90 % 1011,2 hPa 0,0 mm 3,8 km/h (1 Bft) NO 42 0 min 0,000 mm 2,0 UV-I 225 W/m 14,9 C 6,4 km/h (2 Bft)
17.08.2016 11:19 16,6 C 16,6 C 91 % 1011,2 hPa 0,0 mm 2,2 km/h (1 Bft) N-NO 19 0 min 0,000 mm 2,0 UV-I 223 W/m 15,1 C 4,8 km/h (1 Bft)
17.08.2016 11:20 16,6 C 16,6 C 90 % 1011,2 hPa 0,0 mm 5,7 km/h (1 Bft) N-NO 24 0 min 0,000 mm 2,0 UV-I 223 W/m 15,0 C 8,0 km/h (2 Bft)
17.08.2016 11:21 16,6 C 16,6 C 90 % 1011,2 hPa 0,0 mm 4,4 km/h (1 Bft) NO 45 0 min 0,000 mm 2,0 UV-I 225 W/m 15,0 C 6,4 km/h (2 Bft)
17.08.2016 11:22 16,6 C 16,6 C 90 % 1011,2 hPa 0,0 mm 3,8 km/h (1 Bft) O-NO 72 0 min 0,000 mm 2,1 UV-I 220 W/m 15,0 C 4,8 km/h (1 Bft)
17.08.2016 11:23 16,6 C 16,6 C 90 % 1011,2 hPa 0,0 mm 3,5 km/h (1 Bft) O-NO 76 0 min 0,000 mm 2,0 UV-I 213 W/m 15,0 C 6,4 km/h (2 Bft)
17.08.2016 11:24 16,6 C 16,6 C 90 % 1011,2 hPa 0,0 mm 2,8 km/h (1 Bft) NO 41 0 min 0,000 mm 1,9 UV-I 207 W/m 15,0 C 6,4 km/h (2 Bft)
17.08.2016 11:25 16,6 C 16,6 C 90 % 1011,2 hPa 0,0 mm 2,2 km/h (1 Bft) N-NO 26 0 min 0,000 mm 1,9 UV-I 206 W/m 15,0 C 4,8 km/h (1 Bft)
17.08.2016 11:26 16,7 C 16,7 C 91 % 1011,2 hPa 0,0 mm 4,1 km/h (1 Bft) O-NO 58 0 min 0,000 mm 1,9 UV-I 207 W/m 15,2 C 6,4 km/h (2 Bft)
17.08.2016 11:27 16,7 C 16,7 C 91 % 1011,2 hPa 0,0 mm 4,4 km/h (1 Bft) O-NO 76 0 min 0,000 mm 2,1 UV-I 230 W/m 15,2 C 6,4 km/h (2 Bft)
17.08.2016 11:28 16,7 C 16,7 C 90 % 1011,2 hPa 0,0 mm 4,3 km/h (1 Bft) O-NO 60 0 min 0,000 mm 2,3 UV-I 311 W/m 15,0 C 6,4 km/h (2 Bft)
17.08.2016 11:29 16,7 C 16,7 C 90 % 1011,1 hPa 0,0 mm 5,2 km/h (1 Bft) O-NO 60 0 min 0,000 mm 2,8 UV-I 359 W/m 15,0 C 8,0 km/h (2 Bft)
17.08.2016 11:30 16,8 C 16,8 C 91 % 1011,2 hPa 0,0 mm 5,3 km/h (1 Bft) O-NO 58 0 min 0,000 mm 2,8 UV-I 360 W/m 15,3 C 6,4 km/h (2 Bft)
17.08.2016 11:31 16,8 C 16,8 C 90 % 1011,2 hPa 0,0 mm 6,0 km/h (2 Bft) O-NO 57 0 min 0,000 mm 2,6 UV-I 315 W/m 15,1 C 8,0 km/h (2 Bft)
17.08.2016 11:32 16,8 C 16,8 C 91 % 1011,2 hPa 0,0 mm 4,0 km/h (1 Bft) O-NO 77 0 min 0,000 mm 2,8 UV-I 339 W/m 15,3 C 6,4 km/h (2 Bft)
17.08.2016 11:33 16,8 C 16,8 C 90 % 1011,2 hPa 0,0 mm 4,4 km/h (1 Bft) O-NO 69 0 min 0,000 mm 2,9 UV-I 399 W/m 15,1 C 6,4 km/h (2 Bft)
17.08.2016 11:34 16,9 C 16,9 C 91 % 1011,2 hPa 0,0 mm 3,5 km/h (1 Bft) O-NO 63 0 min 0,000 mm 3,1 UV-I 399 W/m 15,4 C 6,4 km/h (2 Bft)
17.08.2016 11:35 16,9 C 16,9 C 90 % 1011,2 hPa 0,0 mm 6,1 km/h (2 Bft) O-NO 71 0 min 0,000 mm 3,3 UV-I 399 W/m 15,2 C 8,0 km/h (2 Bft)
17.08.2016 11:36 17,0 C 17,0 C 90 % 1011,2 hPa 0,0 mm 4,7 km/h (1 Bft) O 82 0 min 0,000 mm 2,3 UV-I 399 W/m 15,3 C 8,0 km/h (2 Bft)
17.08.2016 11:37 17,1 C 17,1 C 90 % 1011,2 hPa 0,0 mm 9,2 km/h (2 Bft) O-NO 69 0 min 0,000 mm 1,9 UV-I 243 W/m 15,4 C 12,9 km/h (3 Bft)
17.08.2016 11:38 16,9 C 17,1 C 88 % 1011,2 hPa 0,0 mm 6,9 km/h (2 Bft) NO 52 0 min 0,000 mm 1,9 UV-I 227 W/m 14,9 C 11,3 km/h (2 Bft)
17.08.2016 11:39 16,9 C 16,9 C 89 % 1011,2 hPa 0,0 mm 5,8 km/h (2 Bft) O-NO 75 0 min 0,000 mm 2,0 UV-I 248 W/m 15,1 C 11,3 km/h (2 Bft)
17.08.2016 11:40 16,8 C 16,9 C 89 % 1011,2 hPa 0,0 mm 6,3 km/h (2 Bft) O-NO 71 0 min 0,000 mm 2,2 UV-I 260 W/m 15,0 C 9,7 km/h (2 Bft)
17.08.2016 11:41 16,7 C 16,8 C 89 % 1011,2 hPa 0,0 mm 4,2 km/h (1 Bft) O-NO 73 0 min 0,000 mm 2,3 UV-I 283 W/m 14,9 C 6,4 km/h (2 Bft)
17.08.2016 11:42 16,8 C 16,8 C 90 % 1011,1 hPa 0,0 mm 6,7 km/h (2 Bft) O-NO 76 0 min 0,000 mm 2,4 UV-I 285 W/m 15,1 C 11,3 km/h (2 Bft)
17.08.2016 11:43 16,8 C 16,8 C 89 % 1011,2 hPa 0,0 mm 4,5 km/h (1 Bft) NO 45 0 min 0,000 mm 2,4 UV-I 288 W/m 15,0 C 11,3 km/h (2 Bft)
17.08.2016 11:44 16,8 C 16,8 C 89 % 1011,2 hPa 0,0 mm 4,0 km/h (1 Bft) O 96 0 min 0,000 mm 2,5 UV-I 304 W/m 15,0 C 6,4 km/h (2 Bft)
17.08.2016 11:45 16,8 C 16,8 C 89 % 1011,2 hPa 0,0 mm 4,3 km/h (1 Bft) NO 51 0 min 0,000 mm 2,6 UV-I 311 W/m 15,0 C 6,4 km/h (2 Bft)
17.08.2016 11:46 16,8 C 16,8 C 89 % 1011,2 hPa 0,0 mm 6,0 km/h (2 Bft) O-NO 67 0 min 0,000 mm 2,4 UV-I 285 W/m 15,0 C 6,4 km/h (2 Bft)
17.08.2016 11:47 16,8 C 16,8 C 89 % 1011,2 hPa 0,0 mm 3,6 km/h (1 Bft) O-NO 69 0 min 0,000 mm 2,4 UV-I 269 W/m 15,0 C 4,8 km/h (1 Bft)
17.08.2016 11:48 16,8 C 16,8 C 90 % 1011,2 hPa 0,0 mm 3,4 km/h (1 Bft) O-NO 57 0 min 0,000 mm 2,4 UV-I 276 W/m 15,1 C 6,4 km/h (2 Bft)
17.08.2016 11:49 16,9 C 16,9 C 89 % 1011,2 hPa 0,0 mm 2,2 km/h (1 Bft) O-NO 57 0 min 0,000 mm 2,5 UV-I 297 W/m 15,1 C 3,2 km/h (1 Bft)
17.08.2016 11:50 16,9 C 16,9 C 89 % 1011,2 hPa 0,0 mm 1,1 km/h (1 Bft) O-NO 57 0 min 0,000 mm 2,7 UV-I 350 W/m 15,1 C 1,6 km/h (1 Bft)
17.08.2016 11:51 17,0 C 17,0 C 89 % 1011,3 hPa 0,0 mm 1,7 km/h (1 Bft) O-NO 57 0 min 0,000 mm 2,7 UV-I 355 W/m 15,2 C 3,2 km/h (1 Bft)
17.08.2016 11:52 17,1 C 17,1 C 89 % 1011,2 hPa 0,0 mm 3,0 km/h (1 Bft) N 5 0 min 0,000 mm 2,5 UV-I 311 W/m 15,3 C 6,4 km/h (2 Bft)
17.08.2016 11:53 17,3 C 17,3 C 89 % 1011,3 hPa 0,0 mm 3,0 km/h (1 Bft) O-NO 58 0 min 0,000 mm 2,3 UV-I 257 W/m 15,5 C 4,8 km/h (1 Bft)
17.08.2016 11:54 17,3 C 17,3 C 87 % 1011,3 hPa 0,0 mm 3,9 km/h (1 Bft) O-NO 59 0 min 0,000 mm 2,3 UV-I 239 W/m 15,1 C 6,4 km/h (2 Bft)
17.08.2016 11:55 17,3 C 17,3 C 88 % 1011,3 hPa 0,0 mm 5,1 km/h (1 Bft) O 82 0 min 0,000 mm 2,3 UV-I 236 W/m 15,3 C 6,4 km/h (2 Bft)
17.08.2016 11:56 17,3 C 17,3 C 88 % 1011,4 hPa 0,0 mm 4,0 km/h (1 Bft) N-NO 16 0 min 0,000 mm 2,3 UV-I 237 W/m 15,3 C 6,4 km/h (2 Bft)
17.08.2016 11:57 17,2 C 17,3 C 87 % 1011,3 hPa 0,0 mm 3,2 km/h (1 Bft) N-NO 20 0 min 0,000 mm 2,4 UV-I 260 W/m 15,0 C 4,8 km/h (1 Bft)
17.08.2016 11:58 17,2 C 17,2 C 87 % 1011,3 hPa 0,0 mm 2,9 km/h (1 Bft) N-NO 21 0 min 0,000 mm 2,7 UV-I 287 W/m 15,0 C 4,8 km/h (1 Bft)
17.08.2016 11:59 17,2 C 17,3 C 87 % 1011,3 hPa 0,0 mm 3,0 km/h (1 Bft) N-NO 21 0 min 0,000 mm 2,9 UV-I 320 W/m 15,0 C 4,8 km/h (1 Bft)
17.08.2016 12:00 17,3 C 17,3 C 88 % 1011,3 hPa 0,0 mm 1,9 km/h (1 Bft) N 5 0 min 0,000 mm 3,1 UV-I 323 W/m 15,3 C 4,8 km/h (1 Bft)
17.08.2016 12:01 17,4 C 17,4 C 88 % 1011,3 hPa 0,0 mm 1,7 km/h (1 Bft) O-NO 72 0 min 0,151 mm 3,7 UV-I 323 W/m 15,4 C 3,2 km/h (1 Bft)
17.08.2016 12:02 17,5 C 17,5 C 88 % 1011,2 hPa 0,0 mm 2,3 km/h (1 Bft) NO 48 1 min 0,000 mm 3,4 UV-I 461 W/m 15,5 C 4,8 km/h (1 Bft)
17.08.2016 12:03 17,6 C 17,6 C 88 % 1011,3 hPa 0,0 mm 2,9 km/h (1 Bft) NO 44 0 min 0,000 mm 3,0 UV-I 353 W/m 15,6 C 4,8 km/h (1 Bft)
17.08.2016 12:04 17,6 C 17,6 C 88 % 1011,3 hPa 0,0 mm 2,5 km/h (1 Bft) N-NO 31 0 min 0,000 mm 3,4 UV-I 394 W/m 15,6 C 4,8 km/h (1 Bft)
17.08.2016 12:05 17,6 C 17,6 C 89 % 1011,3 hPa 0,0 mm 0,8 km/h (0 Bft) N-NO 31 0 min 0,000 mm 3,6 UV-I 406 W/m 15,8 C 1,6 km/h (1 Bft)
17.08.2016 12:06 17,8 C 17,8 C 89 % 1011,2 hPa 0,0 mm 1,2 km/h (1 Bft) NO 36 0 min 0,000 mm 4,8 UV-I 406 W/m 16,0 C 1,6 km/h (1 Bft)
17.08.2016 12:07 17,9 C 17,9 C 88 % 1011,2 hPa 0,0 mm 2,1 km/h (1 Bft) N-NO 33 0 min 0,000 mm 5,4 UV-I 406 W/m 15,9 C 3,2 km/h (1 Bft)
17.08.2016 12:08 18,0 C 18,0 C 87 % 1011,2 hPa 0,0 mm 0,9 km/h (0 Bft) N-NO 33 0 min 0,000 mm 4,7 UV-I 406 W/m 15,8 C 1,6 km/h (1 Bft)
17.08.2016 12:09 18,2 C 18,2 C 89 % 1011,1 hPa 0,0 mm 0,0 km/h (0 Bft) N-NO 33 1 min 0,000 mm 4,8 UV-I 601 W/m 16,4 C 0,0 km/h (0 Bft)
17.08.2016 12:10 18,2 C 18,3 C 86 % 1011,2 hPa 0,0 mm 1,1 km/h (1 Bft) NO 36 1 min 0,000 mm 6,7 UV-I 601 W/m 15,8 C 3,2 km/h (1 Bft)
17.08.2016 12:11 18,2 C 18,2 C 86 % 1011,2 hPa 0,0 mm 1,2 km/h (1 Bft) O-NO 75 1 min 0,000 mm 6,6 UV-I 1020 W/m 15,8 C 3,2 km/h (1 Bft)
17.08.2016 12:12 18,2 C 18,2 C 87 % 1011,1 hPa 0,0 mm 1,8 km/h (1 Bft) O-SO 113 1 min 0,000 mm 6,0 UV-I 1020 W/m 16,0 C 3,2 km/h (1 Bft)
17.08.2016 12:13 18,1 C 18,2 C 86 % 1011,2 hPa 0,0 mm 2,1 km/h (1 Bft) S 175 1 min 0,000 mm 4,6 UV-I 1020 W/m 15,7 C 3,2 km/h (1 Bft)
17.08.2016 12:14 18,2 C 18,2 C 87 % 1011,2 hPa 0,0 mm 4,1 km/h (1 Bft) N 5 1 min 0,000 mm 4,3 UV-I 679 W/m 16,0 C 6,4 km/h (2 Bft)
17.08.2016 12:15 18,3 C 18,3 C 87 % 1011,2 hPa 0,0 mm 5,4 km/h (1 Bft) N 355 1 min 0,000 mm 3,5 UV-I 679 W/m 16,1 C 8,0 km/h (2 Bft)
17.08.2016 12:16 18,3 C 18,3 C 86 % 1011,1 hPa 0,0 mm 5,7 km/h (1 Bft) NO 44 1 min 0,000 mm 3,0 UV-I 679 W/m 15,9 C 9,7 km/h (2 Bft)
17.08.2016 12:17 18,3 C 18,3 C 85 % 1011,1 hPa 0,0 mm 8,6 km/h (2 Bft) O-NO 77 0 min 0,000 mm 2,8 UV-I 385 W/m 15,7 C 11,3 km/h (2 Bft)
17.08.2016 12:18 18,2 C 18,3 C 85 % 1011,1 hPa 0,0 mm 5,3 km/h (1 Bft) O 81 0 min 0,000 mm 2,4 UV-I 285 W/m 15,6 C 8,0 km/h (2 Bft)
17.08.2016 12:19 18,1 C 18,2 C 84 % 1011,2 hPa 0,0 mm 4,5 km/h (1 Bft) O-SO 109 0 min 0,000 mm 2,2 UV-I 241 W/m 15,4 C 6,4 km/h (2 Bft)
17.08.2016 12:20 17,9 C 18,1 C 84 % 1011,2 hPa 0,0 mm 2,4 km/h (1 Bft) O-SO 109 0 min 0,000 mm 2,1 UV-I 218 W/m 15,2 C 4,8 km/h (1 Bft)
17.08.2016 12:21 17,8 C 17,9 C 86 % 1011,2 hPa 0,0 mm 1,2 km/h (1 Bft) N-NO 24 0 min 0,000 mm 2,2 UV-I 227 W/m 15,4 C 3,2 km/h (1 Bft)
17.08.2016 12:22 17,8 C 17,8 C 86 % 1011,2 hPa 0,0 mm 4,0 km/h (1 Bft) N-NW 347 0 min 0,000 mm 2,4 UV-I 243 W/m 15,4 C 4,8 km/h (1 Bft)
17.08.2016 12:23 17,8 C 17,8 C 87 % 1011,2 hPa 0,0 mm 3,9 km/h (1 Bft) N-NW 347 0 min 0,000 mm 2,6 UV-I 267 W/m 15,6 C 4,8 km/h (1 Bft)
17.08.2016 12:24 17,9 C 17,9 C 87 % 1011,2 hPa 0,0 mm 3,5 km/h (1 Bft) N 349 0 min 0,000 mm 2,8 UV-I 288 W/m 15,7 C 4,8 km/h (1 Bft)
17.08.2016 12:25 18,0 C 18,0 C 86 % 1011,2 hPa 0,0 mm 5,6 km/h (1 Bft) N-NO 19 0 min 0,000 mm 2,9 UV-I 309 W/m 15,6 C 8,0 km/h (2 Bft)
17.08.2016 12:26 18,1 C 18,1 C 85 % 1011,2 hPa 0,0 mm 5,9 km/h (2 Bft) N-NW 336 0 min 0,000 mm 3,0 UV-I 329 W/m 15,5 C 9,7 km/h (2 Bft)
17.08.2016 12:27 18,1 C 18,1 C 84 % 1011,2 hPa 0,0 mm 3,4 km/h (1 Bft) N-NW 331 0 min 0,000 mm 2,6 UV-I 267 W/m 15,4 C 4,8 km/h (1 Bft)
17.08.2016 12:28 18,1 C 18,1 C 84 % 1011,2 hPa 0,0 mm 3,8 km/h (1 Bft) N-NW 335 0 min 0,000 mm 2,6 UV-I 283 W/m 15,4 C 6,4 km/h (2 Bft)
17.08.2016 12:29 18,2 C 18,2 C 84 % 1011,2 hPa 0,0 mm 5,2 km/h (1 Bft) N 5 0 min 0,000 mm 2,5 UV-I 272 W/m 15,4 C 6,4 km/h (2 Bft)
17.08.2016 12:30 18,1 C 18,2 C 83 % 1011,2 hPa 0,0 mm 2,5 km/h (1 Bft) O-NO 77 0 min 0,000 mm 2,4 UV-I 260 W/m 15,2 C 3,2 km/h (1 Bft)
17.08.2016 12:31 18,0 C 18,1 C 83 % 1011,2 hPa 0,0 mm 1,3 km/h (1 Bft) NO 54 0 min 0,000 mm 2,4 UV-I 244 W/m 15,1 C 3,2 km/h (1 Bft)
17.08.2016 12:32 17,9 C 18,0 C 84 % 1011,2 hPa 0,0 mm 2,5 km/h (1 Bft) NO 42 0 min 0,000 mm 2,5 UV-I 271 W/m 15,2 C 4,8 km/h (1 Bft)
17.08.2016 12:33 18,0 C 18,0 C 84 % 1011,2 hPa 0,0 mm 2,8 km/h (1 Bft) N-NO 29 0 min 0,000 mm 3,2 UV-I 332 W/m 15,3 C 4,8 km/h (1 Bft)
17.08.2016 12:34 18,0 C 18,0 C 85 % 1011,1 hPa 0,0 mm 4,2 km/h (1 Bft) NO 52 0 min 0,000 mm 3,3 UV-I 345 W/m 15,4 C 6,4 km/h (2 Bft)
17.08.2016 12:35 18,1 C 18,1 C 84 % 1011,1 hPa 0,0 mm 5,5 km/h (1 Bft) N-NO 12 0 min 0,000 mm 3,9 UV-I 345 W/m 15,4 C 6,4 km/h (2 Bft)
17.08.2016 12:36 18,1 C 18,1 C 85 % 1011,1 hPa 0,0 mm 3,6 km/h (1 Bft) N 355 1 min 0,000 mm 3,8 UV-I 492 W/m 15,5 C 6,4 km/h (2 Bft)
17.08.2016 12:37 18,2 C 18,2 C 85 % 1011,1 hPa 0,0 mm 3,9 km/h (1 Bft) N 360 0 min 0,000 mm 3,6 UV-I 401 W/m 15,6 C 6,4 km/h (2 Bft)
17.08.2016 12:38 18,2 C 18,2 C 85 % 1011,1 hPa 0,0 mm 3,4 km/h (1 Bft) N-NO 16 1 min 0,000 mm 3,7 UV-I 483 W/m 15,6 C 4,8 km/h (1 Bft)
17.08.2016 12:39 18,2 C 18,2 C 85 % 1011,0 hPa 0,0 mm 3,6 km/h (1 Bft) N-NW 346 1 min 0,000 mm 3,0 UV-I 483 W/m 15,6 C 6,4 km/h (2 Bft)
17.08.2016 12:40 18,2 C 18,2 C 86 % 1011,0 hPa 0,0 mm 6,5 km/h (2 Bft) N 355 0 min 0,000 mm 2,7 UV-I 295 W/m 15,8 C 8,0 km/h (2 Bft)
17.08.2016 12:41 18,3 C 18,3 C 85 % 1011,0 hPa 0,0 mm 5,2 km/h (1 Bft) N 355 0 min 0,000 mm 2,6 UV-I 274 W/m 15,7 C 6,4 km/h (2 Bft)
17.08.2016 12:42 18,2 C 18,3 C 85 % 1011,0 hPa 0,0 mm 2,1 km/h (1 Bft) N 355 0 min 0,000 mm 2,6 UV-I 269 W/m 15,6 C 3,2 km/h (1 Bft)
17.08.2016 12:43 18,2 C 18,2 C 85 % 1011,0 hPa 0,0 mm 1,8 km/h (1 Bft) N 360 0 min 0,000 mm 2,7 UV-I 279 W/m 15,6 C 3,2 km/h (1 Bft)
17.08.2016 12:44 18,2 C 18,2 C 85 % 1011,0 hPa 0,0 mm 3,0 km/h (1 Bft) O-SO 102 0 min 0,000 mm 2,8 UV-I 299 W/m 15,6 C 4,8 km/h (1 Bft)
17.08.2016 12:45 18,1 C 18,2 C 84 % 1011,0 hPa 0,0 mm 3,8 km/h (1 Bft) O-SO 116 0 min 0,000 mm 2,8 UV-I 308 W/m 15,4 C 6,4 km/h (2 Bft)
17.08.2016 12:46 18,1 C 18,1 C 84 % 1011,0 hPa 0,0 mm 3,3 km/h (1 Bft) O-NO 66 0 min 0,000 mm 3,1 UV-I 336 W/m 15,4 C 6,4 km/h (2 Bft)
17.08.2016 12:47 18,0 C 18,1 C 86 % 1011,0 hPa 0,0 mm 3,0 km/h (1 Bft) O-NO 61 0 min 0,000 mm 3,2 UV-I 357 W/m 15,6 C 4,8 km/h (1 Bft)
17.08.2016 12:48 18,1 C 18,1 C 86 % 1011,0 hPa 0,0 mm 2,4 km/h (1 Bft) O-NO 61 0 min 0,000 mm 3,4 UV-I 388 W/m 15,7 C 4,8 km/h (1 Bft)
17.08.2016 12:49 18,1 C 18,1 C 87 % 1011,0 hPa 0,0 mm 2,5 km/h (1 Bft) N 350 1 min 0,000 mm 3,7 UV-I 575 W/m 15,9 C 4,8 km/h (1 Bft)
17.08.2016 12:50 18,2 C 18,2 C 85 % 1011,0 hPa 0,0 mm 4,2 km/h (1 Bft) N-NW 329 1 min 0,000 mm 3,8 UV-I 575 W/m 15,6 C 6,4 km/h (2 Bft)
17.08.2016 12:51 18,3 C 18,3 C 85 % 1011,1 hPa 0,0 mm 4,6 km/h (1 Bft) N 360 0 min 0,000 mm 3,1 UV-I 392 W/m 15,7 C 8,0 km/h (2 Bft)
17.08.2016 12:52 18,4 C 18,4 C 85 % 1011,2 hPa 0,0 mm 3,8 km/h (1 Bft) N-NO 26 0 min 0,000 mm 2,8 UV-I 376 W/m 15,8 C 6,4 km/h (2 Bft)
17.08.2016 12:53 18,4 C 18,4 C 83 % 1011,1 hPa 0,0 mm 3,0 km/h (1 Bft) N 5 0 min 0,000 mm 2,4 UV-I 330 W/m 15,5 C 4,8 km/h (1 Bft)
17.08.2016 12:54 18,4 C 18,4 C 83 % 1011,2 hPa 0,0 mm 1,9 km/h (1 Bft) N 5 0 min 0,000 mm 2,2 UV-I 283 W/m 15,5 C 3,2 km/h (1 Bft)
17.08.2016 12:55 18,4 C 18,4 C 83 % 1011,2 hPa 0,0 mm 1,0 km/h (0 Bft) N-NO 13 0 min 0,000 mm 2,1 UV-I 244 W/m 15,5 C 3,2 km/h (1 Bft)
17.08.2016 12:56 18,4 C 18,4 C 85 % 1011,2 hPa 0,0 mm 1,0 km/h (0 Bft) N-NO 13 0 min 0,000 mm 2,1 UV-I 237 W/m 15,8 C 3,2 km/h (1 Bft)
17.08.2016 12:57 18,3 C 18,4 C 83 % 1011,2 hPa 0,0 mm 2,3 km/h (1 Bft) NO 49 0 min 0,000 mm 2,2 UV-I 236 W/m 15,4 C 6,4 km/h (2 Bft)
17.08.2016 12:58 18,3 C 18,3 C 84 % 1011,2 hPa 0,0 mm 4,1 km/h (1 Bft) O-NO 58 0 min 0,000 mm 2,2 UV-I 237 W/m 15,5 C 4,8 km/h (1 Bft)
17.08.2016 12:59 18,2 C 18,3 C 83 % 1011,2 hPa 0,0 mm 3,6 km/h (1 Bft) N 11 0 min 0,000 mm 2,3 UV-I 241 W/m 15,3 C 6,4 km/h (2 Bft)
17.08.2016 13:00 18,2 C 18,3 C 85 % 1011,1 hPa 0,0 mm 2,2 km/h (1 Bft) O 93 0 min 0,000 mm 2,4 UV-I 244 W/m 15,6 C 4,8 km/h (1 Bft)
17.08.2016 13:01 18,2 C 18,2 C 84 % 1011,1 hPa 0,0 mm 1,8 km/h (1 Bft) O 92 0 min 0,229 mm 2,4 UV-I 246 W/m 15,4 C 4,8 km/h (1 Bft)
17.08.2016 13:02 18,1 C 18,2 C 85 % 1011,1 hPa 0,0 mm 2,5 km/h (1 Bft) O-NO 67 0 min 0,000 mm 2,5 UV-I 253 W/m 15,5 C 3,2 km/h (1 Bft)
17.08.2016 13:03 18,1 C 18,1 C 84 % 1011,1 hPa 0,0 mm 2,0 km/h (1 Bft) NO 56 0 min 0,000 mm 2,6 UV-I 260 W/m 15,4 C 3,2 km/h (1 Bft)
17.08.2016 13:04 18,1 C 18,1 C 84 % 1011,1 hPa 0,0 mm 2,7 km/h (1 Bft) NO 42 0 min 0,000 mm 2,6 UV-I 265 W/m 15,4 C 4,8 km/h (1 Bft)
17.08.2016 13:05 18,1 C 18,1 C 86 % 1011,2 hPa 0,0 mm 1,2 km/h (1 Bft) NO 42 0 min 0,000 mm 2,6 UV-I 274 W/m 15,7 C 1,6 km/h (1 Bft)
17.08.2016 13:06 18,2 C 18,2 C 85 % 1011,1 hPa 0,0 mm 4,7 km/h (1 Bft) O-NO 70 0 min 0,000 mm 2,6 UV-I 283 W/m 15,6 C 6,4 km/h (2 Bft)
17.08.2016 13:07 18,2 C 18,2 C 84 % 1011,1 hPa 0,0 mm 4,2 km/h (1 Bft) O 90 0 min 0,000 mm 2,5 UV-I 274 W/m 15,4 C 6,4 km/h (2 Bft)
17.08.2016 13:08 18,2 C 18,2 C 84 % 1011,1 hPa 0,0 mm 2,8 km/h (1 Bft) O 83 0 min 0,000 mm 2,6 UV-I 287 W/m 15,4 C 4,8 km/h (1 Bft)
17.08.2016 13:09 18,2 C 18,2 C 83 % 1011,1 hPa 0,0 mm 3,8 km/h (1 Bft) O 80 0 min 0,000 mm 2,6 UV-I 299 W/m 15,3 C 6,4 km/h (2 Bft)
17.08.2016 13:10 18,2 C 18,2 C 85 % 1011,1 hPa 0,0 mm 2,8 km/h (1 Bft) O 80 0 min 0,000 mm 2,4 UV-I 283 W/m 15,6 C 4,8 km/h (1 Bft)
17.08.2016 13:11 18,2 C 18,2 C 83 % 1011,1 hPa 0,0 mm 2,4 km/h (1 Bft) N-NO 29 0 min 0,000 mm 2,3 UV-I 267 W/m 15,3 C 3,2 km/h (1 Bft)
17.08.2016 13:12 18,2 C 18,2 C 85 % 1011,1 hPa 0,0 mm 3,0 km/h (1 Bft) N 355 0 min 0,000 mm 2,2 UV-I 265 W/m 15,6 C 4,8 km/h (1 Bft)
17.08.2016 13:13 18,3 C 18,3 C 85 % 1011,1 hPa 0,0 mm 3,8 km/h (1 Bft) N 11 0 min 0,000 mm 2,0 UV-I 220 W/m 15,7 C 4,8 km/h (1 Bft)
17.08.2016 13:14 18,4 C 18,4 C 84 % 1011,2 hPa 0,0 mm 5,7 km/h (1 Bft) O-NO 67 0 min 0,000 mm 1,9 UV-I 207 W/m 15,6 C 8,0 km/h (2 Bft)
17.08.2016 13:15 18,4 C 18,4 C 84 % 1011,2 hPa 0,0 mm 5,2 km/h (1 Bft) O-NO 57 0 min 0,000 mm 2,1 UV-I 214 W/m 15,6 C 8,0 km/h (2 Bft)
17.08.2016 13:16 18,4 C 18,4 C 83 % 1011,1 hPa 0,0 mm 3,8 km/h (1 Bft) N-NO 30 0 min 0,000 mm 2,3 UV-I 232 W/m 15,5 C 6,4 km/h (2 Bft)
17.08.2016 13:17 18,3 C 18,4 C 83 % 1011,1 hPa 0,0 mm 3,8 km/h (1 Bft) N-NW 345 0 min 0,000 mm 2,6 UV-I 260 W/m 15,4 C 4,8 km/h (1 Bft)
17.08.2016 13:18 18,3 C 18,3 C 82 % 1011,2 hPa 0,0 mm 3,0 km/h (1 Bft) N 355 0 min 0,000 mm 2,7 UV-I 283 W/m 15,2 C 4,8 km/h (1 Bft)
17.08.2016 13:19 18,4 C 18,4 C 83 % 1011,1 hPa 0,0 mm 3,0 km/h (1 Bft) NW 325 0 min 0,000 mm 2,6 UV-I 272 W/m 15,5 C 4,8 km/h (1 Bft)
17.08.2016 13:20 18,4 C 18,4 C 82 % 1011,1 hPa 0,0 mm 1,2 km/h (1 Bft) N-NW 328 0 min 0,000 mm 3,0 UV-I 338 W/m 15,3 C 1,6 km/h (1 Bft)
17.08.2016 13:21 18,6 C 18,6 C 83 % 1011,2 hPa 0,0 mm 5,7 km/h (1 Bft) NO 52 0 min 0,000 mm 3,4 UV-I 338 W/m 15,7 C 9,7 km/h (2 Bft)
17.08.2016 13:22 18,6 C 18,6 C 81 % 1011,2 hPa 0,0 mm 5,2 km/h (1 Bft) N 5 0 min 0,000 mm 3,3 UV-I 420 W/m 15,3 C 6,4 km/h (2 Bft)
17.08.2016 13:23 18,5 C 18,6 C 79 % 1011,1 hPa 0,0 mm 3,7 km/h (1 Bft) N-NW 346 0 min 0,000 mm 3,0 UV-I 355 W/m 14,8 C 4,8 km/h (1 Bft)
17.08.2016 13:24 18,6 C 18,6 C 81 % 1011,1 hPa 0,0 mm 1,7 km/h (1 Bft) N-NW 348 0 min 0,000 mm 3,0 UV-I 339 W/m 15,3 C 4,8 km/h (1 Bft)
17.08.2016 13:25 18,6 C 18,6 C 82 % 1011,1 hPa 0,0 mm 4,1 km/h (1 Bft) O-NO 62 0 min 0,000 mm 3,0 UV-I 336 W/m 15,5 C 8,0 km/h (2 Bft)
17.08.2016 13:26 18,5 C 18,6 C 82 % 1011,1 hPa 0,0 mm 4,6 km/h (1 Bft) O-NO 57 0 min 0,000 mm 3,0 UV-I 338 W/m 15,4 C 6,4 km/h (2 Bft)
17.08.2016 13:27 18,4 C 18,5 C 83 % 1011,2 hPa 0,0 mm 5,9 km/h (2 Bft) O-NO 65 0 min 0,000 mm 3,3 UV-I 401 W/m 15,5 C 8,0 km/h (2 Bft)
17.08.2016 13:28 18,3 C 18,4 C 83 % 1011,2 hPa 0,0 mm 5,9 km/h (2 Bft) O 79 0 min 0,000 mm 3,6 UV-I 401 W/m 15,4 C 11,3 km/h (2 Bft)
17.08.2016 13:29 18,3 C 18,3 C 83 % 1011,2 hPa 0,0 mm 6,5 km/h (2 Bft) O-NO 72 0 min 0,000 mm 3,3 UV-I 401 W/m 15,4 C 11,3 km/h (2 Bft)
17.08.2016 13:30 18,3 C 18,3 C 84 % 1011,2 hPa 0,0 mm 5,1 km/h (1 Bft) N 5 0 min 0,000 mm 3,0 UV-I 359 W/m 15,5 C 8,0 km/h (2 Bft)
17.08.2016 13:31 18,3 C 18,3 C 83 % 1011,2 hPa 0,0 mm 3,2 km/h (1 Bft) NO 39 0 min 0,000 mm 2,6 UV-I 267 W/m 15,4 C 6,4 km/h (2 Bft)
17.08.2016 13:32 18,3 C 18,3 C 83 % 1011,2 hPa 0,0 mm 4,6 km/h (1 Bft) O 101 0 min 0,000 mm 2,3 UV-I 251 W/m 15,4 C 11,3 km/h (2 Bft)
17.08.2016 13:33 18,3 C 18,3 C 84 % 1011,2 hPa 0,0 mm 4,4 km/h (1 Bft) N-NO 26 0 min 0,000 mm 2,3 UV-I 250 W/m 15,5 C 8,0 km/h (2 Bft)
17.08.2016 13:34 18,3 C 18,3 C 82 % 1011,1 hPa 0,0 mm 5,1 km/h (1 Bft) O-NO 65 0 min 0,000 mm 2,5 UV-I 264 W/m 15,2 C 8,0 km/h (2 Bft)
17.08.2016 13:35 18,3 C 18,3 C 83 % 1011,2 hPa 0,0 mm 1,1 km/h (1 Bft) O-NO 65 0 min 0,000 mm 2,7 UV-I 278 W/m 15,4 C 3,2 km/h (1 Bft)
17.08.2016 13:36 18,3 C 18,3 C 85 % 1011,2 hPa 0,0 mm 1,3 km/h (1 Bft) O-NO 58 0 min 0,000 mm 2,9 UV-I 338 W/m 15,7 C 4,8 km/h (1 Bft)
17.08.2016 13:37 18,2 C 18,3 C 83 % 1011,2 hPa 0,0 mm 4,5 km/h (1 Bft) O 80 0 min 0,000 mm 3,4 UV-I 388 W/m 15,3 C 6,4 km/h (2 Bft)
17.08.2016 13:38 18,2 C 18,2 C 83 % 1011,1 hPa 0,0 mm 5,1 km/h (1 Bft) SO 145 0 min 0,000 mm 3,4 UV-I 376 W/m 15,3 C 8,0 km/h (2 Bft)
17.08.2016 13:39 18,2 C 18,2 C 82 % 1011,1 hPa 0,0 mm 4,9 km/h (1 Bft) O-NO 74 0 min 0,000 mm 3,4 UV-I 378 W/m 15,1 C 6,4 km/h (2 Bft)
17.08.2016 13:40 18,2 C 18,2 C 83 % 1011,1 hPa 0,0 mm 4,0 km/h (1 Bft) O-NO 78 0 min 0,000 mm 3,2 UV-I 364 W/m 15,3 C 6,4 km/h (2 Bft)
17.08.2016 13:41 18,2 C 18,2 C 83 % 1011,1 hPa 0,0 mm 4,6 km/h (1 Bft) O 84 0 min 0,000 mm 3,0 UV-I 330 W/m 15,3 C 6,4 km/h (2 Bft)
17.08.2016 13:42 18,2 C 18,2 C 83 % 1011,1 hPa 0,0 mm 4,8 km/h (1 Bft) O-NO 58 0 min 0,000 mm 2,8 UV-I 276 W/m 15,3 C 6,4 km/h (2 Bft)
17.08.2016 13:43 18,2 C 18,3 C 83 % 1011,1 hPa 0,0 mm 4,1 km/h (1 Bft) NO 38 0 min 0,000 mm 2,6 UV-I 265 W/m 15,3 C 8,0 km/h (2 Bft)
17.08.2016 13:44 18,3 C 18,3 C 84 % 1011,1 hPa 0,0 mm 4,7 km/h (1 Bft) O-NO 69 0 min 0,000 mm 2,7 UV-I 272 W/m 15,5 C 8,0 km/h (2 Bft)
17.08.2016 13:45 18,3 C 18,3 C 83 % 1011,1 hPa 0,0 mm 6,8 km/h (2 Bft) O 85 0 min 0,000 mm 2,9 UV-I 294 W/m 15,4 C 9,7 km/h (2 Bft)
17.08.2016 13:46 18,3 C 18,3 C 82 % 1011,1 hPa 0,0 mm 2,6 km/h (1 Bft) O 83 0 min 0,000 mm 3,4 UV-I 294 W/m 15,2 C 4,8 km/h (1 Bft)
17.08.2016 13:47 18,3 C 18,3 C 83 % 1011,1 hPa 0,0 mm 3,1 km/h (1 Bft) NO 49 0 min 0,000 mm 3,8 UV-I 294 W/m 15,4 C 4,8 km/h (1 Bft)
17.08.2016 13:48 18,4 C 18,4 C 82 % 1011,1 hPa 0,0 mm 2,5 km/h (1 Bft) NO 46 0 min 0,000 mm 3,3 UV-I 366 W/m 15,3 C 3,2 km/h (1 Bft)
17.08.2016 13:49 18,3 C 18,4 C 82 % 1011,2 hPa 0,0 mm 4,8 km/h (1 Bft) O-NO 66 0 min 0,000 mm 2,7 UV-I 304 W/m 15,2 C 6,4 km/h (2 Bft)
17.08.2016 13:50 18,3 C 18,4 C 82 % 1011,2 hPa 0,0 mm 2,8 km/h (1 Bft) O-NO 61 0 min 0,000 mm 2,3 UV-I 260 W/m 15,2 C 4,8 km/h (1 Bft)
17.08.2016 13:51 18,3 C 18,4 C 83 % 1011,2 hPa 0,0 mm 3,4 km/h (1 Bft) O-NO 60 0 min 0,000 mm 2,2 UV-I 241 W/m 15,4 C 6,4 km/h (2 Bft)
17.08.2016 13:52 18,3 C 18,4 C 81 % 1011,2 hPa 0,0 mm 6,0 km/h (2 Bft) O 82 0 min 0,000 mm 2,1 UV-I 236 W/m 15,0 C 8,0 km/h (2 Bft)
17.08.2016 13:53 18,3 C 18,3 C 81 % 1011,2 hPa 0,0 mm 4,6 km/h (1 Bft) NO 56 0 min 0,000 mm 2,1 UV-I 220 W/m 15,0 C 6,4 km/h (2 Bft)
17.08.2016 13:54 18,2 C 18,3 C 82 % 1011,2 hPa 0,0 mm 3,8 km/h (1 Bft) NO 49 0 min 0,000 mm 2,1 UV-I 223 W/m 15,1 C 6,4 km/h (2 Bft)
17.08.2016 13:55 18,3 C 18,3 C 82 % 1011,1 hPa 0,0 mm 3,7 km/h (1 Bft) O 88 0 min 0,000 mm 2,3 UV-I 232 W/m 15,2 C 6,4 km/h (2 Bft)
17.08.2016 13:56 18,3 C 18,3 C 82 % 1011,1 hPa 0,0 mm 3,4 km/h (1 Bft) O 82 0 min 0,000 mm 2,6 UV-I 251 W/m 15,2 C 4,8 km/h (1 Bft)
17.08.2016 13:57 18,2 C 18,3 C 82 % 1011,2 hPa 0,0 mm 4,8 km/h (1 Bft) NO 47 0 min 0,000 mm 2,8 UV-I 274 W/m 15,1 C 8,0 km/h (2 Bft)
17.08.2016 13:58 18,3 C 18,3 C 82 % 1011,1 hPa 0,0 mm 4,9 km/h (1 Bft) NO 44 0 min 0,000 mm 2,9 UV-I 308 W/m 15,2 C 6,4 km/h (2 Bft)
17.08.2016 13:59 18,4 C 18,4 C 84 % 1011,1 hPa 0,0 mm 1,5 km/h (1 Bft) NO 44 0 min 0,000 mm 2,8 UV-I 301 W/m 15,6 C 3,2 km/h (1 Bft)
17.08.2016 14:00 18,4 C 18,5 C 82 % 1011,1 hPa 0,0 mm 2,3 km/h (1 Bft) O-SO 109 0 min 0,000 mm 2,8 UV-I 283 W/m 15,3 C 6,4 km/h (2 Bft)
17.08.2016 14:01 18,5 C 18,5 C 81 % 1011,1 hPa 0,0 mm 2,7 km/h (1 Bft) N-NO 13 0 min 0,177 mm 2,7 UV-I 272 W/m 15,2 C 4,8 km/h (1 Bft)
17.08.2016 14:02 18,5 C 18,5 C 82 % 1011,1 hPa 0,0 mm 2,6 km/h (1 Bft) NO 38 0 min 0,000 mm 2,6 UV-I 260 W/m 15,4 C 4,8 km/h (1 Bft)
17.08.2016 14:03 18,5 C 18,6 C 81 % 1011,1 hPa 0,0 mm 1,5 km/h (1 Bft) O-NO 60 0 min 0,000 mm 2,9 UV-I 279 W/m 15,2 C 3,2 km/h (1 Bft)
17.08.2016 14:04 18,5 C 18,5 C 81 % 1011,0 hPa 0,0 mm 4,4 km/h (1 Bft) NO 40 0 min 0,000 mm 3,3 UV-I 313 W/m 15,2 C 6,4 km/h (2 Bft)
17.08.2016 14:05 18,5 C 18,5 C 80 % 1011,0 hPa 0,0 mm 3,7 km/h (1 Bft) O-NO 75 0 min 0,000 mm 3,3 UV-I 336 W/m 15,0 C 8,0 km/h (2 Bft)
17.08.2016 14:06 18,4 C 18,5 C 80 % 1011,0 hPa 0,0 mm 5,8 km/h (2 Bft) NO 56 0 min 0,000 mm 3,5 UV-I 364 W/m 14,9 C 11,3 km/h (2 Bft)
17.08.2016 14:07 18,4 C 18,5 C 80 % 1011,0 hPa 0,0 mm 5,2 km/h (1 Bft) NO 42 0 min 0,000 mm 3,6 UV-I 369 W/m 14,9 C 6,4 km/h (2 Bft)
17.08.2016 14:08 18,4 C 18,5 C 81 % 1011,0 hPa 0,0 mm 4,2 km/h (1 Bft) O-NO 67 0 min 0,000 mm 3,9 UV-I 394 W/m 15,1 C 6,4 km/h (2 Bft)
17.08.2016 14:09 18,5 C 18,5 C 79 % 1011,0 hPa 0,0 mm 3,0 km/h (1 Bft) O-NO 78 0 min 0,000 mm 4,3 UV-I 394 W/m 14,8 C 4,8 km/h (1 Bft)
17.08.2016 14:10 18,5 C 18,5 C 79 % 1011,0 hPa 0,0 mm 1,6 km/h (1 Bft) O-NO 78 1 min 0,000 mm 4,4 UV-I 563 W/m 14,8 C 3,2 km/h (1 Bft)
17.08.2016 14:11 18,5 C 18,6 C 80 % 1011,1 hPa 0,0 mm 2,3 km/h (1 Bft) O-NO 78 1 min 0,000 mm 5,3 UV-I 534 W/m 15,0 C 3,2 km/h (1 Bft)
17.08.2016 14:12 18,6 C 18,6 C 79 % 1011,0 hPa 0,0 mm 2,6 km/h (1 Bft) NO 46 1 min 0,000 mm 5,9 UV-I 926 W/m 14,9 C 3,2 km/h (1 Bft)
17.08.2016 14:13 18,8 C 18,8 C 79 % 1011,0 hPa 0,0 mm 0,7 km/h (0 Bft) NO 46 1 min 0,000 mm 5,2 UV-I 926 W/m 15,1 C 1,6 km/h (1 Bft)
17.08.2016 14:14 19,0 C 19,0 C 81 % 1011,0 hPa 0,0 mm 2,2 km/h (1 Bft) NO 46 1 min 0,000 mm 4,5 UV-I 740 W/m 15,7 C 3,2 km/h (1 Bft)
17.08.2016 14:15 19,0 C 19,0 C 80 % 1011,0 hPa 0,0 mm 3,6 km/h (1 Bft) N 355 1 min 0,000 mm 4,0 UV-I 740 W/m 15,5 C 6,4 km/h (2 Bft)
17.08.2016 14:16 19,0 C 19,0 C 79 % 1011,0 hPa 0,0 mm 5,6 km/h (1 Bft) N-NW 329 1 min 0,000 mm 3,6 UV-I 446 W/m 15,3 C 8,0 km/h (2 Bft)
17.08.2016 14:17 19,0 C 19,0 C 80 % 1011,0 hPa 0,0 mm 4,0 km/h (1 Bft) NO 49 0 min 0,000 mm 3,5 UV-I 378 W/m 15,5 C 4,8 km/h (1 Bft)
17.08.2016 14:18 19,1 C 19,1 C 79 % 1011,0 hPa 0,0 mm 3,7 km/h (1 Bft) O 90 0 min 0,000 mm 3,6 UV-I 323 W/m 15,4 C 6,4 km/h (2 Bft)
17.08.2016 14:19 19,1 C 19,1 C 78 % 1011,0 hPa 0,0 mm 3,2 km/h (1 Bft) NO 40 0 min 0,000 mm 2,6 UV-I 290 W/m 15,2 C 4,8 km/h (1 Bft)
17.08.2016 14:20 19,1 C 19,1 C 78 % 1011,0 hPa 0,0 mm 5,3 km/h (1 Bft) O-NO 68 0 min 0,000 mm 2,4 UV-I 253 W/m 15,2 C 8,0 km/h (2 Bft)
17.08.2016 14:21 18,9 C 19,1 C 77 % 1010,9 hPa 0,0 mm 3,2 km/h (1 Bft) O 83 0 min 0,000 mm 2,3 UV-I 234 W/m 14,8 C 4,8 km/h (1 Bft)
17.08.2016 14:22 18,8 C 18,9 C 79 % 1010,9 hPa 0,0 mm 2,6 km/h (1 Bft) O-SO 102 0 min 0,000 mm 2,3 UV-I 223 W/m 15,1 C 4,8 km/h (1 Bft)
17.08.2016 14:23 18,8 C 18,8 C 81 % 1011,0 hPa 0,0 mm 3,6 km/h (1 Bft) NO 38 0 min 0,000 mm 2,3 UV-I 237 W/m 15,5 C 6,4 km/h (2 Bft)
17.08.2016 14:24 18,8 C 18,8 C 80 % 1010,9 hPa 0,0 mm 3,7 km/h (1 Bft) O-NO 71 0 min 0,000 mm 2,5 UV-I 257 W/m 15,3 C 6,4 km/h (2 Bft)
17.08.2016 14:25 18,7 C 18,8 C 78 % 1010,9 hPa 0,0 mm 4,5 km/h (1 Bft) N-NO 32 0 min 0,000 mm 2,5 UV-I 248 W/m 14,8 C 8,0 km/h (2 Bft)
17.08.2016 14:26 18,7 C 18,7 C 80 % 1010,9 hPa 0,0 mm 5,6 km/h (1 Bft) O-NO 67 0 min 0,000 mm 2,5 UV-I 246 W/m 15,2 C 8,0 km/h (2 Bft)
17.08.2016 14:27 18,7 C 18,7 C 79 % 1010,9 hPa 0,0 mm 5,9 km/h (2 Bft) N-NO 30 0 min 0,000 mm 2,6 UV-I 264 W/m 15,0 C 9,7 km/h (2 Bft)
17.08.2016 14:28 18,7 C 18,8 C 78 % 1010,9 hPa 0,0 mm 5,6 km/h (1 Bft) N-NO 16 0 min 0,000 mm 2,9 UV-I 299 W/m 14,8 C 8,0 km/h (2 Bft)
17.08.2016 14:29 18,8 C 18,8 C 78 % 1011,0 hPa 0,0 mm 5,4 km/h (1 Bft) O 94 0 min 0,000 mm 3,1 UV-I 359 W/m 14,9 C 6,4 km/h (2 Bft)
17.08.2016 14:30 18,8 C 18,8 C 78 % 1010,9 hPa 0,0 mm 4,7 km/h (1 Bft) N 5 0 min 0,000 mm 3,1 UV-I 367 W/m 14,9 C 6,4 km/h (2 Bft)
17.08.2016 14:31 18,8 C 18,8 C 79 % 1011,0 hPa 0,0 mm 3,4 km/h (1 Bft) O-NO 61 0 min 0,000 mm 3,2 UV-I 367 W/m 15,1 C 8,0 km/h (2 Bft)
17.08.2016 14:32 18,9 C 18,9 C 78 % 1011,0 hPa 0,0 mm 5,0 km/h (1 Bft) NO 51 0 min 0,000 mm 3,1 UV-I 362 W/m 15,0 C 8,0 km/h (2 Bft)
17.08.2016 14:33 18,9 C 18,9 C 76 % 1011,0 hPa 0,0 mm 3,0 km/h (1 Bft) N 10 0 min 0,000 mm 3,2 UV-I 366 W/m 14,6 C 4,8 km/h (1 Bft)
17.08.2016 14:34 18,8 C 18,9 C 76 % 1011,0 hPa 0,0 mm 4,5 km/h (1 Bft) O-NO 59 0 min 0,000 mm 3,2 UV-I 357 W/m 14,5 C 6,4 km/h (2 Bft)
17.08.2016 14:35 18,8 C 18,9 C 77 % 1011,0 hPa 0,0 mm 4,6 km/h (1 Bft) O-NO 70 1 min 0,000 mm 3,4 UV-I 436 W/m 14,7 C 8,0 km/h (2 Bft)
17.08.2016 14:36 18,9 C 18,9 C 78 % 1011,0 hPa 0,0 mm 6,7 km/h (2 Bft) O-NO 74 1 min 0,000 mm 3,9 UV-I 476 W/m 15,0 C 11,3 km/h (2 Bft)
17.08.2016 14:37 18,9 C 18,9 C 78 % 1011,0 hPa 0,0 mm 5,6 km/h (1 Bft) N 5 1 min 0,000 mm 3,8 UV-I 461 W/m 15,0 C 8,0 km/h (2 Bft)
17.08.2016 14:38 18,9 C 18,9 C 77 % 1011,0 hPa 0,0 mm 4,6 km/h (1 Bft) N-NO 19 1 min 0,000 mm 3,6 UV-I 429 W/m 14,8 C 6,4 km/h (2 Bft)
17.08.2016 14:39 18,9 C 19,0 C 77 % 1011,0 hPa 0,0 mm 4,6 km/h (1 Bft) O 87 0 min 0,000 mm 3,2 UV-I 401 W/m 14,8 C 6,4 km/h (2 Bft)
17.08.2016 14:40 18,9 C 19,0 C 75 % 1011,0 hPa 0,0 mm 2,2 km/h (1 Bft) O 87 0 min 0,000 mm 2,9 UV-I 332 W/m 14,4 C 4,8 km/h (1 Bft)
17.08.2016 14:41 18,9 C 18,9 C 76 % 1011,0 hPa 0,0 mm 2,1 km/h (1 Bft) N 355 0 min 0,000 mm 2,8 UV-I 271 W/m 14,6 C 4,8 km/h (1 Bft)
17.08.2016 14:42 19,0 C 19,0 C 78 % 1011,0 hPa 0,0 mm 3,2 km/h (1 Bft) N 355 0 min 0,000 mm 2,2 UV-I 234 W/m 15,1 C 4,8 km/h (1 Bft)
17.08.2016 14:43 18,9 C 19,0 C 78 % 1011,0 hPa 0,0 mm 2,6 km/h (1 Bft) N-NW 331 0 min 0,000 mm 2,1 UV-I 211 W/m 15,0 C 4,8 km/h (1 Bft)
17.08.2016 14:44 18,9 C 18,9 C 77 % 1011,0 hPa 0,0 mm 2,1 km/h (1 Bft) N-NW 348 0 min 0,000 mm 2,0 UV-I 188 W/m 14,8 C 4,8 km/h (1 Bft)
17.08.2016 14:45 18,9 C 18,9 C 76 % 1011,0 hPa 0,0 mm 3,7 km/h (1 Bft) NO 42 0 min 0,000 mm 1,8 UV-I 169 W/m 14,6 C 4,8 km/h (1 Bft)
17.08.2016 14:46 19,1 C 19,1 C 78 % 1011,0 hPa 0,0 mm 6,5 km/h (2 Bft) O-NO 68 0 min 0,000 mm 1,7 UV-I 156 W/m 15,2 C 8,0 km/h (2 Bft)
17.08.2016 14:47 18,9 C 19,1 C 77 % 1011,0 hPa 0,0 mm 3,7 km/h (1 Bft) O-NO 70 0 min 0,000 mm 1,7 UV-I 155 W/m 14,8 C 6,4 km/h (2 Bft)
17.08.2016 14:48 18,8 C 18,9 C 77 % 1011,0 hPa 0,0 mm 4,3 km/h (1 Bft) O-NO 65 0 min 0,000 mm 1,6 UV-I 149 W/m 14,7 C 4,8 km/h (1 Bft)
17.08.2016 14:49 18,7 C 18,8 C 76 % 1011,0 hPa 0,0 mm 3,6 km/h (1 Bft) O-NO 65 0 min 0,000 mm 1,5 UV-I 141 W/m 14,4 C 4,8 km/h (1 Bft)
17.08.2016 14:50 18,7 C 18,7 C 77 % 1011,0 hPa 0,0 mm 2,3 km/h (1 Bft) O-NO 65 0 min 0,000 mm 1,4 UV-I 135 W/m 14,6 C 3,2 km/h (1 Bft)
17.08.2016 14:51 18,7 C 18,7 C 79 % 1011,0 hPa 0,0 mm 3,5 km/h (1 Bft) O-NO 67 0 min 0,000 mm 1,4 UV-I 132 W/m 15,0 C 4,8 km/h (1 Bft)
17.08.2016 14:52 18,6 C 18,7 C 80 % 1011,0 hPa 0,0 mm 2,4 km/h (1 Bft) O-NO 67 0 min 0,000 mm 1,5 UV-I 137 W/m 15,1 C 3,2 km/h (1 Bft)
17.08.2016 14:53 18,6 C 18,6 C 80 % 1010,9 hPa 0,0 mm 1,8 km/h (1 Bft) O-NO 67 0 min 0,000 mm 1,5 UV-I 142 W/m 15,1 C 3,2 km/h (1 Bft)
17.08.2016 14:54 18,6 C 18,6 C 80 % 1011,0 hPa 0,0 mm 2,9 km/h (1 Bft) O-NO 66 0 min 0,000 mm 1,5 UV-I 144 W/m 15,1 C 4,8 km/h (1 Bft)
17.08.2016 14:55 18,6 C 18,6 C 81 % 1011,0 hPa 0,0 mm 1,6 km/h (1 Bft) O-NO 66 0 min 0,000 mm 1,6 UV-I 149 W/m 15,3 C 3,2 km/h (1 Bft)
17.08.2016 14:56 18,5 C 18,6 C 78 % 1011,0 hPa 0,0 mm 0,3 km/h (0 Bft) O-NO 66 0 min 0,000 mm 1,7 UV-I 165 W/m 14,6 C 1,6 km/h (1 Bft)
17.08.2016 14:57 18,5 C 18,5 C 79 % 1010,9 hPa 0,0 mm 1,3 km/h (1 Bft) O-NO 66 0 min 0,000 mm 1,7 UV-I 167 W/m 14,8 C 1,6 km/h (1 Bft)
17.08.2016 14:58 18,5 C 18,5 C 80 % 1010,9 hPa 0,0 mm 2,1 km/h (1 Bft) O-NO 66 0 min 0,000 mm 1,8 UV-I 158 W/m 15,0 C 3,2 km/h (1 Bft)
17.08.2016 14:59 18,5 C 18,5 C 80 % 1010,9 hPa 0,0 mm 3,3 km/h (1 Bft) O 86 0 min 0,000 mm 2,0 UV-I 165 W/m 15,0 C 4,8 km/h (1 Bft)
17.08.2016 15:00 18,4 C 18,5 C 84 % 1010,9 hPa 0,0 mm 3,4 km/h (1 Bft) O 87 0 min 0,000 mm 2,3 UV-I 190 W/m 15,6 C 4,8 km/h (1 Bft)
17.08.2016 15:01 18,4 C 18,4 C 79 % 1010,9 hPa 0,0 mm 2,2 km/h (1 Bft) O 86 0 min 0,203 mm 2,8 UV-I 241 W/m 14,7 C 3,2 km/h (1 Bft)
17.08.2016 15:02 18,4 C 18,4 C 77 % 1010,9 hPa 0,0 mm 1,5 km/h (1 Bft) O 86 0 min 0,001 mm 2,9 UV-I 227 W/m 14,3 C 3,2 km/h (1 Bft)
17.08.2016 15:03 18,5 C 18,6 C 80 % 1010,9 hPa 0,0 mm 1,3 km/h (1 Bft) O 86 0 min 0,000 mm 3,1 UV-I 229 W/m 15,0 C 3,2 km/h (1 Bft)
17.08.2016 15:04 18,6 C 18,6 C 77 % 1010,9 hPa 0,0 mm 0,9 km/h (0 Bft) O 86 1 min 0,000 mm 3,6 UV-I 439 W/m 14,5 C 1,6 km/h (1 Bft)
17.08.2016 15:05 18,7 C 18,7 C 79 % 1010,8 hPa 0,0 mm 0,1 km/h (0 Bft) O 86 1 min 0,000 mm 4,4 UV-I 439 W/m 15,0 C 1,6 km/h (1 Bft)
17.08.2016 15:06 18,7 C 18,7 C 77 % 1010,9 hPa 0,0 mm 0,4 km/h (0 Bft) O 86 1 min 0,000 mm 4,1 UV-I 647 W/m 14,6 C 1,6 km/h (1 Bft)
17.08.2016 15:07 18,8 C 18,8 C 77 % 1010,9 hPa 0,0 mm 0,7 km/h (0 Bft) O 86 1 min 0,000 mm 3,6 UV-I 647 W/m 14,7 C 1,6 km/h (1 Bft)
17.08.2016 15:08 18,9 C 18,9 C 77 % 1010,8 hPa 0,0 mm 0,5 km/h (0 Bft) O 86 1 min 0,000 mm 3,9 UV-I 647 W/m 14,8 C 1,6 km/h (1 Bft)
17.08.2016 15:09 19,0 C 19,0 C 78 % 1010,8 hPa 0,0 mm 0,0 km/h (0 Bft) O 86 1 min 0,000 mm 3,5 UV-I 647 W/m 15,1 C 0,0 km/h (0 Bft)
17.08.2016 15:10 19,2 C 19,2 C 79 % 1010,9 hPa 0,0 mm 0,2 km/h (0 Bft) O 86 0 min 0,000 mm 3,6 UV-I 399 W/m 15,5 C 1,6 km/h (1 Bft)
17.08.2016 15:11 19,3 C 19,3 C 76 % 1010,8 hPa 0,0 mm 2,1 km/h (1 Bft) NO 45 0 min 0,000 mm 3,6 UV-I 399 W/m 15,0 C 3,2 km/h (1 Bft)
17.08.2016 15:12 19,4 C 19,4 C 79 % 1010,9 hPa 0,0 mm 2,0 km/h (1 Bft) O-NO 63 0 min 0,000 mm 2,7 UV-I 399 W/m 15,7 C 3,2 km/h (1 Bft)
17.08.2016 15:13 19,3 C 19,4 C 75 % 1010,8 hPa 0,0 mm 2,0 km/h (1 Bft) NO 52 0 min 0,000 mm 2,3 UV-I 192 W/m 14,8 C 3,2 km/h (1 Bft)
17.08.2016 15:14 19,2 C 19,3 C 76 % 1010,8 hPa 0,0 mm 0,4 km/h (0 Bft) NO 51 0 min 0,000 mm 2,1 UV-I 165 W/m 14,9 C 1,6 km/h (1 Bft)
17.08.2016 15:15 19,2 C 19,2 C 79 % 1010,8 hPa 0,0 mm 1,3 km/h (1 Bft) O 101 0 min 0,000 mm 2,0 UV-I 158 W/m 15,5 C 6,4 km/h (2 Bft)
17.08.2016 15:16 19,1 C 19,2 C 79 % 1010,9 hPa 0,0 mm 3,7 km/h (1 Bft) O-SO 104 0 min 0,000 mm 2,0 UV-I 169 W/m 15,4 C 4,8 km/h (1 Bft)
17.08.2016 15:17 18,9 C 19,1 C 79 % 1010,8 hPa 0,0 mm 4,4 km/h (1 Bft) S-SO 149 0 min 0,000 mm 2,1 UV-I 174 W/m 15,2 C 6,4 km/h (2 Bft)
17.08.2016 15:18 18,8 C 18,9 C 76 % 1010,8 hPa 0,0 mm 4,5 km/h (1 Bft) SO 132 0 min 0,000 mm 2,1 UV-I 178 W/m 14,5 C 6,4 km/h (2 Bft)
17.08.2016 15:19 18,8 C 18,8 C 77 % 1010,8 hPa 0,0 mm 2,8 km/h (1 Bft) SO 132 0 min 0,000 mm 2,1 UV-I 179 W/m 14,7 C 3,2 km/h (1 Bft)
17.08.2016 15:20 18,8 C 18,8 C 77 % 1010,9 hPa 0,0 mm 3,4 km/h (1 Bft) SO 133 0 min 0,000 mm 2,2 UV-I 190 W/m 14,7 C 4,8 km/h (1 Bft)
17.08.2016 15:21 18,8 C 18,8 C 77 % 1010,8 hPa 0,0 mm 3,9 km/h (1 Bft) SO 133 0 min 0,000 mm 2,5 UV-I 227 W/m 14,7 C 6,4 km/h (2 Bft)
17.08.2016 15:22 18,8 C 18,8 C 77 % 1010,8 hPa 0,0 mm 2,2 km/h (1 Bft) SO 132 1 min 0,000 mm 3,6 UV-I 559 W/m 14,7 C 4,8 km/h (1 Bft)
17.08.2016 15:23 18,8 C 18,9 C 79 % 1010,8 hPa 0,0 mm 1,1 km/h (1 Bft) SO 132 1 min 0,000 mm 3,2 UV-I 559 W/m 15,1 C 3,2 km/h (1 Bft)
17.08.2016 15:24 18,9 C 18,9 C 79 % 1010,8 hPa 0,0 mm 2,7 km/h (1 Bft) O-NO 57 0 min 0,000 mm 3,3 UV-I 332 W/m 15,2 C 4,8 km/h (1 Bft)
17.08.2016 15:25 19,1 C 19,1 C 77 % 1010,8 hPa 0,0 mm 1,3 km/h (1 Bft) O-NO 57 0 min 0,000 mm 3,0 UV-I 318 W/m 15,0 C 3,2 km/h (1 Bft)
17.08.2016 15:26 19,1 C 19,1 C 77 % 1010,8 hPa 0,0 mm 1,2 km/h (1 Bft) O-NO 57 0 min 0,000 mm 3,0 UV-I 283 W/m 15,0 C 3,2 km/h (1 Bft)
17.08.2016 15:27 19,1 C 19,2 C 78 % 1010,8 hPa 0,0 mm 2,1 km/h (1 Bft) O-SO 102 0 min 0,000 mm 2,9 UV-I 281 W/m 15,2 C 3,2 km/h (1 Bft)
17.08.2016 15:28 19,1 C 19,2 C 77 % 1010,8 hPa 0,0 mm 1,9 km/h (1 Bft) O-SO 102 0 min 0,000 mm 2,9 UV-I 276 W/m 15,0 C 3,2 km/h (1 Bft)
17.08.2016 15:29 19,2 C 19,2 C 77 % 1010,9 hPa 0,0 mm 2,5 km/h (1 Bft) O-SO 102 0 min 0,000 mm 2,9 UV-I 285 W/m 15,1 C 4,8 km/h (1 Bft)
17.08.2016 15:30 19,1 C 19,2 C 77 % 1010,9 hPa 0,0 mm 3,2 km/h (1 Bft) O-SO 102 0 min 0,000 mm 3,1 UV-I 320 W/m 15,0 C 3,2 km/h (1 Bft)
17.08.2016 15:31 19,1 C 19,1 C 77 % 1010,9 hPa 0,0 mm 2,2 km/h (1 Bft) O-SO 102 0 min 0,000 mm 3,2 UV-I 348 W/m 15,0 C 3,2 km/h (1 Bft)
17.08.2016 15:32 19,1 C 19,1 C 79 % 1010,9 hPa 0,0 mm 2,1 km/h (1 Bft) O-SO 102 0 min 0,000 mm 3,7 UV-I 348 W/m 15,4 C 3,2 km/h (1 Bft)
17.08.2016 15:33 19,2 C 19,2 C 78 % 1010,9 hPa 0,0 mm 3,0 km/h (1 Bft) SO 134 1 min 0,000 mm 4,0 UV-I 543 W/m 15,3 C 4,8 km/h (1 Bft)
17.08.2016 15:34 19,2 C 19,2 C 76 % 1010,9 hPa 0,0 mm 3,3 km/h (1 Bft) O-SO 112 0 min 0,000 mm 3,1 UV-I 348 W/m 14,9 C 4,8 km/h (1 Bft)
17.08.2016 15:35 19,2 C 19,2 C 77 % 1010,8 hPa 0,0 mm 3,8 km/h (1 Bft) O-SO 104 0 min 0,000 mm 3,0 UV-I 348 W/m 15,1 C 4,8 km/h (1 Bft)
17.08.2016 15:36 19,3 C 19,3 C 75 % 1010,8 hPa 0,0 mm 3,8 km/h (1 Bft) O-SO 105 0 min 0,000 mm 2,8 UV-I 322 W/m 14,8 C 4,8 km/h (1 Bft)
17.08.2016 15:37 19,3 C 19,3 C 77 % 1010,8 hPa 0,0 mm 3,6 km/h (1 Bft) O-SO 106 0 min 0,000 mm 2,7 UV-I 308 W/m 15,2 C 4,8 km/h (1 Bft)
17.08.2016 15:38 19,3 C 19,4 C 75 % 1010,8 hPa 0,0 mm 2,2 km/h (1 Bft) O-SO 106 0 min 0,000 mm 2,9 UV-I 336 W/m 14,8 C 3,2 km/h (1 Bft)
17.08.2016 15:39 19,3 C 19,4 C 76 % 1010,8 hPa 0,0 mm 1,3 km/h (1 Bft) O-SO 106 0 min 0,000 mm 2,8 UV-I 316 W/m 15,0 C 3,2 km/h (1 Bft)
17.08.2016 15:40 19,4 C 19,4 C 79 % 1010,8 hPa 0,0 mm 2,8 km/h (1 Bft) SW 217 0 min 0,000 mm 2,5 UV-I 281 W/m 15,7 C 4,8 km/h (1 Bft)
17.08.2016 15:41 19,4 C 19,4 C 76 % 1010,8 hPa 0,0 mm 3,0 km/h (1 Bft) S-SW 209 0 min 0,000 mm 2,3 UV-I 281 W/m 15,1 C 4,8 km/h (1 Bft)
17.08.2016 15:42 19,4 C 19,4 C 75 % 1010,8 hPa 0,0 mm 1,5 km/h (1 Bft) S-SW 194 0 min 0,000 mm 2,2 UV-I 225 W/m 14,8 C 3,2 km/h (1 Bft)
17.08.2016 15:43 19,4 C 19,4 C 74 % 1010,8 hPa 0,0 mm 1,5 km/h (1 Bft) S-SW 194 0 min 0,000 mm 2,2 UV-I 214 W/m 14,6 C 3,2 km/h (1 Bft)
17.08.2016 15:44 19,3 C 19,4 C 74 % 1010,8 hPa 0,0 mm 1,2 km/h (1 Bft) S-SW 194 0 min 0,000 mm 2,3 UV-I 236 W/m 14,5 C 1,6 km/h (1 Bft)
17.08.2016 15:45 19,3 C 19,3 C 74 % 1010,8 hPa 0,0 mm 0,8 km/h (0 Bft) S-SW 194 0 min 0,000 mm 2,5 UV-I 299 W/m 14,5 C 1,6 km/h (1 Bft)
17.08.2016 15:46 19,3 C 19,3 C 75 % 1010,7 hPa 0,0 mm 0,9 km/h (0 Bft) S-SW 194 0 min 0,000 mm 2,6 UV-I 304 W/m 14,8 C 1,6 km/h (1 Bft)
17.08.2016 15:47 19,3 C 19,3 C 74 % 1010,7 hPa 0,0 mm 0,7 km/h (0 Bft) S-SW 194 0 min 0,000 mm 2,5 UV-I 260 W/m 14,5 C 1,6 km/h (1 Bft)
17.08.2016 15:48 19,3 C 19,3 C 76 % 1010,8 hPa 0,0 mm 3,8 km/h (1 Bft) W-NW 290 0 min 0,000 mm 2,6 UV-I 253 W/m 15,0 C 4,8 km/h (1 Bft)
17.08.2016 15:49 19,3 C 19,3 C 76 % 1010,7 hPa 0,0 mm 1,7 km/h (1 Bft) W-NW 290 0 min 0,000 mm 2,6 UV-I 264 W/m 15,0 C 3,2 km/h (1 Bft)
17.08.2016 15:50 19,4 C 19,4 C 75 % 1010,7 hPa 0,0 mm 3,5 km/h (1 Bft) W-NW 302 0 min 0,000 mm 2,7 UV-I 274 W/m 14,8 C 4,8 km/h (1 Bft)
17.08.2016 15:51 19,4 C 19,4 C 76 % 1010,7 hPa 0,0 mm 2,8 km/h (1 Bft) W-NW 296 0 min 0,000 mm 2,7 UV-I 241 W/m 15,1 C 4,8 km/h (1 Bft)
17.08.2016 15:52 19,4 C 19,4 C 76 % 1010,7 hPa 0,0 mm 5,2 km/h (1 Bft) W-SW 252 0 min 0,000 mm 2,5 UV-I 232 W/m 15,1 C 9,7 km/h (2 Bft)
17.08.2016 15:53 19,3 C 19,4 C 76 % 1010,6 hPa 0,0 mm 3,8 km/h (1 Bft) W-NW 284 0 min 0,000 mm 2,5 UV-I 232 W/m 15,0 C 6,4 km/h (2 Bft)
17.08.2016 15:54 19,3 C 19,3 C 76 % 1010,7 hPa 0,0 mm 3,8 km/h (1 Bft) W 270 0 min 0,000 mm 2,4 UV-I 216 W/m 15,0 C 6,4 km/h (2 Bft)
17.08.2016 15:55 19,3 C 19,3 C 76 % 1010,6 hPa 0,0 mm 4,6 km/h (1 Bft) W-SW 242 0 min 0,000 mm 2,5 UV-I 227 W/m 15,0 C 6,4 km/h (2 Bft)
17.08.2016 15:56 19,3 C 19,3 C 75 % 1010,7 hPa 0,0 mm 4,6 km/h (1 Bft) SW 232 0 min 0,000 mm 2,6 UV-I 253 W/m 14,8 C 4,8 km/h (1 Bft)
17.08.2016 15:57 19,2 C 19,3 C 74 % 1010,6 hPa 0,0 mm 2,2 km/h (1 Bft) SW 229 0 min 0,000 mm 2,6 UV-I 274 W/m 14,4 C 3,2 km/h (1 Bft)
17.08.2016 15:58 19,2 C 19,2 C 75 % 1010,6 hPa 0,0 mm 1,1 km/h (1 Bft) SW 229 0 min 0,000 mm 2,6 UV-I 258 W/m 14,7 C 1,6 km/h (1 Bft)
17.08.2016 15:59 19,2 C 19,2 C 76 % 1010,6 hPa 0,0 mm 0,3 km/h (0 Bft) SW 229 0 min 0,000 mm 2,6 UV-I 292 W/m 14,9 C 1,6 km/h (1 Bft)
17.08.2016 16:00 19,3 C 19,3 C 75 % 1010,6 hPa 0,0 mm 0,3 km/h (0 Bft) SW 229 0 min 0,000 mm 2,7 UV-I 338 W/m 14,8 C 1,6 km/h (1 Bft)
17.08.2016 16:01 19,3 C 19,3 C 77 % 1010,6 hPa 0,0 mm 0,8 km/h (0 Bft) SW 229 0 min 0,177 mm 2,7 UV-I 311 W/m 15,2 C 3,2 km/h (1 Bft)
17.08.2016 16:02 19,2 C 19,3 C 76 % 1010,5 hPa 0,0 mm 0,0 km/h (0 Bft) SW 229 0 min 0,000 mm 2,7 UV-I 236 W/m 14,9 C 0,0 km/h (0 Bft)
17.08.2016 16:03 19,2 C 19,3 C 78 % 1010,5 hPa 0,0 mm 1,2 km/h (1 Bft) SW 229 0 min 0,000 mm 2,7 UV-I 281 W/m 15,3 C 1,6 km/h (1 Bft)
17.08.2016 16:04 19,2 C 19,2 C 78 % 1010,5 hPa 0,0 mm 0,4 km/h (0 Bft) SW 229 0 min 0,000 mm 2,8 UV-I 288 W/m 15,3 C 1,6 km/h (1 Bft)
17.08.2016 16:05 19,2 C 19,2 C 78 % 1010,6 hPa 0,0 mm 0,3 km/h (0 Bft) SW 229 0 min 0,000 mm 3,6 UV-I 288 W/m 15,3 C 1,6 km/h (1 Bft)
17.08.2016 16:06 19,3 C 19,3 C 80 % 1010,5 hPa 0,0 mm 1,0 km/h (0 Bft) SW 229 0 min 0,000 mm 3,2 UV-I 288 W/m 15,8 C 1,6 km/h (1 Bft)
17.08.2016 16:07 19,3 C 19,3 C 76 % 1010,6 hPa 0,0 mm 2,5 km/h (1 Bft) W 266 0 min 0,000 mm 3,1 UV-I 288 W/m 15,0 C 4,8 km/h (1 Bft)
17.08.2016 16:08 19,4 C 19,4 C 79 % 1010,5 hPa 0,0 mm 2,4 km/h (1 Bft) W 281 0 min 0,000 mm 2,9 UV-I 267 W/m 15,7 C 4,8 km/h (1 Bft)
17.08.2016 16:09 19,4 C 19,4 C 77 % 1010,6 hPa 0,0 mm 0,5 km/h (0 Bft) W 281 0 min 0,000 mm 2,6 UV-I 295 W/m 15,3 C 1,6 km/h (1 Bft)
17.08.2016 16:10 19,6 C 19,6 C 76 % 1010,5 hPa 0,0 mm 3,8 km/h (1 Bft) W-NW 292 0 min 0,000 mm 2,9 UV-I 320 W/m 15,2 C 4,8 km/h (1 Bft)
17.08.2016 16:11 19,6 C 19,6 C 77 % 1010,6 hPa 0,0 mm 3,2 km/h (1 Bft) NW 312 0 min 0,000 mm 3,4 UV-I 320 W/m 15,5 C 4,8 km/h (1 Bft)
17.08.2016 16:12 19,7 C 19,7 C 78 % 1010,6 hPa 0,0 mm 4,2 km/h (1 Bft) N-NW 334 0 min 0,000 mm 2,9 UV-I 343 W/m 15,8 C 4,8 km/h (1 Bft)
17.08.2016 16:13 19,8 C 19,8 C 75 % 1010,5 hPa 0,0 mm 3,6 km/h (1 Bft) N-NO 14 0 min 0,000 mm 2,9 UV-I 330 W/m 15,2 C 4,8 km/h (1 Bft)
17.08.2016 16:14 19,7 C 19,8 C 74 % 1010,5 hPa 0,0 mm 3,3 km/h (1 Bft) N-NO 14 0 min 0,000 mm 3,3 UV-I 330 W/m 14,9 C 4,8 km/h (1 Bft)
17.08.2016 16:15 19,7 C 19,8 C 73 % 1010,5 hPa 0,0 mm 3,7 km/h (1 Bft) N-NW 339 0 min 0,000 mm 2,9 UV-I 279 W/m 14,7 C 4,8 km/h (1 Bft)
17.08.2016 16:16 19,7 C 19,7 C 74 % 1010,5 hPa 0,0 mm 2,7 km/h (1 Bft) N-NW 339 1 min 0,000 mm 2,6 UV-I 352 W/m 14,9 C 4,8 km/h (1 Bft)
17.08.2016 16:17 19,8 C 19,8 C 74 % 1010,5 hPa 0,0 mm 1,1 km/h (1 Bft) N-NW 339 0 min 0,000 mm 2,7 UV-I 316 W/m 15,0 C 1,6 km/h (1 Bft)
17.08.2016 16:18 19,7 C 19,8 C 75 % 1010,5 hPa 0,0 mm 1,2 km/h (1 Bft) N-NW 338 0 min 0,000 mm 2,7 UV-I 309 W/m 15,1 C 3,2 km/h (1 Bft)
17.08.2016 16:19 19,7 C 19,7 C 74 % 1010,5 hPa 0,0 mm 2,3 km/h (1 Bft) W-NW 290 0 min 0,000 mm 2,8 UV-I 251 W/m 14,9 C 4,8 km/h (1 Bft)
17.08.2016 16:20 19,6 C 19,7 C 75 % 1010,5 hPa 0,0 mm 2,7 km/h (1 Bft) NW 312 0 min 0,000 mm 2,7 UV-I 225 W/m 15,0 C 4,8 km/h (1 Bft)
17.08.2016 16:21 19,6 C 19,6 C 75 % 1010,4 hPa 0,0 mm 2,6 km/h (1 Bft) N-NO 13 0 min 0,000 mm 2,4 UV-I 195 W/m 15,0 C 4,8 km/h (1 Bft)
17.08.2016 16:22 19,6 C 19,6 C 76 % 1010,4 hPa 0,0 mm 4,1 km/h (1 Bft) N-NO 21 0 min 0,000 mm 2,3 UV-I 185 W/m 15,2 C 6,4 km/h (2 Bft)
17.08.2016 16:23 19,6 C 19,6 C 75 % 1010,4 hPa 0,0 mm 3,5 km/h (1 Bft) N-NO 25 0 min 0,000 mm 2,2 UV-I 174 W/m 15,0 C 4,8 km/h (1 Bft)
17.08.2016 16:24 19,7 C 19,7 C 76 % 1010,4 hPa 0,0 mm 3,5 km/h (1 Bft) NO 44 0 min 0,000 mm 2,2 UV-I 176 W/m 15,3 C 4,8 km/h (1 Bft)
17.08.2016 16:25 19,7 C 19,7 C 76 % 1010,4 hPa 0,0 mm 2,8 km/h (1 Bft) N 5 0 min 0,000 mm 2,2 UV-I 178 W/m 15,3 C 4,8 km/h (1 Bft)
17.08.2016 16:26 19,7 C 19,7 C 76 % 1010,4 hPa 0,0 mm 2,5 km/h (1 Bft) N 9 0 min 0,000 mm 2,2 UV-I 188 W/m 15,3 C 3,2 km/h (1 Bft)
17.08.2016 16:27 19,7 C 19,7 C 78 % 1010,4 hPa 0,0 mm 0,7 km/h (0 Bft) N 9 0 min 0,000 mm 2,2 UV-I 195 W/m 15,8 C 1,6 km/h (1 Bft)
17.08.2016 16:28 19,7 C 19,7 C 76 % 1010,5 hPa 0,0 mm 0,0 km/h (0 Bft) N-NO 30 0 min 0,000 mm 2,3 UV-I 207 W/m 15,3 C 0,0 km/h (0 Bft)
17.08.2016 16:29 19,6 C 19,7 C 76 % 1010,4 hPa 0,0 mm 0,0 km/h (0 Bft) N-NO 30 0 min 0,000 mm 2,3 UV-I 206 W/m 15,2 C 0,0 km/h (0 Bft)
17.08.2016 16:30 19,6 C 19,6 C 76 % 1010,5 hPa 0,0 mm 0,0 km/h (0 Bft) N-NO 30 0 min 0,000 mm 2,2 UV-I 197 W/m 15,2 C 0,0 km/h (0 Bft)
17.08.2016 16:31 19,6 C 19,6 C 78 % 1010,5 hPa 0,0 mm 0,0 km/h (0 Bft) N-NO 30 0 min 0,000 mm 2,1 UV-I 185 W/m 15,7 C 0,0 km/h (0 Bft)
17.08.2016 16:32 19,6 C 19,6 C 78 % 1010,4 hPa 0,0 mm 0,0 km/h (0 Bft) N-NO 32 0 min 0,000 mm 2,1 UV-I 185 W/m 15,7 C 0,0 km/h (0 Bft)
17.08.2016 16:33 19,5 C 19,6 C 80 % 1010,5 hPa 0,0 mm 0,0 km/h (0 Bft) N-NO 32 0 min 0,000 mm 2,2 UV-I 199 W/m 16,0 C 0,0 km/h (0 Bft)
17.08.2016 16:34 19,4 C 19,5 C 77 % 1010,5 hPa 0,0 mm 0,0 km/h (0 Bft) N-NO 32 0 min 0,000 mm 2,3 UV-I 216 W/m 15,3 C 0,0 km/h (0 Bft)
17.08.2016 16:35 19,4 C 19,4 C 77 % 1010,5 hPa 0,0 mm 0,0 km/h (0 Bft) N-NO 32 0 min 0,000 mm 2,4 UV-I 243 W/m 15,3 C 0,0 km/h (0 Bft)
17.08.2016 16:36 19,6 C 19,6 C 78 % 1010,4 hPa 0,0 mm 0,0 km/h (0 Bft) N-NO 32 0 min 0,000 mm 2,6 UV-I 269 W/m 15,7 C 0,0 km/h (0 Bft)
17.08.2016 16:37 19,7 C 19,7 C 78 % 1010,5 hPa 0,0 mm 0,0 km/h (0 Bft) N-NO 32 0 min 0,000 mm 2,5 UV-I 251 W/m 15,8 C 0,0 km/h (0 Bft)
17.08.2016 16:38 19,7 C 19,7 C 75 % 1010,4 hPa 0,0 mm 0,4 km/h (0 Bft) NW 322 0 min 0,000 mm 2,5 UV-I 237 W/m 15,1 C 1,6 km/h (1 Bft)
17.08.2016 16:39 19,8 C 19,8 C 76 % 1010,4 hPa 0,0 mm 3,2 km/h (1 Bft) W 279 0 min 0,000 mm 2,5 UV-I 229 W/m 15,4 C 4,8 km/h (1 Bft)
17.08.2016 16:40 19,8 C 19,8 C 76 % 1010,4 hPa 0,0 mm 4,5 km/h (1 Bft) W-SW 257 0 min 0,000 mm 2,5 UV-I 223 W/m 15,4 C 6,4 km/h (2 Bft)
17.08.2016 16:41 19,9 C 19,9 C 76 % 1010,4 hPa 0,0 mm 2,5 km/h (1 Bft) W-SW 257 0 min 0,000 mm 2,5 UV-I 220 W/m 15,5 C 4,8 km/h (1 Bft)
17.08.2016 16:42 19,8 C 19,9 C 74 % 1010,4 hPa 0,0 mm 0,7 km/h (0 Bft) W-SW 257 0 min 0,000 mm 2,5 UV-I 216 W/m 15,0 C 1,6 km/h (1 Bft)
17.08.2016 16:43 19,8 C 19,9 C 74 % 1010,4 hPa 0,0 mm 2,3 km/h (1 Bft) W 263 0 min 0,000 mm 2,4 UV-I 214 W/m 15,0 C 3,2 km/h (1 Bft)
17.08.2016 16:44 19,9 C 19,9 C 74 % 1010,4 hPa 0,0 mm 0,7 km/h (0 Bft) W 263 0 min 0,000 mm 2,4 UV-I 214 W/m 15,1 C 1,6 km/h (1 Bft)
17.08.2016 16:45 19,9 C 19,9 C 73 % 1010,4 hPa 0,0 mm 0,2 km/h (0 Bft) W 263 0 min 0,000 mm 2,4 UV-I 216 W/m 14,9 C 1,6 km/h (1 Bft)
17.08.2016 16:46 19,9 C 19,9 C 74 % 1010,3 hPa 0,0 mm 0,1 km/h (0 Bft) W 263 0 min 0,000 mm 2,4 UV-I 211 W/m 15,1 C 1,6 km/h (1 Bft)
17.08.2016 16:47 19,9 C 19,9 C 74 % 1010,3 hPa 0,0 mm 0,2 km/h (0 Bft) W 263 0 min 0,000 mm 2,4 UV-I 206 W/m 15,1 C 1,6 km/h (1 Bft)
17.08.2016 16:48 19,9 C 19,9 C 74 % 1010,3 hPa 0,0 mm 2,7 km/h (1 Bft) W 273 0 min 0,000 mm 2,3 UV-I 206 W/m 15,1 C 9,7 km/h (2 Bft)
17.08.2016 16:49 20,0 C 20,0 C 75 % 1010,3 hPa 0,0 mm 5,8 km/h (2 Bft) W-SW 253 0 min 0,000 mm 2,3 UV-I 193 W/m 15,4 C 8,0 km/h (2 Bft)
17.08.2016 16:50 20,0 C 20,0 C 72 % 1010,3 hPa 0,0 mm 8,2 km/h (2 Bft) W-SW 253 0 min 0,000 mm 2,2 UV-I 190 W/m 14,8 C 12,9 km/h (3 Bft)
17.08.2016 16:51 20,0 C 20,0 C 72 % 1010,3 hPa 0,0 mm 3,6 km/h (1 Bft) W-SW 253 0 min 0,000 mm 2,2 UV-I 188 W/m 14,8 C 4,8 km/h (1 Bft)
17.08.2016 16:52 20,0 C 20,0 C 75 % 1010,3 hPa 0,0 mm 1,1 km/h (1 Bft) S-SW 193 0 min 0,000 mm 2,1 UV-I 188 W/m 15,4 C 3,2 km/h (1 Bft)
17.08.2016 16:53 19,9 C 20,0 C 71 % 1010,3 hPa 0,0 mm 3,1 km/h (1 Bft) S 174 0 min 0,000 mm 2,1 UV-I 206 W/m 14,5 C 4,8 km/h (1 Bft)
17.08.2016 16:54 19,9 C 20,0 C 71 % 1010,3 hPa 0,0 mm 1,4 km/h (1 Bft) S 174 0 min 0,000 mm 2,1 UV-I 218 W/m 14,5 C 3,2 km/h (1 Bft)
17.08.2016 16:55 19,9 C 19,9 C 72 % 1010,3 hPa 0,0 mm 0,2 km/h (0 Bft) S 174 0 min 0,000 mm 2,1 UV-I 248 W/m 14,7 C 1,6 km/h (1 Bft)
17.08.2016 16:56 19,9 C 20,0 C 73 % 1010,3 hPa 0,0 mm 0,9 km/h (0 Bft) W 275 0 min 0,000 mm 2,2 UV-I 251 W/m 14,9 C 3,2 km/h (1 Bft)
17.08.2016 16:57 20,0 C 20,0 C 72 % 1010,3 hPa 0,0 mm 2,6 km/h (1 Bft) W 275 0 min 0,000 mm 2,2 UV-I 250 W/m 14,8 C 4,8 km/h (1 Bft)
17.08.2016 16:58 20,1 C 20,1 C 72 % 1010,3 hPa 0,0 mm 2,5 km/h (1 Bft) NW 325 0 min 0,000 mm 2,2 UV-I 253 W/m 14,9 C 4,8 km/h (1 Bft)
17.08.2016 16:59 20,3 C 20,3 C 72 % 1010,3 hPa 0,0 mm 4,2 km/h (1 Bft) N-NW 333 0 min 0,000 mm 2,2 UV-I 251 W/m 15,1 C 4,8 km/h (1 Bft)
17.08.2016 17:00 20,3 C 20,3 C 71 % 1010,3 hPa 0,0 mm 0,7 km/h (0 Bft) N-NW 333 0 min 0,000 mm 2,2 UV-I 250 W/m 14,9 C 3,2 km/h (1 Bft)
17.08.2016 17:01 20,3 C 20,3 C 72 % 1010,3 hPa 0,0 mm 0,9 km/h (0 Bft) N-NW 333 0 min 0,152 mm 2,2 UV-I 234 W/m 15,1 C 3,2 km/h (1 Bft)
17.08.2016 17:02 20,4 C 20,4 C 73 % 1010,3 hPa 0,0 mm 2,3 km/h (1 Bft) N-NW 333 0 min 0,001 mm 2,1 UV-I 230 W/m 15,4 C 3,2 km/h (1 Bft)
17.08.2016 17:03 20,4 C 20,4 C 72 % 1010,3 hPa 0,0 mm 3,7 km/h (1 Bft) NW 315 0 min 0,000 mm 2,1 UV-I 220 W/m 15,2 C 6,4 km/h (2 Bft)
17.08.2016 17:04 20,5 C 20,5 C 73 % 1010,3 hPa 0,0 mm 11,3 km/h (2 Bft) N-NW 337 0 min 0,000 mm 2,1 UV-I 207 W/m 15,5 C 19,3 km/h (3 Bft)
17.08.2016 17:05 20,7 C 20,7 C 74 % 1010,2 hPa 0,0 mm 9,5 km/h (2 Bft) W-SW 250 0 min 0,000 mm 2,0 UV-I 197 W/m 15,9 C 16,1 km/h (3 Bft)
17.08.2016 17:06 20,7 C 20,7 C 72 % 1010,2 hPa 0,0 mm 6,2 km/h (2 Bft) W-NW 286 0 min 0,000 mm 2,0 UV-I 197 W/m 15,5 C 9,7 km/h (2 Bft)
17.08.2016 17:07 20,7 C 20,7 C 72 % 1010,2 hPa 0,0 mm 4,1 km/h (1 Bft) W-SW 254 0 min 0,000 mm 2,0 UV-I 167 W/m 15,5 C 8,0 km/h (2 Bft)
17.08.2016 17:08 20,7 C 20,7 C 70 % 1010,2 hPa 0,0 mm 5,6 km/h (1 Bft) W 281 0 min 0,000 mm 1,9 UV-I 167 W/m 15,0 C 9,7 km/h (2 Bft)
17.08.2016 17:09 20,7 C 20,7 C 71 % 1010,2 hPa 0,0 mm 3,5 km/h (1 Bft) SW 228 0 min 0,000 mm 1,9 UV-I 146 W/m 15,2 C 4,8 km/h (1 Bft)
17.08.2016 17:10 20,7 C 20,7 C 73 % 1010,2 hPa 0,0 mm 5,4 km/h (1 Bft) W 278 0 min 0,000 mm 1,9 UV-I 146 W/m 15,7 C 9,7 km/h (2 Bft)
17.08.2016 17:11 20,7 C 20,7 C 72 % 1010,2 hPa 0,0 mm 3,8 km/h (1 Bft) S 182 0 min 0,000 mm 1,9 UV-I 151 W/m 15,5 C 8,0 km/h (2 Bft)
17.08.2016 17:12 20,6 C 20,7 C 71 % 1010,2 hPa 0,0 mm 3,7 km/h (1 Bft) W 265 0 min 0,000 mm 1,8 UV-I 149 W/m 15,2 C 6,4 km/h (2 Bft)
17.08.2016 17:13 20,6 C 20,7 C 74 % 1010,2 hPa 0,0 mm 6,4 km/h (2 Bft) W-SW 255 0 min 0,000 mm 1,8 UV-I 127 W/m 15,8 C 9,7 km/h (2 Bft)
17.08.2016 17:14 20,5 C 20,6 C 72 % 1010,2 hPa 0,0 mm 4,8 km/h (1 Bft) W 265 0 min 0,000 mm 1,7 UV-I 121 W/m 15,3 C 6,4 km/h (2 Bft)
17.08.2016 17:15 20,4 C 20,5 C 70 % 1010,2 hPa 0,0 mm 4,0 km/h (1 Bft) W-SW 240 0 min 0,000 mm 1,6 UV-I 118 W/m 14,7 C 4,8 km/h (1 Bft)
17.08.2016 17:16 20,3 C 20,4 C 73 % 1010,2 hPa 0,0 mm 3,9 km/h (1 Bft) W-NW 302 0 min 0,000 mm 1,6 UV-I 116 W/m 15,3 C 6,4 km/h (2 Bft)
17.08.2016 17:17 20,2 C 20,3 C 72 % 1010,2 hPa 0,0 mm 3,9 km/h (1 Bft) W-NW 295 0 min 0,000 mm 1,6 UV-I 118 W/m 15,0 C 9,7 km/h (2 Bft)
17.08.2016 17:18 20,1 C 20,2 C 72 % 1010,2 hPa 0,0 mm 3,2 km/h (1 Bft) W-SW 250 0 min 0,000 mm 1,6 UV-I 118 W/m 14,9 C 6,4 km/h (2 Bft)
17.08.2016 17:19 20,0 C 20,1 C 75 % 1010,2 hPa 0,0 mm 4,9 km/h (1 Bft) W-SW 257 0 min 0,000 mm 1,6 UV-I 114 W/m 15,4 C 8,0 km/h (2 Bft)
17.08.2016 17:20 19,9 C 20,0 C 76 % 1010,2 hPa 0,0 mm 5,3 km/h (1 Bft) W 261 0 min 0,000 mm 1,5 UV-I 114 W/m 15,5 C 9,7 km/h (2 Bft)
17.08.2016 17:21 19,9 C 19,9 C 75 % 1010,2 hPa 0,0 mm 2,8 km/h (1 Bft) W-SW 257 0 min 0,000 mm 1,5 UV-I 114 W/m 15,3 C 4,8 km/h (1 Bft)
17.08.2016 17:22 19,8 C 19,9 C 75 % 1010,1 hPa 0,0 mm 4,6 km/h (1 Bft) W 261 0 min 0,000 mm 1,5 UV-I 113 W/m 15,2 C 6,4 km/h (2 Bft)
17.08.2016 17:23 19,8 C 19,8 C 75 % 1010,2 hPa 0,0 mm 2,3 km/h (1 Bft) W-SW 250 0 min 0,000 mm 1,5 UV-I 113 W/m 15,2 C 4,8 km/h (1 Bft)
17.08.2016 17:24 19,8 C 19,8 C 75 % 1010,2 hPa 0,0 mm 0,9 km/h (0 Bft) W-SW 250 0 min 0,000 mm 1,5 UV-I 113 W/m 15,2 C 1,6 km/h (1 Bft)
17.08.2016 17:25 19,8 C 19,8 C 75 % 1010,2 hPa 0,0 mm 4,8 km/h (1 Bft) W-SW 239 0 min 0,000 mm 1,5 UV-I 109 W/m 15,2 C 6,4 km/h (2 Bft)
17.08.2016 17:26 19,8 C 19,8 C 76 % 1010,2 hPa 0,0 mm 3,9 km/h (1 Bft) W-SW 250 0 min 0,000 mm 1,5 UV-I 111 W/m 15,4 C 6,4 km/h (2 Bft)
17.08.2016 17:27 19,7 C 19,8 C 77 % 1010,2 hPa 0,0 mm 1,7 km/h (1 Bft) W-SW 257 0 min 0,000 mm 1,5 UV-I 118 W/m 15,5 C 3,2 km/h (1 Bft)
17.08.2016 17:28 19,8 C 19,8 C 74 % 1010,1 hPa 0,0 mm 1,9 km/h (1 Bft) SW 232 0 min 0,000 mm 1,5 UV-I 111 W/m 15,0 C 4,8 km/h (1 Bft)
17.08.2016 17:29 19,8 C 19,8 C 76 % 1010,1 hPa 0,0 mm 1,9 km/h (1 Bft) W-SW 242 0 min 0,000 mm 1,4 UV-I 98 W/m 15,4 C 3,2 km/h (1 Bft)
17.08.2016 17:30 19,8 C 19,8 C 77 % 1010,1 hPa 0,0 mm 4,1 km/h (1 Bft) W-SW 240 0 min 0,000 mm 1,4 UV-I 84 W/m 15,6 C 6,4 km/h (2 Bft)
17.08.2016 17:31 19,8 C 19,8 C 75 % 1010,1 hPa 0,0 mm 5,3 km/h (1 Bft) W-SW 246 0 min 0,000 mm 1,3 UV-I 83 W/m 15,2 C 6,4 km/h (2 Bft)
17.08.2016 17:32 19,8 C 19,8 C 75 % 1010,1 hPa 0,0 mm 4,9 km/h (1 Bft) SW 236 0 min 0,000 mm 1,3 UV-I 79 W/m 15,2 C 6,4 km/h (2 Bft)
17.08.2016 17:33 19,7 C 19,8 C 75 % 1010,1 hPa 0,0 mm 3,0 km/h (1 Bft) SW 219 0 min 0,000 mm 1,3 UV-I 77 W/m 15,1 C 6,4 km/h (2 Bft)
17.08.2016 17:34 19,7 C 19,7 C 75 % 1010,1 hPa 0,0 mm 1,4 km/h (1 Bft) W 281 0 min 0,000 mm 1,2 UV-I 74 W/m 15,1 C 4,8 km/h (1 Bft)
17.08.2016 17:35 19,6 C 19,7 C 75 % 1010,1 hPa 0,0 mm 1,4 km/h (1 Bft) W 269 0 min 0,000 mm 1,2 UV-I 76 W/m 15,0 C 3,2 km/h (1 Bft)
17.08.2016 17:36 19,6 C 19,6 C 76 % 1010,1 hPa 0,0 mm 1,2 km/h (1 Bft) W 269 0 min 0,000 mm 1,2 UV-I 83 W/m 15,2 C 3,2 km/h (1 Bft)
17.08.2016 17:37 19,6 C 19,6 C 76 % 1010,1 hPa 0,0 mm 0,2 km/h (0 Bft) W 269 0 min 0,000 mm 1,2 UV-I 84 W/m 15,2 C 1,6 km/h (1 Bft)
17.08.2016 17:38 19,4 C 19,6 C 76 % 1010,0 hPa 0,0 mm 2,3 km/h (1 Bft) W 269 0 min 0,000 mm 1,3 UV-I 86 W/m 15,1 C 3,2 km/h (1 Bft)
17.08.2016 17:39 19,3 C 19,4 C 79 % 1010,0 hPa 0,0 mm 0,6 km/h (0 Bft) W 269 0 min 0,000 mm 1,3 UV-I 86 W/m 15,6 C 1,6 km/h (1 Bft)
17.08.2016 17:40 19,3 C 19,4 C 78 % 1010,0 hPa 0,0 mm 0,1 km/h (0 Bft) W 269 0 min 0,000 mm 1,3 UV-I 93 W/m 15,4 C 1,6 km/h (1 Bft)
17.08.2016 17:41 19,3 C 19,3 C 78 % 1010,0 hPa 0,0 mm 0,9 km/h (0 Bft) W 269 0 min 0,000 mm 1,3 UV-I 86 W/m 15,4 C 3,2 km/h (1 Bft)
17.08.2016 17:42 19,2 C 19,3 C 80 % 1010,0 hPa 0,0 mm 1,4 km/h (1 Bft) W 269 0 min 0,000 mm 1,2 UV-I 86 W/m 15,7 C 3,2 km/h (1 Bft)
17.08.2016 17:43 19,2 C 19,2 C 81 % 1010,0 hPa 0,0 mm 0,7 km/h (0 Bft) W 269 0 min 0,000 mm 1,2 UV-I 91 W/m 15,9 C 1,6 km/h (1 Bft)
17.08.2016 17:44 19,1 C 19,2 C 80 % 1010,0 hPa 0,0 mm 0,7 km/h (0 Bft) W 269 0 min 0,000 mm 1,3 UV-I 86 W/m 15,6 C 1,6 km/h (1 Bft)
17.08.2016 17:45 19,1 C 19,2 C 80 % 1010,0 hPa 0,0 mm 1,3 km/h (1 Bft) W 269 0 min 0,000 mm 1,3 UV-I 86 W/m 15,6 C 1,6 km/h (1 Bft)
17.08.2016 17:46 19,2 C 19,2 C 81 % 1010,0 hPa 0,0 mm 0,8 km/h (0 Bft) W 269 0 min 0,000 mm 1,3 UV-I 88 W/m 15,9 C 1,6 km/h (1 Bft)
17.08.2016 17:47 19,2 C 19,2 C 82 % 1010,0 hPa 0,0 mm 0,8 km/h (0 Bft) W 269 0 min 0,000 mm 1,3 UV-I 109 W/m 16,0 C 1,6 km/h (1 Bft)
17.08.2016 17:48 19,3 C 19,3 C 78 % 1010,0 hPa 0,0 mm 2,4 km/h (1 Bft) W 279 0 min 0,000 mm 1,2 UV-I 70 W/m 15,4 C 4,8 km/h (1 Bft)
17.08.2016 17:49 19,4 C 19,4 C 75 % 1010,0 hPa 0,0 mm 1,6 km/h (1 Bft) W 275 0 min 0,000 mm 1,2 UV-I 63 W/m 14,8 C 3,2 km/h (1 Bft)
17.08.2016 17:50 19,5 C 19,5 C 76 % 1010,0 hPa 0,0 mm 2,7 km/h (1 Bft) NW 321 0 min 0,000 mm 1,1 UV-I 58 W/m 15,2 C 4,8 km/h (1 Bft)
17.08.2016 17:51 19,6 C 19,6 C 75 % 1010,0 hPa 0,0 mm 3,0 km/h (1 Bft) NW 320 0 min 0,000 mm 0,0 UV-I 54 W/m 15,0 C 4,8 km/h (1 Bft)
17.08.2016 17:52 19,7 C 19,7 C 75 % 1009,9 hPa 0,0 mm 2,9 km/h (1 Bft) NW 306 0 min 0,000 mm 0,0 UV-I 51 W/m 15,1 C 3,2 km/h (1 Bft)
17.08.2016 17:53 19,7 C 19,7 C 73 % 1009,9 hPa 0,0 mm 2,7 km/h (1 Bft) NW 306 0 min 0,000 mm 0,0 UV-I 49 W/m 14,7 C 3,2 km/h (1 Bft)
17.08.2016 17:54 19,7 C 19,7 C 74 % 1009,9 hPa 0,0 mm 1,1 km/h (1 Bft) NW 306 0 min 0,000 mm 0,0 UV-I 63 W/m 14,9 C 3,2 km/h (1 Bft)
17.08.2016 17:55 19,7 C 19,7 C 76 % 1009,9 hPa 0,0 mm 0,1 km/h (0 Bft) NW 306 0 min 0,000 mm 1,2 UV-I 67 W/m 15,3 C 1,6 km/h (1 Bft)
17.08.2016 17:56 19,7 C 19,7 C 76 % 1009,9 hPa 0,0 mm 0,2 km/h (0 Bft) NW 306 0 min 0,000 mm 1,1 UV-I 63 W/m 15,3 C 1,6 km/h (1 Bft)
17.08.2016 17:57 19,7 C 19,7 C 75 % 1009,9 hPa 0,0 mm 1,3 km/h (1 Bft) NW 304 0 min 0,000 mm 1,2 UV-I 69 W/m 15,1 C 3,2 km/h (1 Bft)
17.08.2016 17:58 19,6 C 19,7 C 79 % 1009,9 hPa 0,0 mm 0,9 km/h (0 Bft) NW 304 0 min 0,000 mm 1,1 UV-I 67 W/m 15,9 C 1,6 km/h (1 Bft)
17.08.2016 17:59 19,5 C 19,6 C 79 % 1009,9 hPa 0,0 mm 1,5 km/h (1 Bft) NW 304 0 min 0,000 mm 1,1 UV-I 65 W/m 15,8 C 1,6 km/h (1 Bft)
17.08.2016 18:00 19,4 C 19,5 C 79 % 1009,9 hPa 0,0 mm 1,0 km/h (0 Bft) NW 304 0 min 0,000 mm 1,1 UV-I 70 W/m 15,7 C 1,6 km/h (1 Bft)
17.08.2016 18:01 19,4 C 19,4 C 80 % 1009,9 hPa 0,0 mm 0,4 km/h (0 Bft) NW 304 0 min 0,076 mm 1,1 UV-I 72 W/m 15,9 C 1,6 km/h (1 Bft)
17.08.2016 18:02 19,4 C 19,4 C 77 % 1009,8 hPa 0,0 mm 0,4 km/h (0 Bft) NW 304 0 min 0,000 mm 1,1 UV-I 72 W/m 15,3 C 1,6 km/h (1 Bft)
17.08.2016 18:03 19,5 C 19,5 C 76 % 1009,8 hPa 0,0 mm 2,8 km/h (1 Bft) W-NW 303 0 min 0,000 mm 1,1 UV-I 72 W/m 15,2 C 4,8 km/h (1 Bft)
17.08.2016 18:04 19,7 C 19,7 C 75 % 1009,8 hPa 0,0 mm 3,4 km/h (1 Bft) W-NW 292 0 min 0,000 mm 1,1 UV-I 70 W/m 15,1 C 4,8 km/h (1 Bft)
17.08.2016 18:05 19,7 C 19,7 C 73 % 1009,9 hPa 0,0 mm 0,3 km/h (0 Bft) W-NW 292 0 min 0,000 mm 1,1 UV-I 69 W/m 14,7 C 1,6 km/h (1 Bft)
17.08.2016 18:06 19,8 C 19,8 C 72 % 1009,8 hPa 0,0 mm 0,3 km/h (0 Bft) W-NW 292 0 min 0,000 mm 1,1 UV-I 69 W/m 14,6 C 1,6 km/h (1 Bft)
17.08.2016 18:07 19,8 C 19,8 C 72 % 1009,9 hPa 0,0 mm 1,4 km/h (1 Bft) W-NW 292 0 min 0,000 mm 1,1 UV-I 70 W/m 14,6 C 1,6 km/h (1 Bft)
17.08.2016 18:08 19,8 C 19,8 C 73 % 1009,8 hPa 0,0 mm 0,7 km/h (0 Bft) W-NW 292 0 min 0,000 mm 1,1 UV-I 70 W/m 14,8 C 1,6 km/h (1 Bft)
17.08.2016 18:09 19,8 C 19,8 C 73 % 1009,8 hPa 0,0 mm 0,4 km/h (0 Bft) W-NW 292 0 min 0,000 mm 1,1 UV-I 74 W/m 14,8 C 1,6 km/h (1 Bft)
17.08.2016 18:10 19,8 C 19,8 C 73 % 1009,8 hPa 0,0 mm 1,5 km/h (1 Bft) W-NW 301 0 min 0,000 mm 1,1 UV-I 77 W/m 14,8 C 3,2 km/h (1 Bft)
17.08.2016 18:11 19,8 C 19,8 C 75 % 1009,9 hPa 0,0 mm 1,1 km/h (1 Bft) W-NW 301 0 min 0,000 mm 1,1 UV-I 77 W/m 15,2 C 1,6 km/h (1 Bft)
17.08.2016 18:12 19,8 C 19,8 C 74 % 1009,8 hPa 0,0 mm 3,0 km/h (1 Bft) W-NW 292 0 min 0,000 mm 1,1 UV-I 76 W/m 15,0 C 4,8 km/h (1 Bft)
17.08.2016 18:13 19,9 C 19,9 C 73 % 1009,8 hPa 0,0 mm 3,3 km/h (1 Bft) W-NW 294 0 min 0,000 mm 1,1 UV-I 77 W/m 14,9 C 4,8 km/h (1 Bft)
17.08.2016 18:14 20,0 C 20,0 C 72 % 1009,8 hPa 0,0 mm 3,3 km/h (1 Bft) NW 307 0 min 0,000 mm 1,0 UV-I 77 W/m 14,8 C 4,8 km/h (1 Bft)
17.08.2016 18:15 20,1 C 20,1 C 72 % 1009,8 hPa 0,0 mm 2,5 km/h (1 Bft) N-NW 337 0 min 0,000 mm 1,0 UV-I 77 W/m 14,9 C 3,2 km/h (1 Bft)
17.08.2016 18:16 20,1 C 20,1 C 72 % 1009,8 hPa 0,0 mm 2,0 km/h (1 Bft) NW 325 0 min 0,000 mm 1,0 UV-I 76 W/m 14,9 C 3,2 km/h (1 Bft)
17.08.2016 18:17 20,1 C 20,1 C 72 % 1009,8 hPa 0,0 mm 0,4 km/h (0 Bft) NW 325 0 min 0,000 mm 1,0 UV-I 86 W/m 14,9 C 1,6 km/h (1 Bft)
17.08.2016 18:18 20,1 C 20,1 C 72 % 1009,8 hPa 0,0 mm 1,6 km/h (1 Bft) NW 325 0 min 0,000 mm 1,0 UV-I 88 W/m 14,9 C 1,6 km/h (1 Bft)
17.08.2016 18:19 20,1 C 20,1 C 71 % 1009,8 hPa 0,0 mm 1,9 km/h (1 Bft) NW 304 0 min 0,000 mm 1,0 UV-I 88 W/m 14,7 C 3,2 km/h (1 Bft)
17.08.2016 18:20 20,1 C 20,1 C 72 % 1009,9 hPa 0,0 mm 1,6 km/h (1 Bft) NW 304 0 min 0,000 mm 1,0 UV-I 79 W/m 14,9 C 3,2 km/h (1 Bft)
17.08.2016 18:21 20,0 C 20,1 C 72 % 1009,8 hPa 0,0 mm 1,6 km/h (1 Bft) NW 304 0 min 0,000 mm 1,0 UV-I 74 W/m 14,8 C 3,2 km/h (1 Bft)
17.08.2016 18:22 20,0 C 20,1 C 74 % 1009,8 hPa 0,0 mm 1,5 km/h (1 Bft) NW 304 0 min 0,000 mm 1,0 UV-I 72 W/m 15,2 C 3,2 km/h (1 Bft)
17.08.2016 18:23 20,1 C 20,1 C 73 % 1009,9 hPa 0,0 mm 1,4 km/h (1 Bft) NW 304 0 min 0,000 mm 1,0 UV-I 70 W/m 15,1 C 3,2 km/h (1 Bft)
17.08.2016 18:24 20,1 C 20,1 C 73 % 1009,8 hPa 0,0 mm 1,7 km/h (1 Bft) NW 304 0 min 0,000 mm 1,0 UV-I 69 W/m 15,1 C 3,2 km/h (1 Bft)
17.08.2016 18:25 20,1 C 20,1 C 75 % 1009,8 hPa 0,0 mm 1,7 km/h (1 Bft) W 270 0 min 0,000 mm 0,9 UV-I 67 W/m 15,5 C 3,2 km/h (1 Bft)
17.08.2016 18:26 20,1 C 20,2 C 72 % 1009,8 hPa 0,0 mm 3,4 km/h (1 Bft) W 263 0 min 0,000 mm 0,9 UV-I 65 W/m 14,9 C 4,8 km/h (1 Bft)
17.08.2016 18:27 20,1 C 20,1 C 73 % 1009,8 hPa 0,0 mm 1,3 km/h (1 Bft) W 263 0 min 0,000 mm 0,9 UV-I 63 W/m 15,1 C 3,2 km/h (1 Bft)
17.08.2016 18:28 20,0 C 20,1 C 73 % 1009,8 hPa 0,0 mm 0,1 km/h (0 Bft) W 263 0 min 0,000 mm 0,9 UV-I 63 W/m 15,0 C 1,6 km/h (1 Bft)
17.08.2016 18:29 19,9 C 20,0 C 72 % 1009,8 hPa 0,0 mm 0,2 km/h (0 Bft) W 263 0 min 0,000 mm 0,9 UV-I 62 W/m 14,7 C 1,6 km/h (1 Bft)
17.08.2016 18:30 19,9 C 19,9 C 71 % 1009,7 hPa 0,0 mm 1,7 km/h (1 Bft) W 263 0 min 0,000 mm 0,9 UV-I 60 W/m 14,5 C 3,2 km/h (1 Bft)
17.08.2016 18:31 19,9 C 19,9 C 72 % 1009,8 hPa 0,0 mm 2,4 km/h (1 Bft) W 263 0 min 0,000 mm 0,9 UV-I 60 W/m 14,7 C 3,2 km/h (1 Bft)
17.08.2016 18:32 19,9 C 19,9 C 71 % 1009,8 hPa 0,0 mm 0,5 km/h (0 Bft) W 263 0 min 0,000 mm 0,9 UV-I 58 W/m 14,5 C 1,6 km/h (1 Bft)
17.08.2016 18:33 19,9 C 19,9 C 72 % 1009,8 hPa 0,0 mm 0,4 km/h (0 Bft) W 263 0 min 0,000 mm 0,8 UV-I 58 W/m 14,7 C 1,6 km/h (1 Bft)
17.08.2016 18:34 19,8 C 19,9 C 73 % 1009,8 hPa 0,0 mm 0,6 km/h (0 Bft) W 263 0 min 0,000 mm 0,8 UV-I 58 W/m 14,8 C 1,6 km/h (1 Bft)
17.08.2016 18:35 19,8 C 19,8 C 74 % 1009,8 hPa 0,0 mm 2,5 km/h (1 Bft) W 263 0 min 0,000 mm 0,8 UV-I 56 W/m 15,0 C 3,2 km/h (1 Bft)
17.08.2016 18:36 19,8 C 19,8 C 74 % 1009,8 hPa 0,0 mm 1,7 km/h (1 Bft) W 263 0 min 0,000 mm 0,8 UV-I 56 W/m 15,0 C 3,2 km/h (1 Bft)
17.08.2016 18:37 19,8 C 19,8 C 74 % 1009,8 hPa 0,0 mm 0,9 km/h (0 Bft) W 263 0 min 0,000 mm 0,0 UV-I 54 W/m 15,0 C 3,2 km/h (1 Bft)
17.08.2016 18:38 19,8 C 19,8 C 74 % 1009,8 hPa 0,0 mm 0,6 km/h (0 Bft) W 263 0 min 0,000 mm 0,0 UV-I 54 W/m 15,0 C 1,6 km/h (1 Bft)
17.08.2016 18:39 19,7 C 19,8 C 78 % 1009,8 hPa 0,0 mm 0,2 km/h (0 Bft) W 263 0 min 0,000 mm 0,0 UV-I 54 W/m 15,8 C 1,6 km/h (1 Bft)
17.08.2016 18:40 19,6 C 19,7 C 78 % 1009,8 hPa 0,0 mm 0,0 km/h (0 Bft) W 263 0 min 0,000 mm 0,0 UV-I 53 W/m 15,7 C 0,0 km/h (0 Bft)
17.08.2016 18:41 19,6 C 19,6 C 78 % 1009,8 hPa 0,0 mm 0,1 km/h (0 Bft) W 263 0 min 0,000 mm 0,0 UV-I 56 W/m 15,7 C 1,6 km/h (1 Bft)
17.08.2016 18:42 19,4 C 19,6 C 77 % 1009,8 hPa 0,0 mm 0,1 km/h (0 Bft) W 263 0 min 0,000 mm 0,7 UV-I 60 W/m 15,3 C 1,6 km/h (1 Bft)
17.08.2016 18:43 19,4 C 19,4 C 78 % 1009,8 hPa 0,0 mm 0,4 km/h (0 Bft) W 263 0 min 0,000 mm 0,0 UV-I 53 W/m 15,5 C 1,6 km/h (1 Bft)
17.08.2016 18:44 19,4 C 19,4 C 78 % 1009,8 hPa 0,0 mm 2,1 km/h (1 Bft) W 264 0 min 0,000 mm 0,0 UV-I 51 W/m 15,5 C 3,2 km/h (1 Bft)
17.08.2016 18:45 19,6 C 19,6 C 77 % 1009,8 hPa 0,0 mm 1,7 km/h (1 Bft) W 264 0 min 0,000 mm 0,0 UV-I 51 W/m 15,5 C 3,2 km/h (1 Bft)
17.08.2016 18:46 19,6 C 19,6 C 76 % 1009,8 hPa 0,0 mm 0,8 km/h (0 Bft) W 264 0 min 0,000 mm 0,0 UV-I 49 W/m 15,2 C 1,6 km/h (1 Bft)
17.08.2016 18:47 19,6 C 19,6 C 77 % 1009,8 hPa 0,0 mm 0,1 km/h (0 Bft) W 264 0 min 0,000 mm 0,0 UV-I 49 W/m 15,5 C 1,6 km/h (1 Bft)
17.08.2016 18:48 19,7 C 19,7 C 76 % 1009,8 hPa 0,0 mm 0,6 km/h (0 Bft) W 264 0 min 0,000 mm 0,0 UV-I 49 W/m 15,3 C 1,6 km/h (1 Bft)
17.08.2016 18:49 19,7 C 19,7 C 76 % 1009,8 hPa 0,0 mm 0,7 km/h (0 Bft) W 264 0 min 0,000 mm 0,0 UV-I 47 W/m 15,3 C 1,6 km/h (1 Bft)
17.08.2016 18:50 19,6 C 19,7 C 79 % 1009,7 hPa 0,0 mm 0,3 km/h (0 Bft) W 264 0 min 0,000 mm 0,0 UV-I 47 W/m 15,9 C 1,6 km/h (1 Bft)
17.08.2016 18:51 19,6 C 19,7 C 77 % 1009,7 hPa 0,0 mm 0,0 km/h (0 Bft) W 264 0 min 0,000 mm 0,0 UV-I 47 W/m 15,5 C 0,0 km/h (0 Bft)
17.08.2016 18:52 19,4 C 19,6 C 77 % 1009,7 hPa 0,0 mm 0,5 km/h (0 Bft) W 264 0 min 0,000 mm 0,0 UV-I 49 W/m 15,3 C 1,6 km/h (1 Bft)
17.08.2016 18:53 19,4 C 19,4 C 78 % 1009,7 hPa 0,0 mm 0,4 km/h (0 Bft) W 264 0 min 0,000 mm 0,0 UV-I 49 W/m 15,5 C 1,6 km/h (1 Bft)
17.08.2016 18:54 19,3 C 19,4 C 78 % 1009,8 hPa 0,0 mm 0,0 km/h (0 Bft) W 264 0 min 0,000 mm 0,0 UV-I 47 W/m 15,4 C 0,0 km/h (0 Bft)
17.08.2016 18:55 19,3 C 19,3 C 78 % 1009,7 hPa 0,0 mm 0,1 km/h (0 Bft) W 264 0 min 0,000 mm 0,0 UV-I 47 W/m 15,4 C 1,6 km/h (1 Bft)
17.08.2016 18:56 19,3 C 19,3 C 79 % 1009,7 hPa 0,0 mm 0,6 km/h (0 Bft) W 264 0 min 0,000 mm 0,0 UV-I 47 W/m 15,6 C 1,6 km/h (1 Bft)
17.08.2016 18:57 19,2 C 19,3 C 79 % 1009,7 hPa 0,0 mm 0,9 km/h (0 Bft) W 264 0 min 0,000 mm 0,0 UV-I 47 W/m 15,5 C 3,2 km/h (1 Bft)
17.08.2016 18:58 19,2 C 19,2 C 77 % 1009,8 hPa 0,0 mm 0,0 km/h (0 Bft) W 264 0 min 0,000 mm 0,0 UV-I 47 W/m 15,1 C 0,0 km/h (0 Bft)
17.08.2016 18:59 19,2 C 19,3 C 78 % 1009,7 hPa 0,0 mm 0,0 km/h (0 Bft) W 264 0 min 0,000 mm 0,0 UV-I 49 W/m 15,3 C 0,0 km/h (0 Bft)
17.08.2016 19:00 19,1 C 19,2 C 80 % 1009,7 hPa 0,0 mm 0,0 km/h (0 Bft) W 264 0 min 0,000 mm 0,0 UV-I 49 W/m 15,6 C 0,0 km/h (0 Bft)
17.08.2016 19:01 19,1 C 19,1 C 80 % 1009,7 hPa 0,0 mm 0,1 km/h (0 Bft) W 264 0 min 0,051 mm 0,0 UV-I 49 W/m 15,6 C 1,6 km/h (1 Bft)
17.08.2016 19:02 19,1 C 19,1 C 80 % 1009,7 hPa 0,0 mm 0,6 km/h (0 Bft) W 264 0 min 0,000 mm 0,0 UV-I 51 W/m 15,6 C 1,6 km/h (1 Bft)
17.08.2016 19:03 19,1 C 19,1 C 79 % 1009,7 hPa 0,0 mm 0,1 km/h (0 Bft) W 264 0 min 0,000 mm 0,0 UV-I 49 W/m 15,4 C 1,6 km/h (1 Bft)
17.08.2016 19:04 19,0 C 19,1 C 79 % 1009,8 hPa 0,0 mm 0,1 km/h (0 Bft) W 264 0 min 0,000 mm 0,0 UV-I 49 W/m 15,3 C 1,6 km/h (1 Bft)
17.08.2016 19:05 18,9 C 19,0 C 79 % 1009,7 hPa 0,0 mm 0,2 km/h (0 Bft) W 264 0 min 0,000 mm 0,0 UV-I 51 W/m 15,2 C 1,6 km/h (1 Bft)
17.08.2016 19:06 18,9 C 19,0 C 79 % 1009,7 hPa 0,0 mm 0,1 km/h (0 Bft) W 264 0 min 0,000 mm 0,0 UV-I 51 W/m 15,2 C 1,6 km/h (1 Bft)
17.08.2016 19:07 18,9 C 18,9 C 80 % 1009,7 hPa 0,0 mm 0,0 km/h (0 Bft) W 264 0 min 0,000 mm 0,0 UV-I 51 W/m 15,4 C 0,0 km/h (0 Bft)
17.08.2016 19:08 18,9 C 18,9 C 79 % 1009,7 hPa 0,0 mm 0,2 km/h (0 Bft) W 264 0 min 0,000 mm 0,0 UV-I 53 W/m 15,2 C 1,6 km/h (1 Bft)
17.08.2016 19:09 18,8 C 18,9 C 80 % 1009,8 hPa 0,0 mm 0,1 km/h (0 Bft) W 264 0 min 0,000 mm 0,0 UV-I 54 W/m 15,3 C 1,6 km/h (1 Bft)
17.08.2016 19:10 18,8 C 18,8 C 81 % 1009,8 hPa 0,0 mm 0,1 km/h (0 Bft) W 264 0 min 0,000 mm 0,5 UV-I 58 W/m 15,5 C 1,6 km/h (1 Bft)
17.08.2016 19:11 18,7 C 18,8 C 82 % 1009,8 hPa 0,0 mm 0,0 km/h (0 Bft) W 264 0 min 0,000 mm 0,0 UV-I 60 W/m 15,6 C 0,0 km/h (0 Bft)
17.08.2016 19:12 18,7 C 18,7 C 81 % 1009,8 hPa 0,0 mm 0,0 km/h (0 Bft) W 264 0 min 0,000 mm 0,0 UV-I 60 W/m 15,4 C 0,0 km/h (0 Bft)
17.08.2016 19:13 18,6 C 18,7 C 82 % 1009,8 hPa 0,0 mm 0,4 km/h (0 Bft) W 264 0 min 0,000 mm 0,0 UV-I 58 W/m 15,5 C 1,6 km/h (1 Bft)
17.08.2016 19:14 18,6 C 18,6 C 82 % 1009,8 hPa 0,0 mm 0,6 km/h (0 Bft) W 264 0 min 0,000 mm 0,0 UV-I 58 W/m 15,5 C 1,6 km/h (1 Bft)
17.08.2016 19:15 18,6 C 18,6 C 82 % 1009,7 hPa 0,0 mm 1,3 km/h (1 Bft) W 264 0 min 0,000 mm 0,0 UV-I 58 W/m 15,5 C 3,2 km/h (1 Bft)
17.08.2016 19:16 18,4 C 18,6 C 82 % 1009,7 hPa 0,0 mm 1,7 km/h (1 Bft) W 264 0 min 0,000 mm 0,0 UV-I 54 W/m 15,3 C 3,2 km/h (1 Bft)
17.08.2016 19:17 18,4 C 18,4 C 83 % 1009,7 hPa 0,0 mm 1,3 km/h (1 Bft) W 264 0 min 0,000 mm 0,0 UV-I 51 W/m 15,5 C 1,6 km/h (1 Bft)
17.08.2016 19:18 18,3 C 18,4 C 83 % 1009,8 hPa 0,0 mm 0,4 km/h (0 Bft) W 264 0 min 0,000 mm 0,0 UV-I 47 W/m 15,4 C 1,6 km/h (1 Bft)
17.08.2016 19:19 18,3 C 18,3 C 83 % 1009,7 hPa 0,0 mm 1,3 km/h (1 Bft) W 264 0 min 0,000 mm 0,0 UV-I 42 W/m 15,4 C 1,6 km/h (1 Bft)
17.08.2016 19:20 18,3 C 18,4 C 83 % 1009,8 hPa 0,0 mm 0,5 km/h (0 Bft) W 264 0 min 0,000 mm 0,0 UV-I 39 W/m 15,4 C 1,6 km/h (1 Bft)
17.08.2016 19:21 18,3 C 18,3 C 85 % 1009,8 hPa 0,0 mm 2,1 km/h (1 Bft) W 264 0 min 0,000 mm 0,0 UV-I 37 W/m 15,7 C 3,2 km/h (1 Bft)
17.08.2016 19:22 18,2 C 18,3 C 84 % 1009,7 hPa 0,0 mm 1,3 km/h (1 Bft) W 264 0 min 0,000 mm 0,0 UV-I 33 W/m 15,4 C 3,2 km/h (1 Bft)
17.08.2016 19:23 18,2 C 18,2 C 84 % 1009,7 hPa 0,0 mm 0,5 km/h (0 Bft) W 264 0 min 0,000 mm 0,0 UV-I 33 W/m 15,4 C 1,6 km/h (1 Bft)
17.08.2016 19:24 18,1 C 18,2 C 84 % 1009,7 hPa 0,0 mm 0,0 km/h (0 Bft) W 264 0 min 0,000 mm 0,0 UV-I 32 W/m 15,4 C 0,0 km/h (0 Bft)
17.08.2016 19:25 18,1 C 18,1 C 84 % 1009,7 hPa 0,0 mm 0,3 km/h (0 Bft) W 264 0 min 0,000 mm 0,0 UV-I 30 W/m 15,4 C 1,6 km/h (1 Bft)
17.08.2016 19:26 18,0 C 18,1 C 84 % 1009,8 hPa 0,0 mm 0,1 km/h (0 Bft) W 264 0 min 0,000 mm 0,0 UV-I 26 W/m 15,3 C 1,6 km/h (1 Bft)
17.08.2016 19:27 18,1 C 18,1 C 84 % 1009,8 hPa 0,0 mm 0,4 km/h (0 Bft) W 264 0 min 0,000 mm 0,0 UV-I 23 W/m 15,4 C 1,6 km/h (1 Bft)
17.08.2016 19:28 18,0 C 18,1 C 84 % 1009,8 hPa 0,0 mm 1,1 km/h (1 Bft) W 264 0 min 0,000 mm 0,0 UV-I 19 W/m 15,3 C 1,6 km/h (1 Bft)
17.08.2016 19:29 17,9 C 18,0 C 84 % 1009,8 hPa 0,0 mm 2,3 km/h (1 Bft) W 263 0 min 0,000 mm 0,0 UV-I 18 W/m 15,2 C 3,2 km/h (1 Bft)
17.08.2016 19:30 17,9 C 17,9 C 85 % 1009,8 hPa 0,0 mm 2,1 km/h (1 Bft) W 263 0 min 0,000 mm 0,0 UV-I 18 W/m 15,3 C 3,2 km/h (1 Bft)
17.08.2016 19:31 17,9 C 17,9 C 85 % 1009,8 hPa 0,0 mm 1,5 km/h (1 Bft) W 263 0 min 0,000 mm 0,0 UV-I 16 W/m 15,3 C 3,2 km/h (1 Bft)
17.08.2016 19:32 17,9 C 17,9 C 85 % 1009,8 hPa 0,0 mm 1,6 km/h (1 Bft) W 263 0 min 0,000 mm 0,0 UV-I 16 W/m 15,3 C 3,2 km/h (1 Bft)
17.08.2016 19:33 17,9 C 17,9 C 84 % 1009,7 hPa 0,0 mm 2,5 km/h (1 Bft) W 263 0 min 0,000 mm 0,0 UV-I 16 W/m 15,2 C 3,2 km/h (1 Bft)
17.08.2016 19:34 17,9 C 17,9 C 84 % 1009,8 hPa 0,0 mm 2,3 km/h (1 Bft) W 263 0 min 0,000 mm 0,0 UV-I 16 W/m 15,2 C 3,2 km/h (1 Bft)
17.08.2016 19:35 17,9 C 17,9 C 84 % 1009,8 hPa 0,0 mm 3,0 km/h (1 Bft) W-SW 258 0 min 0,000 mm 0,0 UV-I 14 W/m 15,2 C 4,8 km/h (1 Bft)
17.08.2016 19:36 17,9 C 17,9 C 85 % 1009,8 hPa 0,0 mm 3,2 km/h (1 Bft) W-SW 258 0 min 0,000 mm 0,0 UV-I 18 W/m 15,3 C 4,8 km/h (1 Bft)
17.08.2016 19:37 17,9 C 17,9 C 85 % 1009,8 hPa 0,0 mm 2,2 km/h (1 Bft) SW 230 0 min 0,000 mm 0,0 UV-I 18 W/m 15,3 C 3,2 km/h (1 Bft)
17.08.2016 19:38 17,8 C 17,9 C 85 % 1009,7 hPa 0,0 mm 2,1 km/h (1 Bft) S-SW 198 0 min 0,000 mm 0,0 UV-I 21 W/m 15,2 C 3,2 km/h (1 Bft)
17.08.2016 19:39 17,8 C 17,8 C 85 % 1009,7 hPa 0,0 mm 3,2 km/h (1 Bft) S 188 0 min 0,000 mm 0,0 UV-I 21 W/m 15,2 C 4,8 km/h (1 Bft)
17.08.2016 19:40 17,8 C 17,8 C 85 % 1009,8 hPa 0,0 mm 2,5 km/h (1 Bft) S 188 0 min 0,000 mm 0,0 UV-I 14 W/m 15,2 C 4,8 km/h (1 Bft)
17.08.2016 19:41 17,8 C 17,8 C 85 % 1009,8 hPa 0,0 mm 2,4 km/h (1 Bft) S 188 0 min 0,000 mm 0,0 UV-I 14 W/m 15,2 C 3,2 km/h (1 Bft)
17.08.2016 19:42 17,8 C 17,8 C 85 % 1009,8 hPa 0,0 mm 2,1 km/h (1 Bft) S 188 0 min 0,000 mm 0,0 UV-I 16 W/m 15,2 C 3,2 km/h (1 Bft)
17.08.2016 19:43 17,8 C 17,8 C 85 % 1009,9 hPa 0,0 mm 1,7 km/h (1 Bft) S 188 0 min 0,000 mm 0,0 UV-I 16 W/m 15,2 C 3,2 km/h (1 Bft)
17.08.2016 19:44 17,7 C 17,8 C 85 % 1009,8 hPa 0,0 mm 3,4 km/h (1 Bft) S 188 0 min 0,000 mm 0,0 UV-I 18 W/m 15,1 C 4,8 km/h (1 Bft)
17.08.2016 19:45 17,7 C 17,7 C 85 % 1009,8 hPa 0,0 mm 3,6 km/h (1 Bft) S 188 0 min 0,000 mm 0,0 UV-I 18 W/m 15,1 C 4,8 km/h (1 Bft)
17.08.2016 19:46 17,7 C 17,7 C 85 % 1009,8 hPa 0,0 mm 2,5 km/h (1 Bft) S 182 0 min 0,000 mm 0,0 UV-I 18 W/m 15,1 C 4,8 km/h (1 Bft)
17.08.2016 19:47 17,6 C 17,7 C 85 % 1009,8 hPa 0,0 mm 2,8 km/h (1 Bft) S 182 0 min 0,000 mm 0,0 UV-I 18 W/m 15,0 C 4,8 km/h (1 Bft)
17.08.2016 19:48 17,6 C 17,6 C 85 % 1009,8 hPa 0,0 mm 2,9 km/h (1 Bft) S 182 0 min 0,000 mm 0,0 UV-I 18 W/m 15,0 C 3,2 km/h (1 Bft)
17.08.2016 19:49 17,5 C 17,6 C 85 % 1009,8 hPa 0,0 mm 2,1 km/h (1 Bft) S 182 0 min 0,000 mm 0,0 UV-I 18 W/m 14,9 C 3,2 km/h (1 Bft)
17.08.2016 19:50 17,5 C 17,5 C 86 % 1009,8 hPa 0,0 mm 2,5 km/h (1 Bft) S 182 0 min 0,000 mm 0,0 UV-I 19 W/m 15,1 C 3,2 km/h (1 Bft)
17.08.2016 19:51 17,4 C 17,5 C 86 % 1009,8 hPa 0,0 mm 1,9 km/h (1 Bft) S 182 0 min 0,000 mm 0,0 UV-I 19 W/m 15,0 C 3,2 km/h (1 Bft)
17.08.2016 19:52 17,4 C 17,4 C 86 % 1009,9 hPa 0,0 mm 2,1 km/h (1 Bft) S 182 0 min 0,000 mm 0,0 UV-I 19 W/m 15,0 C 3,2 km/h (1 Bft)
17.08.2016 19:53 17,3 C 17,4 C 86 % 1009,8 hPa 0,0 mm 1,4 km/h (1 Bft) S 182 0 min 0,000 mm 0,0 UV-I 19 W/m 14,9 C 3,2 km/h (1 Bft)
17.08.2016 19:54 17,3 C 17,3 C 86 % 1009,8 hPa 0,0 mm 1,7 km/h (1 Bft) S 182 0 min 0,000 mm 0,0 UV-I 19 W/m 14,9 C 3,2 km/h (1 Bft)
17.08.2016 19:55 17,3 C 17,3 C 87 % 1009,8 hPa 0,0 mm 0,4 km/h (0 Bft) S 182 0 min 0,000 mm 0,0 UV-I 19 W/m 15,1 C 1,6 km/h (1 Bft)
17.08.2016 19:56 17,2 C 17,3 C 87 % 1009,9 hPa 0,0 mm 1,8 km/h (1 Bft) S 182 0 min 0,000 mm 0,0 UV-I 19 W/m 15,0 C 3,2 km/h (1 Bft)
17.08.2016 19:57 17,2 C 17,2 C 87 % 1009,8 hPa 0,0 mm 0,7 km/h (0 Bft) S 182 0 min 0,000 mm 0,0 UV-I 19 W/m 15,0 C 1,6 km/h (1 Bft)
17.08.2016 19:58 17,2 C 17,2 C 87 % 1009,8 hPa 0,0 mm 1,3 km/h (1 Bft) S 182 0 min 0,000 mm 0,0 UV-I 19 W/m 15,0 C 3,2 km/h (1 Bft)
17.08.2016 19:59 17,2 C 17,2 C 87 % 1009,8 hPa 0,0 mm 0,3 km/h (0 Bft) S 182 0 min 0,000 mm 0,0 UV-I 19 W/m 15,0 C 1,6 km/h (1 Bft)
17.08.2016 20:00 17,2 C 17,2 C 87 % 1009,9 hPa 0,0 mm 0,5 km/h (0 Bft) S 182 0 min 0,000 mm 0,0 UV-I 18 W/m 15,0 C 1,6 km/h (1 Bft)
17.08.2016 20:01 17,2 C 17,2 C 88 % 1009,9 hPa 0,0 mm 0,6 km/h (0 Bft) S 182 0 min 0,025 mm 0,0 UV-I 18 W/m 15,2 C 1,6 km/h (1 Bft)
17.08.2016 20:02 17,1 C 17,2 C 88 % 1009,9 hPa 0,0 mm 0,2 km/h (0 Bft) S 182 0 min 0,000 mm 0,0 UV-I 16 W/m 15,1 C 1,6 km/h (1 Bft)
17.08.2016 20:03 17,1 C 17,1 C 88 % 1009,9 hPa 0,0 mm 0,1 km/h (0 Bft) S 182 0 min 0,000 mm 0,0 UV-I 16 W/m 15,1 C 1,6 km/h (1 Bft)
17.08.2016 20:04 17,1 C 17,1 C 87 % 1009,9 hPa 0,0 mm 1,2 km/h (1 Bft) S 182 0 min 0,000 mm 0,0 UV-I 14 W/m 14,9 C 1,6 km/h (1 Bft)
17.08.2016 20:05 17,1 C 17,1 C 87 % 1009,9 hPa 0,0 mm 0,6 km/h (0 Bft) S 182 0 min 0,000 mm 0,0 UV-I 14 W/m 14,9 C 1,6 km/h (1 Bft)
17.08.2016 20:06 17,1 C 17,1 C 88 % 1009,9 hPa 0,0 mm 1,3 km/h (1 Bft) S 182 0 min 0,000 mm 0,0 UV-I 12 W/m 15,1 C 1,6 km/h (1 Bft)
17.08.2016 20:07 17,1 C 17,1 C 87 % 1009,9 hPa 0,0 mm 0,5 km/h (0 Bft) S 182 0 min 0,000 mm 0,0 UV-I 12 W/m 14,9 C 1,6 km/h (1 Bft)
17.08.2016 20:08 17,1 C 17,1 C 87 % 1009,9 hPa 0,0 mm 0,7 km/h (0 Bft) S 182 0 min 0,000 mm 0,0 UV-I 11 W/m 14,9 C 1,6 km/h (1 Bft)
17.08.2016 20:09 17,0 C 17,1 C 87 % 1009,9 hPa 0,0 mm 0,7 km/h (0 Bft) S 182 0 min 0,000 mm 0,0 UV-I 11 W/m 14,8 C 1,6 km/h (1 Bft)
17.08.2016 20:10 17,1 C 17,1 C 87 % 1009,9 hPa 0,0 mm 0,7 km/h (0 Bft) S 182 0 min 0,000 mm 0,0 UV-I 9 W/m 14,9 C 1,6 km/h (1 Bft)
17.08.2016 20:11 17,1 C 17,1 C 87 % 1009,9 hPa 0,0 mm 0,6 km/h (0 Bft) S 182 0 min 0,000 mm 0,0 UV-I 9 W/m 14,9 C 1,6 km/h (1 Bft)
17.08.2016 20:12 17,0 C 17,1 C 87 % 1009,9 hPa 0,0 mm 0,7 km/h (0 Bft) S 182 0 min 0,000 mm 0,0 UV-I 9 W/m 14,8 C 1,6 km/h (1 Bft)
17.08.2016 20:13 17,0 C 17,1 C 87 % 1009,9 hPa 0,0 mm 0,8 km/h (0 Bft) S 182 0 min 0,000 mm 0,0 UV-I 7 W/m 14,8 C 1,6 km/h (1 Bft)
17.08.2016 20:14 17,0 C 17,0 C 87 % 1009,9 hPa 0,0 mm 0,9 km/h (0 Bft) S 182 0 min 0,000 mm 0,0 UV-I 7 W/m 14,8 C 3,2 km/h (1 Bft)
17.08.2016 20:15 16,9 C 17,0 C 87 % 1009,9 hPa 0,0 mm 0,4 km/h (0 Bft) S 182 0 min 0,000 mm 0,0 UV-I 7 W/m 14,7 C 1,6 km/h (1 Bft)
17.08.2016 20:16 16,9 C 16,9 C 87 % 1009,9 hPa 0,0 mm 0,5 km/h (0 Bft) S 182 0 min 0,000 mm 0,0 UV-I 5 W/m 14,7 C 1,6 km/h (1 Bft)
17.08.2016 20:17 16,9 C 16,9 C 87 % 1009,9 hPa 0,0 mm 0,0 km/h (0 Bft) S 182 0 min 0,000 mm 0,0 UV-I 5 W/m 14,7 C 0,0 km/h (0 Bft)
17.08.2016 20:18 16,9 C 16,9 C 87 % 1009,9 hPa 0,0 mm 0,0 km/h (0 Bft) S 182 0 min 0,000 mm 0,0 UV-I 0 W/m 14,7 C 0,0 km/h (0 Bft)
17.08.2016 20:19 16,8 C 16,9 C 87 % 1009,9 hPa 0,0 mm 0,0 km/h (0 Bft) S 182 0 min 0,000 mm 0,0 UV-I 0 W/m 14,6 C 0,0 km/h (0 Bft)
17.08.2016 20:20 16,8 C 16,8 C 87 % 1010,0 hPa 0,0 mm 0,0 km/h (0 Bft) S 182 0 min 0,000 mm 0,0 UV-I 0 W/m 14,6 C 0,0 km/h (0 Bft)
17.08.2016 20:21 16,7 C 16,8 C 88 % 1009,9 hPa 0,0 mm 0,0 km/h (0 Bft) S 182 0 min 0,000 mm 0,0 UV-I 0 W/m 14,7 C 0,0 km/h (0 Bft)
17.08.2016 20:22 16,7 C 16,7 C 88 % 1010,0 hPa 0,0 mm 0,0 km/h (0 Bft) S 182 0 min 0,000 mm 0,0 UV-I 0 W/m 14,7 C 0,0 km/h (0 Bft)
17.08.2016 20:23 16,6 C 16,7 C 88 % 1010,0 hPa 0,0 mm 0,0 km/h (0 Bft) S 182 0 min 0,000 mm 0,0 UV-I 0 W/m 14,6 C 0,0 km/h (0 Bft)
17.08.2016 20:24 16,6 C 16,6 C 88 % 1010,0 hPa 0,0 mm 0,0 km/h (0 Bft) S 182 0 min 0,000 mm 0,0 UV-I 0 W/m 14,6 C 0,0 km/h (0 Bft)
17.08.2016 20:25 16,6 C 16,6 C 88 % 1010,0 hPa 0,0 mm 0,0 km/h (0 Bft) S 182 0 min 0,000 mm 0,0 UV-I 0 W/m 14,6 C 0,0 km/h (0 Bft)
17.08.2016 20:26 16,6 C 16,6 C 88 % 1010,0 hPa 0,0 mm 0,0 km/h (0 Bft) S 182 0 min 0,000 mm 0,0 UV-I 0 W/m 14,6 C 0,0 km/h (0 Bft)
17.08.2016 20:27 16,6 C 16,6 C 88 % 1010,0 hPa 0,0 mm 0,0 km/h (0 Bft) S 182 0 min 0,000 mm 0,0 UV-I 0 W/m 14,6 C 0,0 km/h (0 Bft)
17.08.2016 20:28 16,6 C 16,6 C 88 % 1010,0 hPa 0,0 mm 0,2 km/h (0 Bft) S 182 0 min 0,000 mm 0,0 UV-I 0 W/m 14,6 C 1,6 km/h (1 Bft)
17.08.2016 20:29 16,6 C 16,6 C 88 % 1010,0 hPa 0,0 mm 1,1 km/h (1 Bft) S 182 0 min 0,000 mm 0,0 UV-I 0 W/m 14,6 C 1,6 km/h (1 Bft)
17.08.2016 20:30 16,6 C 16,6 C 88 % 1010,0 hPa 0,0 mm 1,6 km/h (1 Bft) S 182 0 min 0,000 mm 0,0 UV-I 0 W/m 14,6 C 1,6 km/h (1 Bft)
17.08.2016 20:31 16,6 C 16,6 C 88 % 1010,0 hPa 0,0 mm 1,6 km/h (1 Bft) S 182 0 min 0,000 mm 0,0 UV-I 0 W/m 14,6 C 1,6 km/h (1 Bft)
17.08.2016 20:32 16,6 C 16,6 C 88 % 1010,1 hPa 0,0 mm 1,2 km/h (1 Bft) S 182 0 min 0,000 mm 0,0 UV-I 0 W/m 14,6 C 1,6 km/h (1 Bft)
17.08.2016 20:33 16,6 C 16,6 C 88 % 1010,0 hPa 0,0 mm 0,3 km/h (0 Bft) S 182 0 min 0,000 mm 0,0 UV-I 0 W/m 14,6 C 1,6 km/h (1 Bft)
17.08.2016 20:34 16,6 C 16,6 C 88 % 1010,0 hPa 0,0 mm 0,0 km/h (0 Bft) S 182 0 min 0,000 mm 0,0 UV-I 0 W/m 14,6 C 0,0 km/h (0 Bft)
17.08.2016 20:35 16,6 C 16,6 C 88 % 1010,1 hPa 0,0 mm 0,0 km/h (0 Bft) S 182 0 min 0,000 mm 0,0 UV-I 0 W/m 14,6 C 0,0 km/h (0 Bft)
17.08.2016 20:36 16,6 C 16,6 C 88 % 1010,0 hPa 0,0 mm 0,0 km/h (0 Bft) S 182 0 min 0,000 mm 0,0 UV-I 0 W/m 14,6 C 0,0 km/h (0 Bft)
17.08.2016 20:37 16,5 C 16,6 C 89 % 1010,1 hPa 0,0 mm 0,1 km/h (0 Bft) S 182 0 min 0,000 mm 0,0 UV-I 0 W/m 14,7 C 1,6 km/h (1 Bft)
17.08.2016 20:38 16,4 C 16,5 C 89 % 1010,1 hPa 0,0 mm 0,3 km/h (0 Bft) S 182 0 min 0,000 mm 0,0 UV-I 0 W/m 14,6 C 1,6 km/h (1 Bft)
17.08.2016 20:39 16,4 C 16,4 C 89 % 1010,2 hPa 0,0 mm 0,9 km/h (0 Bft) S 182 0 min 0,000 mm 0,0 UV-I 0 W/m 14,6 C 1,6 km/h (1 Bft)
17.08.2016 20:40 16,3 C 16,4 C 89 % 1010,2 hPa 0,0 mm 1,1 km/h (1 Bft) S 182 0 min 0,000 mm 0,0 UV-I 0 W/m 14,5 C 1,6 km/h (1 Bft)
17.08.2016 20:41 16,4 C 16,4 C 89 % 1010,2 hPa 0,0 mm 1,1 km/h (1 Bft) S 182 0 min 0,000 mm 0,0 UV-I 0 W/m 14,6 C 1,6 km/h (1 Bft)
17.08.2016 20:42 16,4 C 16,4 C 89 % 1010,2 hPa 0,0 mm 0,7 km/h (0 Bft) S 182 0 min 0,000 mm 0,0 UV-I 0 W/m 14,6 C 1,6 km/h (1 Bft)
17.08.2016 20:43 16,5 C 16,5 C 89 % 1010,2 hPa 0,0 mm 0,0 km/h (0 Bft) S 182 0 min 0,000 mm 0,0 UV-I 0 W/m 14,7 C 0,0 km/h (0 Bft)
17.08.2016 20:44 16,5 C 16,5 C 89 % 1010,2 hPa 0,0 mm 0,0 km/h (0 Bft) S 182 0 min 0,000 mm 0,0 UV-I 0 W/m 14,7 C 0,0 km/h (0 Bft)
17.08.2016 20:45 16,4 C 16,5 C 90 % 1010,2 hPa 0,0 mm 0,0 km/h (0 Bft) S 182 0 min 0,000 mm 0,0 UV-I 0 W/m 14,8 C 0,0 km/h (0 Bft)
17.08.2016 20:46 16,4 C 16,4 C 89 % 1010,2 hPa 0,0 mm 0,0 km/h (0 Bft) S 182 0 min 0,000 mm 0,0 UV-I 0 W/m 14,6 C 0,0 km/h (0 Bft)
17.08.2016 20:47 16,4 C 16,4 C 90 % 1010,2 hPa 0,0 mm 0,0 km/h (0 Bft) S 182 0 min 0,000 mm 0,0 UV-I 0 W/m 14,8 C 0,0 km/h (0 Bft)
17.08.2016 20:48 16,3 C 16,4 C 90 % 1010,2 hPa 0,0 mm 0,0 km/h (0 Bft) S 182 0 min 0,000 mm 0,0 UV-I 0 W/m 14,7 C 0,0 km/h (0 Bft)
17.08.2016 20:49 16,3 C 16,4 C 90 % 1010,2 hPa 0,0 mm 0,0 km/h (0 Bft) S 182 0 min 0,000 mm 0,0 UV-I 0 W/m 14,7 C 0,0 km/h (0 Bft)
17.08.2016 20:50 16,3 C 16,4 C 89 % 1010,2 hPa 0,0 mm 0,0 km/h (0 Bft) S 182 0 min 0,000 mm 0,0 UV-I 0 W/m 14,5 C 0,0 km/h (0 Bft)
17.08.2016 20:51 16,4 C 16,4 C 89 % 1010,1 hPa 0,0 mm 0,0 km/h (0 Bft) S 182 0 min 0,000 mm 0,0 UV-I 0 W/m 14,6 C 0,0 km/h (0 Bft)
17.08.2016 20:52 16,4 C 16,4 C 89 % 1010,2 hPa 0,0 mm 0,6 km/h (0 Bft) S 182 0 min 0,000 mm 0,0 UV-I 0 W/m 14,6 C 1,6 km/h (1 Bft)
17.08.2016 20:53 16,4 C 16,4 C 89 % 1010,2 hPa 0,0 mm 1,0 km/h (0 Bft) S 182 0 min 0,000 mm 0,0 UV-I 0 W/m 14,6 C 1,6 km/h (1 Bft)
17.08.2016 20:54 16,4 C 16,5 C 89 % 1010,2 hPa 0,0 mm 0,1 km/h (0 Bft) S 182 0 min 0,000 mm 0,0 UV-I 0 W/m 14,6 C 1,6 km/h (1 Bft)
17.08.2016 20:55 16,5 C 16,5 C 89 % 1010,2 hPa 0,0 mm 0,0 km/h (0 Bft) S 182 0 min 0,000 mm 0,0 UV-I 0 W/m 14,7 C 0,0 km/h (0 Bft)
17.08.2016 20:56 16,5 C 16,5 C 89 % 1010,2 hPa 0,0 mm 0,2 km/h (0 Bft) S 182 0 min 0,000 mm 0,0 UV-I 0 W/m 14,7 C 1,6 km/h (1 Bft)
17.08.2016 20:57 16,4 C 16,5 C 89 % 1010,2 hPa 0,0 mm 0,5 km/h (0 Bft) S 182 0 min 0,000 mm 0,0 UV-I 0 W/m 14,6 C 1,6 km/h (1 Bft)
17.08.2016 20:58 16,4 C 16,5 C 89 % 1010,2 hPa 0,0 mm 0,0 km/h (0 Bft) S 182 0 min 0,000 mm 0,0 UV-I 0 W/m 14,6 C 0,0 km/h (0 Bft)
17.08.2016 20:59 16,4 C 16,5 C 89 % 1010,2 hPa 0,0 mm 0,0 km/h (0 Bft) S 182 0 min 0,000 mm 0,0 UV-I 0 W/m 14,6 C 0,0 km/h (0 Bft)
17.08.2016 21:00 16,4 C 16,5 C 90 % 1010,2 hPa 0,0 mm 0,0 km/h (0 Bft) S 182 0 min 0,000 mm 0,0 UV-I 0 W/m 14,8 C 0,0 km/h (0 Bft)
17.08.2016 21:01 16,4 C 16,4 C 90 % 1010,2 hPa 0,0 mm 0,0 km/h (0 Bft) S 182 0 min 0,000 mm 0,0 UV-I 0 W/m 14,8 C 0,0 km/h (0 Bft)
17.08.2016 21:02 16,4 C 16,5 C 89 % 1010,2 hPa 0,0 mm 0,0 km/h (0 Bft) S 182 0 min 0,000 mm 0,0 UV-I 0 W/m 14,6 C 0,0 km/h (0 Bft)
17.08.2016 21:03 16,4 C 16,4 C 89 % 1010,3 hPa 0,0 mm 0,6 km/h (0 Bft) S 182 0 min 0,000 mm 0,0 UV-I 0 W/m 14,6 C 1,6 km/h (1 Bft)
17.08.2016 21:04 16,4 C 16,4 C 90 % 1010,3 hPa 0,0 mm 1,5 km/h (1 Bft) S 182 0 min 0,000 mm 0,0 UV-I 0 W/m 14,8 C 1,6 km/h (1 Bft)
17.08.2016 21:05 16,4 C 16,4 C 90 % 1010,3 hPa 0,0 mm 1,7 km/h (1 Bft) S 182 0 min 0,000 mm 0,0 UV-I 0 W/m 14,8 C 3,2 km/h (1 Bft)
17.08.2016 21:06 16,4 C 16,4 C 90 % 1010,3 hPa 0,0 mm 0,2 km/h (0 Bft) S 182 0 min 0,000 mm 0,0 UV-I 0 W/m 14,8 C 1,6 km/h (1 Bft)
17.08.2016 21:07 16,3 C 16,4 C 90 % 1010,3 hPa 0,0 mm 0,0 km/h (0 Bft) S 182 0 min 0,000 mm 0,0 UV-I 0 W/m 14,7 C 0,0 km/h (0 Bft)
17.08.2016 21:08 16,3 C 16,4 C 90 % 1010,3 hPa 0,0 mm 0,0 km/h (0 Bft) S 182 0 min 0,000 mm 0,0 UV-I 0 W/m 14,7 C 0,0 km/h (0 Bft)
17.08.2016 21:09 16,3 C 16,3 C 90 % 1010,3 hPa 0,0 mm 0,0 km/h (0 Bft) S 182 0 min 0,000 mm 0,0 UV-I 0 W/m 14,7 C 0,0 km/h (0 Bft)
17.08.2016 21:10 16,4 C 16,4 C 90 % 1010,3 hPa 0,0 mm 0,0 km/h (0 Bft) S 182 0 min 0,000 mm 0,0 UV-I 0 W/m 14,8 C 0,0 km/h (0 Bft)
17.08.2016 21:11 16,4 C 16,4 C 90 % 1010,3 hPa 0,0 mm 0,1 km/h (0 Bft) S 182 0 min 0,000 mm 0,0 UV-I 0 W/m 14,8 C 1,6 km/h (1 Bft)
17.08.2016 21:12 16,4 C 16,4 C 90 % 1010,3 hPa 0,0 mm 0,5 km/h (0 Bft) S 182 0 min 0,000 mm 0,0 UV-I 0 W/m 14,8 C 1,6 km/h (1 Bft)
17.08.2016 21:13 16,4 C 16,4 C 90 % 1010,3 hPa 0,0 mm 0,3 km/h (0 Bft) S 182 0 min 0,000 mm 0,0 UV-I 0 W/m 14,8 C 1,6 km/h (1 Bft)
17.08.2016 21:14 16,4 C 16,4 C 90 % 1010,3 hPa 0,0 mm 0,0 km/h (0 Bft) S 182 0 min 0,000 mm 0,0 UV-I 0 W/m 14,8 C 0,0 km/h (0 Bft)
17.08.2016 21:15 16,4 C 16,4 C 90 % 1010,3 hPa 0,0 mm 0,0 km/h (0 Bft) S 182 0 min 0,000 mm 0,0 UV-I 0 W/m 14,8 C 0,0 km/h (0 Bft)
17.08.2016 21:16 16,4 C 16,4 C 90 % 1010,3 hPa 0,0 mm 0,1 km/h (0 Bft) S 182 0 min 0,000 mm 0,0 UV-I 0 W/m 14,8 C 1,6 km/h (1 Bft)
17.08.2016 21:17 16,4 C 16,4 C 90 % 1010,3 hPa 0,0 mm 1,3 km/h (1 Bft) S 182 0 min 0,000 mm 0,0 UV-I 0 W/m 14,8 C 3,2 km/h (1 Bft)
17.08.2016 21:18 16,4 C 16,4 C 89 % 1010,3 hPa 0,0 mm 1,5 km/h (1 Bft) S 182 0 min 0,000 mm 0,0 UV-I 0 W/m 14,6 C 3,2 km/h (1 Bft)
17.08.2016 21:19 16,4 C 16,4 C 89 % 1010,3 hPa 0,0 mm 1,7 km/h (1 Bft) S 182 0 min 0,000 mm 0,0 UV-I 0 W/m 14,6 C 3,2 km/h (1 Bft)
17.08.2016 21:20 16,5 C 16,5 C 89 % 1010,2 hPa 0,0 mm 2,2 km/h (1 Bft) S 182 0 min 0,000 mm 0,0 UV-I 0 W/m 14,7 C 3,2 km/h (1 Bft)
17.08.2016 21:21 16,5 C 16,6 C 89 % 1010,3 hPa 0,0 mm 2,3 km/h (1 Bft) S 182 0 min 0,000 mm 0,0 UV-I 0 W/m 14,7 C 3,2 km/h (1 Bft)
17.08.2016 21:22 16,5 C 16,6 C 89 % 1010,2 hPa 0,0 mm 0,9 km/h (0 Bft) S 182 0 min 0,000 mm 0,0 UV-I 0 W/m 14,7 C 1,6 km/h (1 Bft)
17.08.2016 21:23 16,5 C 16,5 C 89 % 1010,2 hPa 0,0 mm 0,4 km/h (0 Bft) S 182 0 min 0,000 mm 0,0 UV-I 0 W/m 14,7 C 1,6 km/h (1 Bft)
17.08.2016 21:24 16,4 C 16,5 C 90 % 1010,3 hPa 0,0 mm 2,0 km/h (1 Bft) S 182 0 min 0,000 mm 0,0 UV-I 0 W/m 14,8 C 3,2 km/h (1 Bft)
17.08.2016 21:25 16,3 C 16,4 C 90 % 1010,2 hPa 0,0 mm 1,8 km/h (1 Bft) S 182 0 min 0,000 mm 0,0 UV-I 0 W/m 14,7 C 3,2 km/h (1 Bft)
17.08.2016 21:26 16,3 C 16,3 C 90 % 1010,3 hPa 0,0 mm 1,0 km/h (0 Bft) S 182 0 min 0,000 mm 0,0 UV-I 0 W/m 14,7 C 1,6 km/h (1 Bft)
17.08.2016 21:27 16,3 C 16,3 C 90 % 1010,3 hPa 0,0 mm 0,8 km/h (0 Bft) S 182 0 min 0,000 mm 0,0 UV-I 0 W/m 14,7 C 1,6 km/h (1 Bft)
17.08.2016 21:28 16,3 C 16,3 C 90 % 1010,3 hPa 0,0 mm 0,0 km/h (0 Bft) S 182 0 min 0,000 mm 0,0 UV-I 0 W/m 14,7 C 0,0 km/h (0 Bft)
17.08.2016 21:29 16,3 C 16,3 C 90 % 1010,3 hPa 0,0 mm 0,0 km/h (0 Bft) S 182 0 min 0,000 mm 0,0 UV-I 0 W/m 14,7 C 0,0 km/h (0 Bft)
17.08.2016 21:30 16,3 C 16,3 C 90 % 1010,3 hPa 0,0 mm 0,0 km/h (0 Bft) S 182 0 min 0,000 mm 0,0 UV-I 0 W/m 14,7 C 0,0 km/h (0 Bft)
17.08.2016 21:31 16,3 C 16,3 C 90 % 1010,3 hPa 0,0 mm 0,0 km/h (0 Bft) S 182 0 min 0,000 mm 0,0 UV-I 0 W/m 14,7 C 0,0 km/h (0 Bft)
17.08.2016 21:32 16,2 C 16,3 C 90 % 1010,3 hPa 0,0 mm 0,0 km/h (0 Bft) S 182 0 min 0,000 mm 0,0 UV-I 0 W/m 14,6 C 0,0 km/h (0 Bft)
17.08.2016 21:33 16,2 C 16,2 C 91 % 1010,3 hPa 0,0 mm 0,0 km/h (0 Bft) S 182 0 min 0,000 mm 0,0 UV-I 0 W/m 14,7 C 0,0 km/h (0 Bft)
17.08.2016 21:34 16,2 C 16,2 C 91 % 1010,3 hPa 0,0 mm 0,0 km/h (0 Bft) S 182 0 min 0,000 mm 0,0 UV-I 0 W/m 14,7 C 0,0 km/h (0 Bft)
17.08.2016 21:35 16,2 C 16,2 C 91 % 1010,3 hPa 0,0 mm 0,0 km/h (0 Bft) S 182 0 min 0,000 mm 0,0 UV-I 0 W/m 14,7 C 0,0 km/h (0 Bft)
17.08.2016 21:36 16,2 C 16,2 C 91 % 1010,3 hPa 0,0 mm 0,0 km/h (0 Bft) S 182 0 min 0,000 mm 0,0 UV-I 0 W/m 14,7 C 0,0 km/h (0 Bft)
17.08.2016 21:37 16,2 C 16,2 C 91 % 1010,3 hPa 0,0 mm 0,0 km/h (0 Bft) S 182 0 min 0,000 mm 0,0 UV-I 0 W/m 14,7 C 0,0 km/h (0 Bft)
17.08.2016 21:38 16,2 C 16,2 C 91 % 1010,3 hPa 0,0 mm 0,0 km/h (0 Bft) S 182 0 min 0,000 mm 0,0 UV-I 0 W/m 14,7 C 0,0 km/h (0 Bft)
17.08.2016 21:39 16,2 C 16,2 C 91 % 1010,3 hPa 0,0 mm 0,7 km/h (0 Bft) S 182 0 min 0,000 mm 0,0 UV-I 0 W/m 14,7 C 1,6 km/h (1 Bft)
17.08.2016 21:40 16,1 C 16,2 C 91 % 1010,2 hPa 0,0 mm 0,9 km/h (0 Bft) S 182 0 min 0,000 mm 0,0 UV-I 0 W/m 14,6 C 1,6 km/h (1 Bft)
17.08.2016 21:41 16,1 C 16,1 C 91 % 1010,2 hPa 0,0 mm 0,2 km/h (0 Bft) S 182 0 min 0,000 mm 0,0 UV-I 0 W/m 14,6 C 1,6 km/h (1 Bft)
17.08.2016 21:42 16,2 C 16,2 C 91 % 1010,3 hPa 0,0 mm 0,0 km/h (0 Bft) S 182 0 min 0,000 mm 0,0 UV-I 0 W/m 14,7 C 0,0 km/h (0 Bft)
17.08.2016 21:43 16,2 C 16,2 C 91 % 1010,2 hPa 0,0 mm 0,0 km/h (0 Bft) S 182 0 min 0,000 mm 0,0 UV-I 0 W/m 14,7 C 0,0 km/h (0 Bft)
17.08.2016 21:44 16,2 C 16,2 C 91 % 1010,3 hPa 0,0 mm 0,0 km/h (0 Bft) S 182 0 min 0,000 mm 0,0 UV-I 0 W/m 14,7 C 0,0 km/h (0 Bft)
17.08.2016 21:45 16,2 C 16,2 C 90 % 1010,2 hPa 0,0 mm 0,1 km/h (0 Bft) S 182 0 min 0,000 mm 0,0 UV-I 0 W/m 14,6 C 1,6 km/h (1 Bft)
17.08.2016 21:46 16,2 C 16,2 C 90 % 1010,3 hPa 0,0 mm 0,1 km/h (0 Bft) S 182 0 min 0,000 mm 0,0 UV-I 0 W/m 14,6 C 1,6 km/h (1 Bft)
17.08.2016 21:47 16,2 C 16,2 C 90 % 1010,3 hPa 0,0 mm 0,1 km/h (0 Bft) S 182 0 min 0,000 mm 0,0 UV-I 0 W/m 14,6 C 1,6 km/h (1 Bft)
17.08.2016 21:48 16,2 C 16,2 C 90 % 1010,2 hPa 0,0 mm 0,0 km/h (0 Bft) S 182 0 min 0,000 mm 0,0 UV-I 0 W/m 14,6 C 0,0 km/h (0 Bft)
17.08.2016 21:49 16,2 C 16,2 C 90 % 1010,3 hPa 0,0 mm 0,3 km/h (0 Bft) S 182 0 min 0,000 mm 0,0 UV-I 0 W/m 14,6 C 1,6 km/h (1 Bft)
17.08.2016 21:50 16,2 C 16,2 C 90 % 1010,2 hPa 0,0 mm 0,0 km/h (0 Bft) S 182 0 min 0,000 mm 0,0 UV-I 0 W/m 14,6 C 0,0 km/h (0 Bft)
17.08.2016 21:51 16,2 C 16,2 C 90 % 1010,3 hPa 0,0 mm 0,6 km/h (0 Bft) S 182 0 min 0,000 mm 0,0 UV-I 0 W/m 14,6 C 1,6 km/h (1 Bft)
17.08.2016 21:52 16,2 C 16,2 C 90 % 1010,2 hPa 0,0 mm 0,3 km/h (0 Bft) S 182 0 min 0,000 mm 0,0 UV-I 0 W/m 14,6 C 1,6 km/h (1 Bft)
17.08.2016 21:53 16,2 C 16,2 C 90 % 1010,2 hPa 0,0 mm 0,0 km/h (0 Bft) S 182 0 min 0,000 mm 0,0 UV-I 0 W/m 14,6 C 0,0 km/h (0 Bft)
17.08.2016 21:54 16,2 C 16,2 C 90 % 1010,2 hPa 0,0 mm 0,0 km/h (0 Bft) S 182 0 min 0,000 mm 0,0 UV-I 0 W/m 14,6 C 0,0 km/h (0 Bft)
17.08.2016 21:55 16,1 C 16,2 C 90 % 1010,1 hPa 0,0 mm 0,0 km/h (0 Bft) S 182 0 min 0,000 mm 0,0 UV-I 0 W/m 14,5 C 0,0 km/h (0 Bft)
17.08.2016 21:56 16,1 C 16,1 C 90 % 1010,2 hPa 0,0 mm 0,0 km/h (0 Bft) S 182 0 min 0,000 mm 0,0 UV-I 0 W/m 14,5 C 0,0 km/h (0 Bft)
17.08.2016 21:57 16,1 C 16,1 C 91 % 1010,1 hPa 0,0 mm 0,0 km/h (0 Bft) S 182 0 min 0,000 mm 0,0 UV-I 0 W/m 14,6 C 0,0 km/h (0 Bft)
17.08.2016 21:58 16,0 C 16,1 C 91 % 1010,1 hPa 0,0 mm 0,0 km/h (0 Bft) S 182 0 min 0,000 mm 0,0 UV-I 0 W/m 14,5 C 0,0 km/h (0 Bft)
17.08.2016 21:59 16,0 C 16,0 C 91 % 1010,1 hPa 0,0 mm 0,0 km/h (0 Bft) S 182 0 min 0,000 mm 0,0 UV-I 0 W/m 14,5 C 0,0 km/h (0 Bft)
17.08.2016 22:00 16,0 C 16,0 C 91 % 1010,1 hPa 0,0 mm 0,0 km/h (0 Bft) S 182 0 min 0,000 mm 0,0 UV-I 0 W/m 14,5 C 0,0 km/h (0 Bft)
17.08.2016 22:01 16,0 C 16,0 C 91 % 1010,1 hPa 0,0 mm 0,0 km/h (0 Bft) S 182 0 min 0,000 mm 0,0 UV-I 0 W/m 14,5 C 0,0 km/h (0 Bft)
17.08.2016 22:02 16,0 C 16,0 C 91 % 1010,1 hPa 0,0 mm 0,0 km/h (0 Bft) S 182 0 min 0,000 mm 0,0 UV-I 0 W/m 14,5 C 0,0 km/h (0 Bft)
17.08.2016 22:03 16,0 C 16,0 C 91 % 1010,1 hPa 0,0 mm 0,0 km/h (0 Bft) S 182 0 min 0,000 mm 0,0 UV-I 0 W/m 14,5 C 0,0 km/h (0 Bft)
17.08.2016 22:04 16,0 C 16,0 C 91 % 1010,1 hPa 0,0 mm 0,0 km/h (0 Bft) S 182 0 min 0,000 mm 0,0 UV-I 0 W/m 14,5 C 0,0 km/h (0 Bft)
17.08.2016 22:05 16,0 C 16,0 C 91 % 1010,1 hPa 0,0 mm 0,0 km/h (0 Bft) S 182 0 min 0,000 mm 0,0 UV-I 0 W/m 14,5 C 0,0 km/h (0 Bft)
17.08.2016 22:06 16,0 C 16,0 C 91 % 1010,0 hPa 0,0 mm 0,0 km/h (0 Bft) S 182 0 min 0,000 mm 0,0 UV-I 0 W/m 14,5 C 0,0 km/h (0 Bft)
17.08.2016 22:07 15,9 C 16,0 C 90 % 1010,1 hPa 0,0 mm 0,0 km/h (0 Bft) S 182 0 min 0,000 mm 0,0 UV-I 0 W/m 14,3 C 0,0 km/h (0 Bft)
17.08.2016 22:08 16,0 C 16,0 C 90 % 1010,1 hPa 0,0 mm 0,0 km/h (0 Bft) S 182 0 min 0,000 mm 0,0 UV-I 0 W/m 14,4 C 0,0 km/h (0 Bft)
17.08.2016 22:09 16,0 C 16,0 C 91 % 1010,1 hPa 0,0 mm 0,0 km/h (0 Bft) S 182 0 min 0,000 mm 0,0 UV-I 0 W/m 14,5 C 0,0 km/h (0 Bft)
17.08.2016 22:10 16,0 C 16,0 C 91 % 1010,1 hPa 0,0 mm 0,0 km/h (0 Bft) S 182 0 min 0,000 mm 0,0 UV-I 0 W/m 14,5 C 0,0 km/h (0 Bft)
17.08.2016 22:11 16,0 C 16,0 C 91 % 1010,2 hPa 0,0 mm 0,0 km/h (0 Bft) S 182 0 min 0,000 mm 0,0 UV-I 0 W/m 14,5 C 0,0 km/h (0 Bft)
17.08.2016 22:12 16,0 C 16,0 C 92 % 1010,2 hPa 0,0 mm 0,0 km/h (0 Bft) S 182 0 min 0,000 mm 0,0 UV-I 0 W/m 14,7 C 0,0 km/h (0 Bft)
17.08.2016 22:13 16,0 C 16,0 C 92 % 1010,2 hPa 0,0 mm 0,0 km/h (0 Bft) S 182 0 min 0,000 mm 0,0 UV-I 0 W/m 14,7 C 0,0 km/h (0 Bft)
17.08.2016 22:14 16,0 C 16,0 C 92 % 1010,2 hPa 0,0 mm 0,0 km/h (0 Bft) S 182 0 min 0,000 mm 0,0 UV-I 0 W/m 14,7 C 0,0 km/h (0 Bft)
17.08.2016 22:15 16,0 C 16,0 C 92 % 1010,2 hPa 0,0 mm 0,0 km/h (0 Bft) S 182 0 min 0,000 mm 0,0 UV-I 0 W/m 14,7 C 0,0 km/h (0 Bft)
17.08.2016 22:16 15,9 C 16,0 C 91 % 1010,2 hPa 0,0 mm 0,0 km/h (0 Bft) S 182 0 min 0,000 mm 0,0 UV-I 0 W/m 14,4 C 0,0 km/h (0 Bft)
17.08.2016 22:17 15,9 C 15,9 C 91 % 1010,2 hPa 0,0 mm 0,0 km/h (0 Bft) S 182 0 min 0,000 mm 0,0 UV-I 0 W/m 14,4 C 0,0 km/h (0 Bft)
17.08.2016 22:18 15,9 C 16,0 C 91 % 1010,2 hPa 0,0 mm 0,0 km/h (0 Bft) S 182 0 min 0,000 mm 0,0 UV-I 0 W/m 14,4 C 0,0 km/h (0 Bft)
17.08.2016 22:19 16,0 C 16,0 C 91 % 1010,2 hPa 0,0 mm 0,0 km/h (0 Bft) S 182 0 min 0,000 mm 0,0 UV-I 0 W/m 14,5 C 0,0 km/h (0 Bft)
17.08.2016 22:20 16,0 C 16,0 C 91 % 1010,1 hPa 0,0 mm 0,0 km/h (0 Bft) S 182 0 min 0,000 mm 0,0 UV-I 0 W/m 14,5 C 0,0 km/h (0 Bft)
17.08.2016 22:21 16,0 C 16,0 C 91 % 1010,2 hPa 0,0 mm 0,2 km/h (0 Bft) S 182 0 min 0,000 mm 0,0 UV-I 0 W/m 14,5 C 1,6 km/h (1 Bft)
17.08.2016 22:22 16,0 C 16,0 C 91 % 1010,2 hPa 0,0 mm 0,1 km/h (0 Bft) S 182 0 min 0,000 mm 0,0 UV-I 0 W/m 14,5 C 1,6 km/h (1 Bft)
17.08.2016 22:23 16,0 C 16,0 C 90 % 1010,2 hPa 0,0 mm 0,0 km/h (0 Bft) S 182 0 min 0,000 mm 0,0 UV-I 0 W/m 14,4 C 0,0 km/h (0 Bft)
17.08.2016 22:24 16,0 C 16,0 C 91 % 1010,2 hPa 0,0 mm 0,0 km/h (0 Bft) S 182 0 min 0,000 mm 0,0 UV-I 0 W/m 14,5 C 0,0 km/h (0 Bft)
17.08.2016 22:25 16,0 C 16,1 C 91 % 1010,2 hPa 0,0 mm 0,0 km/h (0 Bft) S 182 0 min 0,000 mm 0,0 UV-I 0 W/m 14,5 C 0,0 km/h (0 Bft)
17.08.2016 22:26 16,0 C 16,0 C 90 % 1010,2 hPa 0,0 mm 0,0 km/h (0 Bft) S 182 0 min 0,000 mm 0,0 UV-I 0 W/m 14,4 C 0,0 km/h (0 Bft)
17.08.2016 22:27 16,0 C 16,1 C 90 % 1010,2 hPa 0,0 mm 0,0 km/h (0 Bft) S 182 0 min 0,000 mm 0,0 UV-I 0 W/m 14,4 C 0,0 km/h (0 Bft)
17.08.2016 22:28 16,0 C 16,0 C 90 % 1010,3 hPa 0,0 mm 0,0 km/h (0 Bft) S 182 0 min 0,000 mm 0,0 UV-I 0 W/m 14,4 C 0,0 km/h (0 Bft)
17.08.2016 22:29 16,0 C 16,0 C 90 % 1010,2 hPa 0,0 mm 0,0 km/h (0 Bft) S 182 0 min 0,000 mm 0,0 UV-I 0 W/m 14,4 C 0,0 km/h (0 Bft)
17.08.2016 22:30 16,0 C 16,0 C 90 % 1010,2 hPa 0,0 mm 0,0 km/h (0 Bft) S 182 0 min 0,000 mm 0,0 UV-I 0 W/m 14,4 C 0,0 km/h (0 Bft)
17.08.2016 22:31 16,0 C 16,0 C 90 % 1010,2 hPa 0,0 mm 0,0 km/h (0 Bft) S 182 0 min 0,000 mm 0,0 UV-I 0 W/m 14,4 C 0,0 km/h (0 Bft)
17.08.2016 22:32 16,0 C 16,0 C 91 % 1010,3 hPa 0,0 mm 0,0 km/h (0 Bft) S 182 0 min 0,000 mm 0,0 UV-I 0 W/m 14,5 C 0,0 km/h (0 Bft)
17.08.2016 22:33 16,0 C 16,0 C 91 % 1010,2 hPa 0,0 mm 0,0 km/h (0 Bft) S 182 0 min 0,000 mm 0,0 UV-I 0 W/m 14,5 C 0,0 km/h (0 Bft)
17.08.2016 22:34 16,0 C 16,0 C 91 % 1010,2 hPa 0,0 mm 0,0 km/h (0 Bft) S 182 0 min 0,000 mm 0,0 UV-I 0 W/m 14,5 C 0,0 km/h (0 Bft)
17.08.2016 22:35 15,9 C 16,0 C 92 % 1010,2 hPa 0,0 mm 0,0 km/h (0 Bft) S 182 0 min 0,000 mm 0,0 UV-I 0 W/m 14,6 C 0,0 km/h (0 Bft)
17.08.2016 22:36 15,9 C 15,9 C 91 % 1010,2 hPa 0,0 mm 0,0 km/h (0 Bft) S 182 0 min 0,000 mm 0,0 UV-I 0 W/m 14,4 C 0,0 km/h (0 Bft)
17.08.2016 22:37 15,9 C 15,9 C 91 % 1010,2 hPa 0,0 mm 0,0 km/h (0 Bft) S 182 0 min 0,000 mm 0,0 UV-I 0 W/m 14,4 C 0,0 km/h (0 Bft)
17.08.2016 22:38 15,9 C 15,9 C 91 % 1010,2 hPa 0,0 mm 0,1 km/h (0 Bft) S 182 0 min 0,000 mm 0,0 UV-I 0 W/m 14,4 C 1,6 km/h (1 Bft)
17.08.2016 22:39 15,9 C 15,9 C 91 % 1010,2 hPa 0,0 mm 0,0 km/h (0 Bft) S 182 0 min 0,000 mm 0,0 UV-I 0 W/m 14,4 C 0,0 km/h (0 Bft)
17.08.2016 22:40 15,8 C 15,9 C 91 % 1010,2 hPa 0,0 mm 0,0 km/h (0 Bft) S 182 0 min 0,000 mm 0,0 UV-I 0 W/m 14,3 C 0,0 km/h (0 Bft)
17.08.2016 22:41 15,8 C 15,8 C 91 % 1010,2 hPa 0,0 mm 0,0 km/h (0 Bft) S 182 0 min 0,000 mm 0,0 UV-I 0 W/m 14,3 C 0,0 km/h (0 Bft)
17.08.2016 22:42 15,8 C 15,8 C 91 % 1010,2 hPa 0,0 mm 0,0 km/h (0 Bft) S 182 0 min 0,000 mm 0,0 UV-I 0 W/m 14,3 C 0,0 km/h (0 Bft)
17.08.2016 22:43 15,8 C 15,8 C 91 % 1010,2 hPa 0,0 mm 0,0 km/h (0 Bft) S 182 0 min 0,000 mm 0,0 UV-I 0 W/m 14,3 C 0,0 km/h (0 Bft)
17.08.2016 22:44 15,7 C 15,8 C 91 % 1010,2 hPa 0,0 mm 0,0 km/h (0 Bft) S 182 0 min 0,000 mm 0,0 UV-I 0 W/m 14,2 C 0,0 km/h (0 Bft)
17.08.2016 22:45 15,7 C 15,7 C 91 % 1010,2 hPa 0,0 mm 0,0 km/h (0 Bft) S 182 0 min 0,000 mm 0,0 UV-I 0 W/m 14,2 C 0,0 km/h (0 Bft)
17.08.2016 22:46 15,7 C 15,7 C 91 % 1010,2 hPa 0,0 mm 0,0 km/h (0 Bft) S 182 0 min 0,000 mm 0,0 UV-I 0 W/m 14,2 C 0,0 km/h (0 Bft)
17.08.2016 22:47 15,7 C 15,7 C 91 % 1010,2 hPa 0,0 mm 0,0 km/h (0 Bft) S 182 0 min 0,000 mm 0,0 UV-I 0 W/m 14,2 C 0,0 km/h (0 Bft)
17.08.2016 22:48 15,7 C 15,7 C 91 % 1010,2 hPa 0,0 mm 0,0 km/h (0 Bft) S 182 0 min 0,000 mm 0,0 UV-I 0 W/m 14,2 C 0,0 km/h (0 Bft)
17.08.2016 22:49 15,7 C 15,7 C 92 % 1010,2 hPa 0,0 mm 0,0 km/h (0 Bft) S 182 0 min 0,000 mm 0,0 UV-I 0 W/m 14,4 C 0,0 km/h (0 Bft)
17.08.2016 22:50 15,6 C 15,7 C 92 % 1010,2 hPa 0,0 mm 0,0 km/h (0 Bft) S 182 0 min 0,000 mm 0,0 UV-I 0 W/m 14,3 C 0,0 km/h (0 Bft)
17.08.2016 22:51 15,7 C 15,7 C 92 % 1010,2 hPa 0,0 mm 0,0 km/h (0 Bft) S 182 0 min 0,000 mm 0,0 UV-I 0 W/m 14,4 C 0,0 km/h (0 Bft)
17.08.2016 22:52 15,7 C 15,7 C 92 % 1010,2 hPa 0,0 mm 0,0 km/h (0 Bft) S 182 0 min 0,000 mm 0,0 UV-I 0 W/m 14,4 C 0,0 km/h (0 Bft)
17.08.2016 22:53 15,7 C 15,7 C 92 % 1010,2 hPa 0,0 mm 0,0 km/h (0 Bft) S 182 0 min 0,000 mm 0,0 UV-I 0 W/m 14,4 C 0,0 km/h (0 Bft)
17.08.2016 22:54 15,7 C 15,7 C 92 % 1010,2 hPa 0,0 mm 0,0 km/h (0 Bft) S 182 0 min 0,000 mm 0,0 UV-I 0 W/m 14,4 C 0,0 km/h (0 Bft)
17.08.2016 22:55 15,6 C 15,7 C 92 % 1010,2 hPa 0,0 mm 0,0 km/h (0 Bft) S 182 0 min 0,000 mm 0,0 UV-I 0 W/m 14,3 C 0,0 km/h (0 Bft)
17.08.2016 22:56 15,6 C 15,6 C 92 % 1010,2 hPa 0,0 mm 0,0 km/h (0 Bft) S 182 0 min 0,000 mm 0,0 UV-I 0 W/m 14,3 C 0,0 km/h (0 Bft)
17.08.2016 22:57 15,6 C 15,6 C 92 % 1010,2 hPa 0,0 mm 0,0 km/h (0 Bft) S 182 0 min 0,000 mm 0,0 UV-I 0 W/m 14,3 C 0,0 km/h (0 Bft)
17.08.2016 22:58 15,6 C 15,6 C 92 % 1010,2 hPa 0,0 mm 0,0 km/h (0 Bft) S 182 0 min 0,000 mm 0,0 UV-I 0 W/m 14,3 C 0,0 km/h (0 Bft)
17.08.2016 22:59 15,6 C 15,6 C 92 % 1010,2 hPa 0,0 mm 0,0 km/h (0 Bft) S 182 0 min 0,000 mm 0,0 UV-I 0 W/m 14,3 C 0,0 km/h (0 Bft)
17.08.2016 23:00 15,6 C 15,6 C 92 % 1010,2 hPa 0,0 mm 0,0 km/h (0 Bft) S 182 0 min 0,000 mm 0,0 UV-I 0 W/m 14,3 C 0,0 km/h (0 Bft)
17.08.2016 23:01 15,6 C 15,6 C 92 % 1010,2 hPa 0,0 mm 0,0 km/h (0 Bft) S 182 0 min 0,000 mm 0,0 UV-I 0 W/m 14,3 C 0,0 km/h (0 Bft)
17.08.2016 23:02 15,6 C 15,6 C 92 % 1010,2 hPa 0,0 mm 0,0 km/h (0 Bft) S 182 0 min 0,000 mm 0,0 UV-I 0 W/m 14,3 C 0,0 km/h (0 Bft)
17.08.2016 23:03 15,6 C 15,6 C 92 % 1010,2 hPa 0,0 mm 0,0 km/h (0 Bft) S 182 0 min 0,000 mm 0,0 UV-I 0 W/m 14,3 C 0,0 km/h (0 Bft)
17.08.2016 23:04 15,6 C 15,6 C 92 % 1010,2 hPa 0,0 mm 0,0 km/h (0 Bft) S 182 0 min 0,000 mm 0,0 UV-I 0 W/m 14,3 C 0,0 km/h (0 Bft)
17.08.2016 23:05 15,6 C 15,6 C 92 % 1010,2 hPa 0,0 mm 0,0 km/h (0 Bft) S 182 0 min 0,000 mm 0,0 UV-I 0 W/m 14,3 C 0,0 km/h (0 Bft)
17.08.2016 23:06 15,6 C 15,6 C 92 % 1010,2 hPa 0,0 mm 0,0 km/h (0 Bft) S 182 0 min 0,000 mm 0,0 UV-I 0 W/m 14,3 C 0,0 km/h (0 Bft)
17.08.2016 23:07 15,6 C 15,6 C 92 % 1010,2 hPa 0,0 mm 0,0 km/h (0 Bft) S 182 0 min 0,000 mm 0,0 UV-I 0 W/m 14,3 C 0,0 km/h (0 Bft)
17.08.2016 23:08 15,6 C 15,6 C 91 % 1010,2 hPa 0,0 mm 0,0 km/h (0 Bft) S 182 0 min 0,000 mm 0,0 UV-I 0 W/m 14,1 C 0,0 km/h (0 Bft)
17.08.2016 23:09 15,6 C 15,6 C 91 % 1010,2 hPa 0,0 mm 0,0 km/h (0 Bft) S 182 0 min 0,000 mm 0,0 UV-I 0 W/m 14,1 C 0,0 km/h (0 Bft)
17.08.2016 23:10 15,6 C 15,6 C 91 % 1010,2 hPa 0,0 mm 0,0 km/h (0 Bft) S 182 0 min 0,000 mm 0,0 UV-I 0 W/m 14,1 C 0,0 km/h (0 Bft)
17.08.2016 23:11 15,6 C 15,6 C 91 % 1010,2 hPa 0,0 mm 0,0 km/h (0 Bft) S 182 0 min 0,000 mm 0,0 UV-I 0 W/m 14,1 C 0,0 km/h (0 Bft)
17.08.2016 23:12 15,6 C 15,6 C 91 % 1010,2 hPa 0,0 mm 0,0 km/h (0 Bft) S 182 0 min 0,000 mm 0,0 UV-I 0 W/m 14,1 C 0,0 km/h (0 Bft)
17.08.2016 23:13 15,6 C 15,6 C 91 % 1010,2 hPa 0,0 mm 0,0 km/h (0 Bft) S 182 0 min 0,000 mm 0,0 UV-I 0 W/m 14,1 C 0,0 km/h (0 Bft)
17.08.2016 23:14 15,6 C 15,6 C 91 % 1010,2 hPa 0,0 mm 0,0 km/h (0 Bft) S 182 0 min 0,000 mm 0,0 UV-I 0 W/m 14,1 C 0,0 km/h (0 Bft)
17.08.2016 23:15 15,6 C 15,6 C 91 % 1010,2 hPa 0,0 mm 0,0 km/h (0 Bft) S 182 0 min 0,000 mm 0,0 UV-I 0 W/m 14,1 C 0,0 km/h (0 Bft)
17.08.2016 23:16 15,6 C 15,6 C 91 % 1010,2 hPa 0,0 mm 0,0 km/h (0 Bft) S 182 0 min 0,000 mm 0,0 UV-I 0 W/m 14,1 C 0,0 km/h (0 Bft)
17.08.2016 23:17 15,6 C 15,6 C 91 % 1010,2 hPa 0,0 mm 0,0 km/h (0 Bft) S 182 0 min 0,000 mm 0,0 UV-I 0 W/m 14,1 C 0,0 km/h (0 Bft)
17.08.2016 23:18 15,6 C 15,6 C 91 % 1010,2 hPa 0,0 mm 0,0 km/h (0 Bft) S 182 0 min 0,000 mm 0,0 UV-I 0 W/m 14,1 C 0,0 km/h (0 Bft)
17.08.2016 23:19 15,6 C 15,6 C 92 % 1010,2 hPa 0,0 mm 0,0 km/h (0 Bft) S 182 0 min 0,000 mm 0,0 UV-I 0 W/m 14,3 C 0,0 km/h (0 Bft)
17.08.2016 23:20 15,6 C 15,6 C 92 % 1010,2 hPa 0,0 mm 0,1 km/h (0 Bft) S 182 0 min 0,000 mm 0,0 UV-I 0 W/m 14,3 C 1,6 km/h (1 Bft)
17.08.2016 23:21 15,6 C 15,6 C 92 % 1010,1 hPa 0,0 mm 0,4 km/h (0 Bft) S 182 0 min 0,000 mm 0,0 UV-I 0 W/m 14,3 C 1,6 km/h (1 Bft)
17.08.2016 23:22 15,6 C 15,6 C 92 % 1010,1 hPa 0,0 mm 0,0 km/h (0 Bft) S 182 0 min 0,000 mm 0,0 UV-I 0 W/m 14,3 C 0,0 km/h (0 Bft)
17.08.2016 23:23 15,6 C 15,6 C 92 % 1010,1 hPa 0,0 mm 0,0 km/h (0 Bft) S 182 0 min 0,000 mm 0,0 UV-I 0 W/m 14,3 C 0,0 km/h (0 Bft)
17.08.2016 23:24 15,6 C 15,6 C 92 % 1010,2 hPa 0,0 mm 0,0 km/h (0 Bft) S 182 0 min 0,000 mm 0,0 UV-I 0 W/m 14,3 C 0,0 km/h (0 Bft)
17.08.2016 23:25 15,6 C 15,6 C 92 % 1010,2 hPa 0,0 mm 0,0 km/h (0 Bft) S 182 0 min 0,000 mm 0,0 UV-I 0 W/m 14,3 C 0,0 km/h (0 Bft)
17.08.2016 23:26 15,6 C 15,6 C 92 % 1010,2 hPa 0,0 mm 0,0 km/h (0 Bft) S 182 0 min 0,000 mm 0,0 UV-I 0 W/m 14,3 C 0,0 km/h (0 Bft)
17.08.2016 23:27 15,6 C 15,6 C 92 % 1010,2 hPa 0,0 mm 0,0 km/h (0 Bft) S 182 0 min 0,000 mm 0,0 UV-I 0 W/m 14,3 C 0,0 km/h (0 Bft)
17.08.2016 23:28 15,6 C 15,6 C 92 % 1010,2 hPa 0,0 mm 0,0 km/h (0 Bft) S 182 0 min 0,000 mm 0,0 UV-I 0 W/m 14,3 C 0,0 km/h (0 Bft)
17.08.2016 23:29 15,6 C 15,6 C 91 % 1010,2 hPa 0,0 mm 0,3 km/h (0 Bft) S 182 0 min 0,000 mm 0,0 UV-I 0 W/m 14,1 C 1,6 km/h (1 Bft)
17.08.2016 23:30 15,6 C 15,7 C 92 % 1010,3 hPa 0,0 mm 0,0 km/h (0 Bft) S 182 0 min 0,000 mm 0,0 UV-I 0 W/m 14,3 C 0,0 km/h (0 Bft)
17.08.2016 23:31 15,7 C 15,7 C 92 % 1010,2 hPa 0,0 mm 0,1 km/h (0 Bft) S 182 0 min 0,000 mm 0,0 UV-I 0 W/m 14,4 C 1,6 km/h (1 Bft)
17.08.2016 23:32 15,7 C 15,7 C 92 % 1010,1 hPa 0,0 mm 0,2 km/h (0 Bft) S 182 0 min 0,000 mm 0,0 UV-I 0 W/m 14,4 C 1,6 km/h (1 Bft)
17.08.2016 23:33 15,7 C 15,7 C 92 % 1010,1 hPa 0,0 mm 0,0 km/h (0 Bft) S 182 0 min 0,000 mm 0,0 UV-I 0 W/m 14,4 C 0,0 km/h (0 Bft)
17.08.2016 23:34 15,6 C 15,7 C 92 % 1010,2 hPa 0,0 mm 0,0 km/h (0 Bft) S 182 0 min 0,000 mm 0,0 UV-I 0 W/m 14,3 C 0,0 km/h (0 Bft)
17.08.2016 23:35 15,7 C 15,7 C 92 % 1010,1 hPa 0,0 mm 0,0 km/h (0 Bft) S 182 0 min 0,000 mm 0,0 UV-I 0 W/m 14,4 C 0,0 km/h (0 Bft)
17.08.2016 23:36 15,7 C 15,7 C 92 % 1010,2 hPa 0,0 mm 0,1 km/h (0 Bft) S 182 0 min 0,000 mm 0,0 UV-I 0 W/m 14,4 C 1,6 km/h (1 Bft)
17.08.2016 23:37 15,6 C 15,7 C 92 % 1010,1 hPa 0,0 mm 0,0 km/h (0 Bft) S 182 0 min 0,000 mm 0,0 UV-I 0 W/m 14,3 C 0,0 km/h (0 Bft)
17.08.2016 23:38 15,7 C 15,7 C 92 % 1010,2 hPa 0,0 mm 0,0 km/h (0 Bft) S 182 0 min 0,000 mm 0,0 UV-I 0 W/m 14,4 C 0,0 km/h (0 Bft)
17.08.2016 23:39 15,6 C 15,7 C 91 % 1010,2 hPa 0,0 mm 1,2 km/h (1 Bft) S 182 0 min 0,000 mm 0,0 UV-I 0 W/m 14,1 C 3,2 km/h (1 Bft)
17.08.2016 23:40 15,7 C 15,7 C 92 % 1010,3 hPa 0,0 mm 2,6 km/h (1 Bft) S 183 0 min 0,000 mm 0,0 UV-I 0 W/m 14,4 C 3,2 km/h (1 Bft)
17.08.2016 23:41 15,7 C 15,7 C 92 % 1010,3 hPa 0,0 mm 2,5 km/h (1 Bft) S 188 0 min 0,000 mm 0,0 UV-I 0 W/m 14,4 C 3,2 km/h (1 Bft)
17.08.2016 23:42 15,7 C 15,7 C 92 % 1010,3 hPa 0,0 mm 1,5 km/h (1 Bft) S 188 0 min 0,000 mm 0,0 UV-I 0 W/m 14,4 C 3,2 km/h (1 Bft)
17.08.2016 23:43 15,7 C 15,7 C 92 % 1010,3 hPa 0,0 mm 0,5 km/h (0 Bft) S 188 0 min 0,000 mm 0,0 UV-I 0 W/m 14,4 C 1,6 km/h (1 Bft)
17.08.2016 23:44 15,7 C 15,7 C 92 % 1010,2 hPa 0,0 mm 1,5 km/h (1 Bft) S 175 0 min 0,000 mm 0,0 UV-I 0 W/m 14,4 C 4,8 km/h (1 Bft)
17.08.2016 23:45 15,7 C 15,7 C 91 % 1010,2 hPa 0,0 mm 3,2 km/h (1 Bft) S 174 0 min 0,000 mm 0,0 UV-I 0 W/m 14,2 C 4,8 km/h (1 Bft)
17.08.2016 23:46 15,7 C 15,7 C 91 % 1010,2 hPa 0,0 mm 1,1 km/h (1 Bft) S 174 0 min 0,000 mm 0,0 UV-I 0 W/m 14,2 C 3,2 km/h (1 Bft)
17.08.2016 23:47 15,7 C 15,7 C 92 % 1010,1 hPa 0,0 mm 0,8 km/h (0 Bft) S 174 0 min 0,000 mm 0,0 UV-I 0 W/m 14,4 C 1,6 km/h (1 Bft)
17.08.2016 23:48 15,7 C 15,7 C 92 % 1010,1 hPa 0,0 mm 0,8 km/h (0 Bft) S 174 0 min 0,000 mm 0,0 UV-I 0 W/m 14,4 C 1,6 km/h (1 Bft)
17.08.2016 23:49 15,7 C 15,7 C 92 % 1010,1 hPa 0,0 mm 0,5 km/h (0 Bft) S 174 0 min 0,000 mm 0,0 UV-I 0 W/m 14,4 C 1,6 km/h (1 Bft)
17.08.2016 23:50 15,7 C 15,7 C 92 % 1010,1 hPa 0,0 mm 0,0 km/h (0 Bft) S 174 0 min 0,000 mm 0,0 UV-I 0 W/m 14,4 C 0,0 km/h (0 Bft)
17.08.2016 23:51 15,6 C 15,7 C 92 % 1010,1 hPa 0,0 mm 0,1 km/h (0 Bft) S 174 0 min 0,000 mm 0,0 UV-I 0 W/m 14,3 C 1,6 km/h (1 Bft)
17.08.2016 23:52 15,5 C 15,6 C 92 % 1010,1 hPa 0,0 mm 0,3 km/h (0 Bft) S 174 0 min 0,000 mm 0,0 UV-I 0 W/m 14,2 C 1,6 km/h (1 Bft)
17.08.2016 23:53 15,5 C 15,5 C 93 % 1010,1 hPa 0,0 mm 0,2 km/h (0 Bft) S 174 0 min 0,000 mm 0,0 UV-I 0 W/m 14,4 C 1,6 km/h (1 Bft)
17.08.2016 23:54 15,5 C 15,5 C 93 % 1010,1 hPa 0,0 mm 0,5 km/h (0 Bft) S 174 0 min 0,000 mm 0,0 UV-I 0 W/m 14,4 C 1,6 km/h (1 Bft)
17.08.2016 23:55 15,5 C 15,5 C 93 % 1010,1 hPa 0,0 mm 0,1 km/h (0 Bft) S 174 0 min 0,000 mm 0,0 UV-I 0 W/m 14,4 C 1,6 km/h (1 Bft)
17.08.2016 23:56 15,4 C 15,5 C 93 % 1010,1 hPa 0,0 mm 0,0 km/h (0 Bft) S 174 0 min 0,000 mm 0,0 UV-I 0 W/m 14,3 C 0,0 km/h (0 Bft)
17.08.2016 23:57 15,4 C 15,4 C 93 % 1010,1 hPa 0,0 mm 0,0 km/h (0 Bft) S 174 0 min 0,000 mm 0,0 UV-I 0 W/m 14,3 C 0,0 km/h (0 Bft)
17.08.2016 23:58 15,4 C 15,4 C 93 % 1010,1 hPa 0,0 mm 0,0 km/h (0 Bft) S 174 0 min 0,000 mm 0,0 UV-I 0 W/m 14,3 C 0,0 km/h (0 Bft)
17.08.2016 23:59 15,4 C 15,4 C 93 % 1010,0 hPa 0,0 mm 0,0 km/h (0 Bft) S 174 0 min 0,000 mm 0,0 UV-I 0 W/m 14,3 C 0,0 km/h (0 Bft)
_ Min-Zeit 04:29 04:29 17:15 19:39 - 23:59 - - - - - - 04:29 23:59
Minimum _ 13,1 C 13,1 C 70 % 1009,7 hPa - 0,0 km/h (0 Bft) - - - - - - 12,3 C 0,0 km/h (0 Bft)
_ Max-Zeit 17:11 17:13 07:29 00:32 01:11 17:04 - - 16:16 13:01 12:10 12:13 12:09 17:04
Maximum _ 20,7 C 20,7 C 96 % 1011,9 hPa 0,2 mm 11,3 km/h
N-NW (2 Bft)
- - 1 min 0,229 mm 6,7 UV-I 1020 W/m 16,4 C 19,3 km/h
NW (3 Bft)
Durchschnitt _ 16,4 C 16,4 C 88 % 1010,7 hPa #0,2 mm 1,6 km/h (1 Bft) O-NO - #1:07 h #1,600 mm 2,1 UV-I 113 W/m 14,4 C 2,8 km/h (1 Bft)